GFSGBSN_850_spd_000.txt.gz
Wind_Speed
17 19 18 16 15 14 14 13 13 10 10 12 12 10 11 11 11 10 11 14 15 15 15 16 17 15 16 15 22 9 5 3 23 27 31 23 17 17 8 9 6 4 4 9 16 20 18
18 19 15 16 16 15 15 14 14 12 10 11 12 11 12 12 12 13 12 12 14 15 14 17 16 16 18 16 26 28 10 5 17 28 35 29 18 18 13 8 13 7 15 19 17 24 15
17 18 14 15 13 15 15 15 14 13 11 10 12 13 13 15 15 15 15 14 14 14 15 16 16 15 19 30 8 17 31 24 6 27 34 33 11 17 9 3 10 13 3 7 10 12 8
15 17 19 14 14 13 14 15 14 15 13 12 16 15 14 14 16 17 17 15 14 14 13 16 15 16 14 9 28 16 9 16 14 26 33 32 22 14 7 6 6 6 2 4 4 2 4
13 16 19 17 15 14 14 18 15 15 17 16 16 17 19 17 15 17 17 15 15 14 13 12 12 14 9 10 24 27 13 6 8 21 23 24 28 9 11 5 4 3 4 6 7 5 3
14 14 17 18 18 16 13 17 16 15 16 17 16 18 19 17 17 15 18 17 12 13 11 9 10 3 19 14 20 19 24 9 8 20 14 16 16 5 4 5 7 6 4 3 5 3 2
14 15 15 18 18 16 15 14 16 15 14 18 18 19 18 17 20 19 17 15 9 5 19 13 13 10 6 13 7 11 24 19 8 21 12 16 9 12 13 13 4 6 4 7 4 4 2
13 16 15 16 17 16 15 14 16 15 14 17 17 19 19 9 12 11 24 27 23 6 6 29 11 16 24 6 7 14 25 15 9 9 15 8 16 14 7 7 4 3 3 5 6 1 3
14 14 15 15 17 17 15 14 16 14 15 13 15 19 16 11 11 13 29 31 16 9 2 9 28 11 12 20 12 22 30 15 5 13 20 11 4 15 13 6 10 3 5 4 5 7 4
15 14 17 16 16 17 16 14 16 13 14 11 16 19 12 9 7 14 28 23 21 19 4 7 11 10 14 8 6 21 30 17 5 17 20 6 5 13 16 11 6 9 6 3 3 4 3
15 14 17 18 17 17 18 15 17 14 14 13 13 15 12 8 9 9 16 23 20 16 1 11 9 5 20 10 8 23 33 24 9 9 9 7 14 11 15 17 9 4 5 6 2 3 3
17 16 16 20 17 18 18 16 16 16 14 16 15 14 13 11 7 9 6 24 21 3 5 9 11 10 11 15 7 20 19 12 10 8 3 3 9 10 7 4 11 6 5 2 3 2 2
18 17 18 18 19 18 18 17 16 18 15 17 16 16 16 10 12 9 17 18 3 4 3 7 7 10 13 7 10 10 16 15 9 12 14 1 4 3 8 6 3 4 7 2 1 1 6
18 17 19 20 20 19 19 18 19 18 16 17 18 18 19 14 17 20 21 2 6 3 8 6 7 12 7 9 8 12 13 11 12 1 13 7 5 8 6 6 6 7 8 5 6 4 4
19 20 21 22 20 18 20 19 19 17 16 16 18 22 14 14 22 23 16 3 4 5 7 11 11 8 4 10 2 10 17 11 13 11 10 8 5 2 5 5 11 6 8 4 5 1 1
20 21 22 23 21 17 18 18 18 17 15 15 16 5 3 5 27 28 4 4 7 6 12 15 7 5 9 15 8 5 8 9 11 11 7 7 5 0 2 7 3 7 8 2 2 3 4
20 22 22 22 20 17 17 18 16 15 13 11 3 2 5 11 30 17 3 6 4 18 14 7 6 6 7 8 5 4 8 3 10 9 4 6 4 2 6 6 8 2 4 4 4 3 4
21 22 22 21 20 17 17 17 14 13 10 5 3 1 8 24 5 3 6 5 7 11 3 2 4 6 8 8 5 6 8 6 15 9 8 4 6 6 3 1 5 4 7 6 5 4 1
21 22 22 20 19 18 16 15 11 11 8 6 3 4 14 18 3 2 2 2 3 3 1 3 3 4 9 6 6 4 5 3 11 7 9 8 2 5 2 1 2 4 4 4 5 3 6
23 22 23 20 19 18 14 13 10 8 8 5 4 2 5 14 7 2 3 4 3 2 3 4 5 7 10 4 2 6 6 1 4 4 7 8 3 6 9 4 6 5 5 5 6 4 5
22 22 23 19 19 18 15 12 9 9 6 5 5 4 5 4 5 5 4 6 3 5 8 3 3 14 7 5 4 5 3 4 4 8 4 4 4 3 3 4 4 6 9 11 9 9 7
22 23 24 19 19 18 15 12 10 9 5 8 4 4 4 1 0 5 4 5 4 3 4 1 7 4 4 4 4 8 8 4 5 3 3 3 2 3 2 3 3 2 4 8 4 4 2
23 23 24 19 19 18 14 13 11 10 6 6 7 6 3 0 2 3 3 5 5 5 4 5 7 6 9 1 2 11 11 12 8 7 3 5 5 3 3 2 2 4 8 8 5 4 7
23 23 25 20 19 16 12 12 11 11 9 9 8 5 4 2 2 2 2 2 5 3 4 4 11 4 8 26 24 22 24 20 14 7 3 5 5 3 3 1 1 3 1 6 7 2 5
23 23 23 20 19 16 13 13 11 11 9 8 9 7 5 2 1 2 4 5 7 13 5 4 2 4 22 5 4 5 4 3 5 6 6 3 5 3 5 4 3 0 4 7 6 3 1
25 22 23 20 19 16 14 14 12 12 10 8 6 7 3 5 4 5 4 3 4 4 3 2 6 15 7 3 4 3 3 3 3 2 4 5 6 4 2 4 7 1 2 8 4 2 7
25 22 25 20 18 16 15 14 12 13 11 9 7 6 3 6 3 4 3 5 7 4 4 3 6 3 0 2 3 3 4 1 4 7 5 3 3 4 2 2 5 3 4 5 5 3 10
25 25 25 20 18 17 16 14 13 13 12 10 8 6 4 5 6 4 4 5 6 4 4 9 6 1 2 3 3 3 3 4 3 3 5 6 6 4 3 2 6 4 4 6 5 14 16
23 26 22 20 19 19 17 15 15 14 12 10 8 7 7 4 6 11 10 8 6 5 8 10 1 4 6 4 1 3 2 2 3 3 3 1 4 4 6 4 0 2 3 19 18 19 12

GFSGBSN_850_spd_003.txt.gz
Wind_Speed
15 17 19 17 16 15 15 13 11 10 9 10 10 9 8 10 11 11 10 10 13 14 14 13 14 16 16 17 21 9 4 2 17 24 28 29 19 17 11 14 8 5 4 9 16 13 14
15 17 18 14 17 14 14 16 14 11 10 10 9 7 9 12 12 12 12 11 11 12 12 14 12 15 19 15 15 22 17 4 4 21 29 34 18 25 14 10 17 11 17 20 13 17 12
14 16 18 16 14 13 14 15 14 13 12 11 10 9 11 11 14 14 14 13 12 10 13 13 12 14 17 20 9 8 24 28 10 17 31 37 21 19 13 7 13 9 4 4 6 6 8
15 16 16 18 16 14 13 15 15 13 13 12 13 12 14 14 14 14 15 16 14 12 12 13 12 14 11 8 20 21 7 17 23 14 29 33 29 19 9 9 6 9 3 9 2 2 4
15 15 16 17 18 17 15 13 17 16 15 12 13 16 15 18 20 17 15 15 15 14 12 12 12 12 7 8 25 22 25 7 10 13 22 30 17 15 11 7 4 2 5 6 6 7 5
16 16 15 17 18 18 16 15 15 17 15 13 13 13 15 18 18 19 16 15 14 14 12 9 10 5 13 11 17 13 18 15 9 12 14 18 11 8 8 9 11 7 7 3 5 2 2
15 13 15 16 17 18 17 16 15 15 14 14 13 13 16 18 20 19 18 12 11 7 21 13 11 10 5 11 8 8 15 20 11 16 10 22 11 15 17 12 5 7 7 11 2 2 1
14 13 15 13 14 17 17 15 15 13 14 14 13 13 15 19 16 13 19 29 24 6 5 29 15 20 11 8 6 8 17 17 10 7 11 11 14 12 9 8 7 5 5 5 3 1 3
16 14 16 14 14 15 16 16 15 12 13 13 12 13 16 17 13 16 19 27 21 15 2 6 36 15 11 21 5 10 22 20 9 11 18 17 7 15 12 7 9 4 6 4 4 3 1
18 16 15 16 15 15 16 16 16 12 12 12 12 14 13 13 10 10 14 26 25 15 0 6 11 13 16 10 6 17 26 22 7 15 17 11 6 16 14 12 9 9 4 2 2 4 2
19 16 16 17 15 16 17 16 15 14 12 14 13 13 13 8 6 9 5 22 18 13 3 8 9 2 16 15 8 15 26 23 9 11 10 6 14 18 16 15 9 4 5 3 0 3 1
21 19 17 18 17 16 17 16 15 14 15 15 15 14 13 12 13 11 7 14 17 4 5 8 9 10 14 8 7 20 21 18 9 8 15 3 7 9 8 8 9 9 7 5 3 3 3
22 19 18 18 18 17 18 17 16 15 17 17 16 15 15 12 9 12 16 23 3 4 2 7 5 10 11 7 3 10 16 17 6 10 18 3 3 4 6 9 3 4 6 2 1 4 4
21 19 20 18 18 20 18 18 15 16 17 17 16 16 15 12 14 24 26 2 7 5 5 2 6 12 7 9 8 11 16 14 10 2 11 5 5 8 6 6 6 5 6 4 5 4 2
23 20 21 18 20 20 17 18 16 17 16 16 17 17 16 16 20 30 16 3 3 3 7 9 11 12 5 11 6 9 11 12 10 6 7 12 3 2 9 4 9 4 5 4 4 2 1
24 22 21 18 20 19 17 17 14 15 14 15 17 7 7 13 34 31 3 4 5 9 11 13 5 5 9 13 2 9 12 12 12 15 6 4 5 4 4 7 4 6 6 3 1 4 3
25 23 21 18 20 19 17 15 14 13 13 13 6 3 4 21 35 10 3 5 6 12 16 9 5 6 7 7 5 6 16 6 10 18 5 6 4 1 6 5 9 4 3 1 3 2 3
23 23 22 19 19 18 15 14 14 11 10 7 3 2 7 32 6 4 3 5 8 16 13 6 6 5 9 9 8 9 10 6 20 15 8 7 5 4 3 1 3 5 8 11 4 3 1
24 22 21 19 19 18 15 13 12 9 8 5 3 4 13 26 4 8 5 9 8 7 6 6 5 4 7 10 8 5 9 14 24 17 9 6 2 6 4 2 4 5 4 4 4 3 6
23 21 21 19 19 18 14 13 11 9 7 6 4 3 6 19 8 3 3 3 5 3 1 1 3 6 9 10 2 8 7 5 18 23 18 5 3 5 8 5 6 5 4 4 6 4 5
21 22 21 20 18 18 15 13 11 10 9 8 6 5 7 5 7 10 3 9 5 5 4 3 4 7 10 5 4 6 4 3 4 17 3 2 3 3 1 2 6 8 10 12 10 11 10
15 23 22 19 19 17 15 13 12 12 12 11 4 4 5 2 3 7 6 4 14 3 5 6 8 14 7 7 6 10 9 5 8 2 3 3 3 2 2 2 4 4 6 11 10 3 8
26 16 21 20 19 16 15 14 14 14 14 9 7 9 3 2 2 4 5 5 7 8 4 2 12 9 5 5 6 12 9 14 9 7 4 4 5 3 2 2 4 3 9 10 7 5 10
29 13 21 21 20 18 16 13 15 16 17 15 7 6 3 3 3 4 5 4 6 5 5 3 5 5 4 28 30 24 25 19 15 7 4 5 5 1 3 2 1 4 1 5 6 3 5
23 15 21 22 20 17 16 13 16 16 17 16 13 9 4 3 1 2 6 6 4 6 4 3 7 15 20 3 5 6 3 5 4 5 4 5 7 2 4 4 4 1 4 6 7 5 6
25 21 21 20 19 16 16 15 16 16 16 15 12 13 7 2 4 4 4 4 4 3 3 3 9 15 7 4 4 4 4 5 5 3 1 4 4 4 1 5 6 1 2 7 4 4 8
22 22 17 21 20 19 16 15 16 16 16 14 10 11 7 4 4 6 3 6 9 6 4 4 5 2 3 2 3 2 3 1 5 9 6 3 3 5 4 2 5 4 3 7 4 3 11
28 22 16 20 20 19 17 16 16 16 16 14 10 11 10 2 4 4 4 6 8 8 5 9 6 1 3 2 1 2 3 4 4 3 5 6 6 4 3 2 7 7 4 7 4 13 19
28 27 10 18 22 20 17 17 17 17 16 13 10 10 9 3 3 8 9 8 7 7 13 13 4 5 9 4 2 3 2 2 4 4 1 2 4 4 6 4 0 3 1 11 26 26 17

GFSGBSN_850_spd_006.txt.gz
Wind_Speed
14 15 16 19 18 16 17 18 15 13 12 11 9 7 5 6 8 10 10 9 9 12 13 12 12 15 15 15 16 6 3 4 4 17 22 21 20 22 20 23 20 20 17 17 16 14 14
15 16 17 19 16 16 16 16 18 17 14 13 11 8 7 6 7 9 10 10 10 10 13 11 12 15 14 15 13 19 17 8 4 8 21 23 17 24 19 24 25 15 22 18 16 15 13
16 15 16 17 18 15 16 13 18 17 15 15 14 12 11 9 9 9 10 11 11 10 10 11 11 13 13 20 10 9 19 24 27 9 21 25 28 15 20 19 24 25 13 15 18 17 14
16 15 17 17 17 16 17 16 16 17 16 15 15 15 12 11 11 11 10 10 12 11 10 10 12 12 10 15 23 19 11 7 17 20 13 21 23 23 13 19 19 21 17 17 18 14 13
16 18 19 19 17 16 17 17 16 16 18 16 16 16 15 13 14 14 15 12 14 14 12 11 11 10 8 9 22 23 23 15 6 15 17 12 20 11 20 12 13 17 16 22 17 15 13
18 19 21 19 18 17 17 17 17 16 19 18 17 16 14 13 15 15 13 16 14 15 14 12 12 6 15 10 12 17 21 20 11 14 12 15 15 10 12 13 20 16 19 12 18 12 11
20 19 19 18 18 17 16 16 17 16 17 17 18 15 15 14 17 17 14 15 8 7 25 12 12 9 3 16 6 12 12 17 13 12 12 24 12 19 28 17 16 18 18 14 13 7 6
20 19 15 17 17 16 15 16 15 14 14 15 16 15 14 14 16 18 13 20 18 8 5 26 9 24 6 8 7 14 13 19 16 16 20 16 23 24 15 19 19 20 16 16 12 6 6
18 19 16 19 18 17 15 16 15 14 13 14 14 15 14 14 16 20 19 24 29 22 3 10 30 19 15 15 8 14 21 26 14 15 18 23 17 18 18 22 22 15 17 15 9 5 6
21 21 20 18 20 19 16 16 14 14 12 13 13 13 13 12 13 14 14 26 19 25 2 6 10 13 20 11 11 22 24 23 8 20 19 19 21 23 18 21 23 18 11 9 8 1 5
24 23 23 20 20 19 18 16 15 14 12 11 13 13 13 13 7 7 9 11 23 16 4 11 10 8 14 21 5 23 21 23 15 11 6 14 13 17 20 24 26 11 12 9 3 5 6
22 25 25 21 20 21 19 17 15 15 13 12 13 13 14 15 15 14 7 7 16 2 7 9 9 13 14 23 12 14 16 17 9 8 17 12 7 20 18 24 20 15 14 8 4 1 7
25 24 25 23 20 22 19 18 17 15 14 12 13 13 15 15 10 12 16 19 3 6 4 5 4 8 16 12 19 10 17 21 8 7 7 10 15 5 17 16 3 16 15 3 5 4 6
24 26 22 22 22 21 19 19 19 16 14 14 15 14 14 17 17 12 34 3 7 4 5 3 6 14 9 15 14 13 15 17 18 13 11 8 5 11 13 20 9 16 14 4 5 6 5
19 23 24 23 20 19 19 19 17 15 14 14 13 12 16 18 18 25 18 5 4 4 8 7 14 9 9 17 8 13 17 19 12 18 4 9 4 7 12 5 11 4 6 2 3 1 3
29 23 23 24 21 20 19 19 16 15 12 12 12 10 14 11 22 32 2 4 4 6 6 18 9 11 12 19 5 14 15 16 12 17 9 12 4 6 6 8 4 10 10 4 2 5 5
33 17 24 23 20 19 17 17 15 15 12 11 10 4 5 14 31 14 3 5 5 13 16 16 9 11 11 16 7 14 15 8 20 16 14 3 7 2 13 6 12 10 6 4 2 3 3
30 23 23 21 20 19 16 15 15 13 12 10 6 3 12 30 6 5 4 5 5 7 26 14 10 8 14 15 11 5 15 8 27 13 9 8 3 6 3 3 9 10 11 12 6 5 1
28 27 15 22 19 18 15 14 14 14 13 8 5 5 20 37 5 8 5 8 9 13 20 14 12 9 8 14 8 16 13 17 26 16 11 11 7 8 5 2 3 7 11 17 10 1 10
22 29 21 21 19 17 14 13 14 15 14 12 5 3 8 19 14 3 8 8 7 21 18 12 9 10 16 12 11 15 14 8 22 26 27 4 5 13 11 9 12 14 19 19 17 10 9
21 25 30 12 19 17 14 13 14 16 16 14 8 5 6 6 9 15 6 7 11 9 10 4 7 12 15 9 10 10 14 6 17 24 19 5 4 9 3 2 15 17 19 19 20 19 13
27 24 27 10 19 18 14 13 14 17 17 19 6 4 5 4 10 12 12 10 14 4 7 4 3 14 17 12 12 14 13 11 11 16 20 11 3 2 3 4 10 14 19 22 23 21 23
28 26 24 9 14 20 15 14 15 19 21 15 11 11 3 3 4 5 5 9 16 15 7 6 13 14 16 9 16 22 20 15 10 16 20 12 5 3 3 4 5 9 18 20 18 20 21
26 26 26 21 10 21 17 15 16 21 24 22 9 5 4 5 6 4 5 4 7 15 3 4 12 15 9 6 15 16 11 5 15 6 17 13 4 1 3 2 5 1 3 16 21 18 20
28 27 19 26 8 25 18 16 16 22 22 23 21 8 4 4 3 3 7 3 4 6 2 3 2 7 23 7 10 9 5 3 4 6 4 10 3 3 4 7 6 4 5 7 11 13 15
27 31 23 23 8 19 16 14 14 21 20 21 20 16 7 3 2 1 3 8 3 3 3 3 11 12 5 1 4 4 5 6 5 2 4 5 7 3 1 4 4 3 3 6 5 7 11
29 31 31 25 10 19 14 12 14 21 20 20 14 16 9 4 3 5 3 7 6 3 4 4 2 2 3 2 2 3 3 3 10 12 8 4 5 12 9 2 7 2 6 6 6 1 11
30 30 29 24 16 17 17 13 13 20 20 19 16 15 15 5 5 6 4 5 7 6 4 8 6 1 2 1 2 2 2 4 3 7 11 12 9 5 5 3 9 8 5 6 4 12 17
31 32 29 23 16 18 19 12 15 20 20 18 13 13 14 8 3 3 4 6 10 9 11 14 2 5 7 3 1 4 3 2 3 5 1 5 3 4 7 3 2 2 1 3 12 21 14

GFSGBSN_850_spd_009.txt.gz
Wind_Speed
24 18 17 18 19 22 18 20 18 15 14 14 14 11 10 9 9 10 9 9 9 9 11 9 9 11 11 15 24 4 2 4 2 14 20 19 20 18 18 21 25 22 23 25 24 20 17
22 22 20 18 20 20 19 19 18 17 17 16 15 14 11 9 10 10 10 9 8 8 9 12 10 12 13 18 16 19 12 9 5 6 16 21 15 21 17 24 22 16 29 26 20 24 22
23 26 21 19 20 21 20 19 16 18 19 17 16 16 14 12 12 11 11 9 9 9 8 11 10 11 16 20 9 13 18 20 16 13 12 17 21 16 16 18 32 29 17 19 26 21 19
24 26 18 20 20 21 21 21 19 18 17 17 15 16 15 14 13 14 12 9 9 9 10 11 11 10 12 13 22 15 9 7 12 19 17 14 19 25 20 15 24 24 19 16 19 23 24
24 24 20 20 22 22 21 21 20 20 18 17 16 16 16 16 15 15 15 14 12 10 11 11 8 11 13 11 21 23 23 17 10 11 17 14 16 21 17 10 10 14 19 26 21 23 18
25 22 22 23 24 23 22 21 21 21 20 18 18 17 15 15 14 16 15 13 14 11 14 10 10 6 19 11 13 16 18 19 20 11 15 20 14 12 14 16 16 19 25 19 23 21 16
25 23 23 24 25 23 22 21 21 20 20 19 18 17 15 15 15 17 18 15 8 7 27 13 12 16 3 17 8 8 16 17 18 20 18 26 12 18 28 27 20 23 18 24 19 22 22
28 25 24 24 23 22 20 18 18 18 18 17 17 16 15 15 15 17 19 15 15 4 5 31 20 19 13 6 7 13 17 17 21 21 19 17 19 27 28 22 27 23 22 23 13 14 11
29 25 25 23 24 23 21 20 17 17 17 17 16 14 14 13 15 18 24 26 24 20 6 8 36 28 26 11 13 16 21 25 20 21 21 23 20 27 27 22 26 26 20 19 14 13 11
30 25 26 25 25 24 23 23 18 15 17 16 14 12 13 13 13 16 22 16 21 20 4 6 9 12 20 13 10 26 25 22 15 21 22 17 21 23 29 28 22 27 19 17 13 12 9
25 27 29 26 27 26 24 24 19 17 17 16 14 12 13 15 5 7 9 7 6 9 6 11 9 8 13 15 5 21 28 25 20 16 5 13 13 24 29 25 21 16 25 16 14 11 2
38 13 27 27 27 27 26 23 21 17 17 16 17 12 14 15 18 14 13 10 17 2 7 8 7 11 10 20 15 3 32 23 19 18 17 21 21 25 23 20 22 9 17 10 12 5 7
36 25 28 27 25 27 25 23 20 17 16 16 16 20 18 14 10 18 12 18 2 6 3 5 4 8 15 13 19 12 19 20 10 7 10 11 17 3 10 14 21 15 16 6 5 5 7
29 36 32 14 23 25 27 24 21 19 17 18 16 15 19 15 13 12 27 2 8 3 6 3 4 6 8 10 18 18 13 16 22 10 6 7 7 9 9 11 9 18 16 7 7 9 13
29 33 38 22 23 24 27 24 21 18 17 17 14 16 21 19 18 18 13 5 5 4 6 6 8 4 4 10 11 18 18 18 20 17 4 6 6 2 16 13 16 9 19 2 4 5 10
32 23 37 24 14 23 24 22 18 16 17 18 14 18 22 19 21 28 5 10 5 5 6 8 11 12 12 18 12 16 10 13 18 18 16 5 4 1 5 13 3 6 11 6 3 7 6
26 23 31 29 21 22 22 21 16 16 17 17 16 4 7 17 27 14 6 7 6 9 13 14 15 13 14 17 15 16 7 8 22 17 17 9 1 3 11 5 11 3 7 5 3 3 4
28 23 24 31 22 20 22 21 15 16 15 17 9 3 13 27 5 5 8 5 5 6 22 16 9 13 13 18 17 15 15 10 20 11 8 9 5 2 8 4 14 12 9 12 6 5 4
33 31 20 32 31 12 22 20 13 18 22 18 6 5 18 37 5 7 9 6 8 7 11 13 11 14 14 16 11 11 8 16 16 20 8 13 3 3 5 8 3 2 11 17 11 3 11
33 32 22 26 28 8 23 19 13 19 20 21 5 4 7 18 15 5 11 7 7 16 14 13 9 14 12 14 15 15 8 10 14 21 23 5 8 6 4 7 12 11 15 17 15 9 10
32 32 28 23 24 9 16 18 14 18 21 23 9 5 8 6 9 16 6 3 8 5 15 24 8 18 17 14 18 7 17 10 13 19 13 4 6 6 2 4 14 14 19 18 18 17 11
34 30 28 21 27 15 15 19 15 19 22 26 6 5 5 3 16 15 14 9 15 12 9 10 13 19 18 12 14 12 15 12 9 13 16 13 4 4 4 2 6 13 16 20 22 22 21
34 31 29 21 17 25 12 24 17 18 26 19 18 6 3 5 8 10 9 12 11 16 7 10 13 8 17 14 13 6 18 15 5 14 16 9 6 3 2 6 5 9 18 19 20 21 20
33 32 30 29 21 20 8 22 18 18 26 25 14 9 6 9 10 10 3 8 12 12 9 8 7 2 8 7 5 2 10 15 4 11 17 13 9 3 2 5 6 2 3 17 21 19 20
34 32 29 29 29 21 9 23 20 16 21 28 24 8 5 8 10 8 8 5 1 3 14 1 7 13 12 13 8 6 2 4 4 8 15 9 7 2 3 4 9 8 3 6 16 17 19
33 32 29 29 29 21 14 22 20 16 20 26 29 24 6 4 1 2 7 4 3 2 3 2 6 11 8 2 3 5 4 4 5 2 8 6 8 4 1 3 4 4 2 1 6 10 4
33 31 30 30 30 23 12 17 18 17 20 26 20 23 8 7 10 3 4 4 5 2 4 5 7 4 6 1 6 6 3 9 7 9 5 3 2 4 3 4 7 5 6 6 6 2 3
32 30 31 30 28 23 13 21 17 15 22 24 24 19 15 9 10 5 4 3 4 4 5 7 6 2 2 3 3 2 3 5 6 14 9 8 7 4 4 5 8 10 6 4 3 6 8
30 29 30 29 26 22 14 18 17 14 23 23 21 18 20 8 5 7 8 9 12 6 6 11 1 6 5 2 2 2 2 3 5 7 5 8 8 7 9 5 4 8 3 2 6 12 13

GFSGBSN_850_spd_012.txt.gz
Wind_Speed
22 21 21 22 21 19 19 20 20 19 18 14 14 14 13 11 9 8 7 7 7 7 9 11 11 9 10 11 19 4 3 5 4 7 19 17 18 16 13 10 19 21 17 27 26 26 26
25 22 21 24 24 22 21 20 19 18 16 17 16 15 15 13 10 8 8 7 7 9 8 11 12 10 12 16 12 17 12 9 1 2 13 17 16 18 20 19 17 12 25 24 27 25 22
28 26 23 24 24 23 22 20 20 18 16 17 19 16 16 15 12 9 8 8 9 9 9 10 13 13 13 19 4 11 18 17 14 11 7 13 21 18 10 15 18 21 16 15 26 25 16
30 28 26 24 22 23 23 22 21 19 18 16 17 17 15 16 13 11 9 10 10 9 11 12 9 8 11 13 18 12 9 15 21 17 15 15 8 18 22 12 13 8 11 12 19 13 24
33 32 28 24 22 23 24 24 22 20 19 17 17 16 16 14 14 13 12 11 11 12 12 11 7 8 10 9 21 21 21 14 10 9 10 15 12 11 14 7 6 10 12 22 15 19 15
30 33 30 26 23 24 24 24 23 22 20 17 16 15 17 15 15 14 13 13 12 12 14 8 10 5 16 13 11 15 20 23 16 11 10 12 10 7 7 11 16 12 16 14 18 17 18
32 29 31 28 26 26 26 25 24 23 21 18 15 15 17 15 14 14 15 13 9 3 18 12 9 12 2 8 8 11 16 17 18 18 12 15 9 17 22 22 18 15 17 16 17 17 21
29 30 33 29 26 28 26 25 22 20 19 18 14 14 15 14 13 14 13 10 9 4 8 31 31 24 23 5 9 14 16 18 19 16 15 10 21 25 14 17 18 21 18 17 15 20 20
31 28 27 30 28 27 26 25 22 20 17 16 15 12 14 12 13 16 19 20 18 15 7 9 34 31 20 18 18 16 23 26 15 17 17 19 20 16 18 18 20 22 23 16 15 15 9
31 31 22 19 26 27 27 26 25 22 19 16 14 12 12 12 11 14 14 11 15 16 5 5 7 9 26 8 7 24 22 25 12 18 17 15 19 20 19 23 19 22 23 22 19 17 11
32 32 34 28 12 27 28 28 26 23 21 18 15 14 14 14 5 10 6 3 3 5 5 7 6 5 6 15 2 13 29 24 18 15 9 10 11 18 22 21 20 19 17 22 27 11 4
34 31 34 30 20 18 28 27 27 24 22 19 17 16 16 16 17 11 9 4 6 2 7 5 5 7 7 11 7 7 26 26 20 16 14 13 14 12 16 21 20 22 15 20 18 11 8
34 35 32 29 32 26 19 25 26 24 21 19 18 14 22 20 16 20 12 14 2 5 2 4 4 6 13 9 10 6 16 20 11 6 13 7 19 8 5 12 20 22 14 8 7 6 4
33 34 32 28 26 23 16 27 25 24 20 19 16 15 24 22 13 16 20 3 7 7 6 3 3 8 8 7 7 12 7 17 18 10 2 9 8 14 14 11 15 24 22 3 5 5 6
36 34 32 26 25 19 24 25 24 23 21 18 16 18 22 26 21 19 14 4 5 3 4 6 5 6 6 7 7 13 13 12 14 19 7 3 9 5 10 15 16 10 9 17 6 10 6
35 35 32 23 27 33 28 19 23 23 21 18 19 20 25 27 24 24 4 8 6 4 5 5 9 13 9 10 8 11 13 10 18 18 15 3 6 6 12 8 9 7 8 10 4 7 7
35 38 36 34 21 24 28 16 22 22 19 19 17 8 10 27 27 16 5 7 7 13 10 7 9 10 12 10 13 12 9 11 13 12 13 5 3 1 1 8 13 8 6 9 4 5 5
34 39 35 35 23 28 27 11 22 21 20 20 17 3 20 29 5 3 4 5 4 6 21 12 10 15 11 11 13 10 12 5 19 13 10 9 4 4 6 4 12 10 8 11 3 2 1
34 39 35 32 20 20 19 20 21 25 25 25 15 6 29 35 6 6 6 6 9 3 6 9 9 13 7 6 8 13 12 8 26 13 11 12 5 2 5 8 1 4 7 5 5 3 3
34 37 40 32 23 20 20 21 19 27 26 24 10 4 7 15 8 6 9 7 6 17 17 15 13 16 9 10 10 6 9 6 20 16 17 9 6 6 5 6 11 6 7 6 5 1 2
33 33 39 35 32 21 25 17 16 26 26 31 10 4 9 5 7 11 5 5 7 6 13 19 7 17 10 8 9 7 11 6 9 13 11 4 4 13 10 18 17 14 9 8 9 7 1
34 31 38 35 34 23 24 19 5 27 27 27 10 4 9 4 12 15 15 9 13 6 4 9 14 9 15 9 8 11 12 10 8 8 15 12 6 12 10 6 12 13 13 12 10 7 7
34 31 35 35 30 29 21 22 12 26 30 10 13 8 1 5 8 8 6 10 11 11 13 21 13 15 12 12 10 19 17 17 8 10 11 6 4 5 4 4 5 4 8 14 9 8 8
31 29 33 34 30 30 22 17 4 23 27 25 15 8 5 4 6 7 11 8 15 13 11 10 18 16 4 2 3 14 14 13 8 2 7 7 3 3 2 2 1 2 1 5 11 8 10
29 27 31 31 30 34 23 21 16 25 25 24 19 14 5 2 6 12 13 4 3 3 6 8 4 9 10 9 3 3 2 4 5 4 6 9 2 1 1 3 6 1 1 1 6 9 8
28 27 30 31 30 32 24 22 5 21 20 22 26 20 4 2 2 8 8 4 2 2 0 4 5 8 10 2 2 3 4 3 3 3 5 6 6 3 4 1 3 2 2 7 3 2 6
27 26 30 29 28 29 26 21 12 25 20 22 22 26 15 3 12 8 4 3 5 2 1 3 5 2 13 3 6 4 3 7 6 6 4 4 3 5 4 2 6 2 3 4 4 3 7
26 27 28 28 29 27 23 17 12 21 18 20 24 21 21 6 10 8 5 3 2 4 3 7 5 4 3 3 1 3 3 6 5 7 6 6 5 3 3 2 6 8 4 2 2 3 5
24 25 27 27 28 27 22 18 9 19 18 19 21 20 17 9 5 8 12 13 13 11 3 15 3 6 5 3 2 2 1 3 5 4 6 7 6 5 7 5 1 5 4 5 5 8 14

GFSGBSN_850_spd_015.txt.gz
Wind_Speed
25 25 22 21 19 23 21 19 19 17 17 17 14 12 11 11 9 7 5 4 4 5 5 6 5 5 5 11 18 5 4 7 7 5 18 16 11 10 5 5 9 13 15 22 28 31 31
28 28 26 23 21 22 25 23 20 18 17 17 15 13 13 12 11 8 6 6 5 5 5 6 6 7 9 13 11 20 17 9 6 3 2 19 10 12 14 10 12 13 14 23 29 23 23
25 25 29 26 24 23 24 24 21 19 19 17 15 14 14 13 12 10 7 6 6 5 6 6 5 9 14 24 6 8 13 14 14 7 3 9 14 16 2 4 13 11 12 15 20 23 15
25 27 28 31 26 24 23 24 23 21 20 18 17 14 13 12 12 11 8 8 7 7 7 7 6 7 11 14 18 13 11 18 17 17 15 10 10 12 14 10 9 5 6 14 6 9 13
27 27 27 24 27 26 25 24 23 23 21 19 17 15 13 12 11 11 9 11 9 8 10 7 6 7 10 9 16 23 15 17 12 10 11 13 12 11 5 4 3 4 9 8 6 8 6
29 30 27 26 29 29 25 25 24 23 23 20 18 16 12 12 10 13 11 12 11 10 9 8 10 4 12 9 10 15 21 18 13 9 10 10 10 5 1 5 13 9 9 10 8 5 11
31 29 29 28 30 30 27 27 26 26 24 22 19 16 13 14 12 14 14 10 8 4 14 12 11 7 3 2 5 11 12 20 19 14 6 12 7 12 13 14 6 8 10 12 8 10 11
32 32 31 31 24 21 28 27 28 27 25 21 20 17 14 15 13 14 14 9 8 3 6 18 27 19 17 7 4 14 12 16 19 15 7 7 17 14 9 11 10 12 13 20 14 15 11
35 32 31 31 31 27 21 28 28 27 24 21 21 18 14 15 14 17 19 15 14 10 4 8 27 21 30 22 17 14 21 23 12 11 12 17 4 17 14 13 13 16 16 16 16 16 17
34 33 33 33 30 32 26 20 27 26 26 22 20 19 16 16 15 18 18 12 11 6 3 3 4 5 9 7 6 27 25 23 8 17 13 14 21 12 14 17 13 16 16 16 16 11 11
37 35 34 32 34 31 29 28 24 28 26 24 22 20 18 18 8 21 9 13 8 5 4 6 5 4 2 10 7 10 27 27 17 13 11 8 9 16 19 21 14 15 10 12 12 16 14
37 37 34 32 34 30 30 30 20 30 25 26 24 22 20 22 17 15 14 15 12 3 8 6 5 4 3 10 5 0 4 19 7 10 14 17 2 4 11 15 14 2 4 9 9 11 12
36 38 35 34 34 31 28 22 14 29 26 26 27 25 26 28 27 21 17 16 4 4 1 4 4 6 9 7 6 7 4 12 7 5 7 4 11 3 2 3 4 6 5 5 5 8 13
37 38 36 36 37 24 28 22 13 16 29 27 29 25 28 28 23 25 19 3 5 5 4 4 3 7 6 6 7 9 4 6 13 5 3 5 5 12 9 15 7 11 13 6 8 7 8
36 36 37 39 38 31 30 24 21 8 26 27 27 26 34 31 23 25 20 3 6 5 4 4 2 4 4 7 7 9 10 4 7 16 7 6 6 3 5 8 17 7 10 21 6 4 2
36 37 38 38 40 44 23 22 18 7 24 25 30 28 34 32 29 32 4 4 4 2 6 4 7 9 6 8 8 8 9 8 8 16 11 2 5 3 12 13 13 11 10 9 4 5 7
35 36 38 39 45 38 17 20 21 10 24 28 31 14 19 36 34 17 3 6 4 8 9 5 5 4 7 5 7 5 7 6 12 13 17 7 5 3 2 8 17 9 10 8 5 7 2
35 36 37 39 46 31 16 18 24 7 19 31 22 4 26 40 5 3 3 6 4 5 11 11 6 9 6 9 9 5 10 5 8 7 17 10 4 5 14 11 10 15 11 9 5 6 10
35 35 35 37 42 32 17 18 20 11 24 38 20 7 35 44 5 4 3 6 8 8 9 7 8 13 11 8 3 12 6 10 23 10 13 8 4 4 4 6 5 16 15 14 15 11 8
34 35 35 35 41 35 25 22 25 14 31 29 10 4 9 15 3 6 6 8 6 9 14 10 4 10 9 7 10 5 10 4 23 16 16 15 6 7 3 2 5 8 19 12 10 5 3
32 35 35 34 38 37 32 25 31 10 37 24 6 3 8 5 7 5 10 4 8 5 11 10 6 15 6 5 6 5 4 4 13 21 14 4 5 5 13 17 12 11 13 17 22 12 4
30 32 33 32 36 37 36 28 25 13 33 14 9 5 8 8 15 12 9 7 8 6 5 4 8 8 12 10 6 6 7 4 6 11 10 9 4 8 7 8 14 11 13 17 10 5 3
29 30 31 31 34 36 36 31 22 13 34 7 8 12 10 9 9 7 6 12 15 12 13 17 14 8 9 10 13 5 12 10 6 10 8 6 3 5 3 11 7 1 18 9 5 1 4
29 29 30 31 32 32 32 29 16 13 7 11 17 15 5 3 3 7 5 12 17 15 12 8 22 11 6 10 8 5 9 6 6 1 2 6 1 3 4 4 1 4 2 6 8 4 6
27 28 28 30 32 32 32 28 13 10 5 19 17 12 6 2 7 9 11 5 3 7 4 9 9 10 17 7 2 3 0 3 3 5 4 5 3 2 1 2 5 3 2 4 7 7 6
25 27 26 28 30 29 30 26 16 8 16 27 17 17 7 3 4 4 2 1 3 1 2 3 11 5 6 1 3 4 4 3 3 2 5 6 4 3 3 1 3 3 3 2 1 3 3
26 25 25 27 29 28 29 25 15 3 17 23 19 18 7 5 6 7 3 1 2 2 2 1 3 2 9 2 1 3 3 7 5 6 4 4 2 4 1 2 7 5 3 4 3 4 5
27 24 26 26 27 29 28 24 13 12 17 21 20 18 16 6 8 6 3 3 2 4 2 3 3 1 3 4 3 2 3 5 4 5 5 4 5 3 3 2 6 4 2 3 3 3 7
25 24 24 24 24 27 27 25 14 15 9 20 18 16 14 8 5 9 12 11 12 12 7 14 2 6 6 3 3 2 2 3 6 5 3 4 6 5 7 5 2 2 3 6 5 12 13

GFSGBSN_850_spd_018.txt.gz
Wind_Speed
19 18 19 25 24 21 19 21 21 20 19 18 19 16 13 12 11 8 7 5 4 3 4 4 5 5 8 10 14 6 8 5 7 14 20 17 12 7 5 5 8 6 5 17 20 23 27
22 21 23 23 21 24 21 21 23 23 20 18 19 17 15 13 12 11 8 7 5 4 3 4 5 8 10 7 8 19 10 7 5 7 15 19 11 12 7 7 7 9 12 12 19 22 20
24 25 24 28 25 24 24 22 22 22 22 20 20 17 15 14 13 13 10 8 6 5 4 4 5 8 13 22 7 13 18 15 12 6 5 10 23 8 4 4 9 8 8 9 9 8 6
25 25 25 25 24 22 21 22 22 23 23 23 21 18 16 15 14 13 12 9 7 7 5 4 5 7 9 7 11 17 14 15 16 15 14 9 6 13 9 9 7 3 3 4 4 8 6
28 28 28 28 25 25 24 23 26 24 26 23 22 19 18 16 14 12 12 11 10 8 6 5 6 7 10 5 10 18 19 12 12 18 20 14 10 7 2 3 4 4 5 6 4 7 5
32 31 30 30 30 28 26 22 24 27 26 25 23 22 19 17 13 12 14 13 11 9 7 7 7 3 12 8 5 7 22 16 8 8 8 8 5 2 2 5 14 10 6 6 5 4 7
28 31 31 31 30 31 25 28 23 27 27 26 25 23 21 19 15 14 19 13 5 6 16 11 10 6 3 1 5 5 21 18 12 10 5 3 3 10 13 13 7 5 6 7 4 4 7
32 30 30 31 30 30 29 30 24 21 29 27 26 24 21 19 18 17 19 17 10 4 4 18 23 19 14 1 2 8 12 14 12 11 5 4 12 12 8 10 9 11 12 15 8 9 10
33 33 31 32 31 30 29 30 29 21 23 29 26 24 22 19 18 19 24 25 13 6 2 6 19 13 19 16 9 10 20 15 6 12 14 17 6 12 13 12 10 15 17 11 9 10 18
35 33 33 34 32 31 29 29 29 29 18 28 26 26 25 22 20 22 25 21 13 4 2 4 4 2 7 10 5 24 20 15 6 15 12 13 17 8 12 15 11 16 10 13 11 7 7
35 33 32 35 34 31 31 28 29 26 27 25 28 26 29 25 15 25 20 17 11 4 3 5 4 5 3 8 4 2 23 24 13 9 7 8 8 19 20 17 14 9 8 9 8 8 8
36 36 33 34 32 29 32 27 22 25 27 18 33 29 30 29 20 15 16 21 15 3 7 6 4 4 3 5 4 2 6 16 3 15 16 8 1 8 9 14 14 3 7 5 3 4 9
36 37 34 35 37 37 31 29 29 23 27 25 32 32 33 28 28 23 25 25 3 4 2 6 5 5 7 7 7 8 8 7 5 7 8 5 16 5 3 5 11 11 4 3 3 6 10
36 37 35 36 37 39 37 36 32 24 23 29 21 36 33 31 27 31 34 3 3 4 5 3 4 8 7 7 6 8 5 8 14 7 2 8 4 16 9 11 5 15 14 4 6 3 5
36 36 36 35 37 42 35 55 18 16 24 17 25 42 37 41 32 37 23 3 6 5 6 9 5 6 6 6 4 8 8 9 9 15 8 5 4 4 7 9 12 4 9 20 6 5 5
36 36 35 35 36 43 47 37 14 13 21 20 15 34 36 40 37 35 6 4 4 4 6 5 7 9 7 6 9 7 7 5 9 16 9 6 3 5 5 8 8 8 5 5 4 6 5
35 35 35 35 38 40 47 30 11 10 21 14 23 20 32 39 38 23 4 5 4 8 9 6 6 5 7 5 8 5 6 5 11 14 19 6 5 2 4 9 12 6 11 7 7 7 3
34 34 34 35 37 39 43 31 15 11 7 24 11 4 42 45 5 5 3 5 5 5 5 3 4 7 8 9 7 7 9 8 16 7 12 11 4 8 18 4 10 19 20 19 6 7 9
31 33 34 34 37 39 41 30 23 18 25 12 21 9 44 45 5 6 4 4 4 6 8 7 9 10 11 6 5 10 7 9 14 12 9 10 5 4 4 8 12 11 19 20 15 5 6
30 31 33 32 34 39 42 38 33 22 16 11 9 5 10 16 10 6 10 6 6 9 9 9 5 13 7 7 10 3 7 4 18 9 15 14 3 6 9 3 9 8 23 22 21 10 8
29 29 31 30 31 35 39 38 32 26 9 8 7 3 10 8 7 10 11 6 10 7 8 12 4 11 7 6 7 10 8 2 7 13 11 8 6 9 15 18 12 17 24 22 22 6 8
29 28 30 30 29 32 35 36 33 26 9 9 4 6 8 11 15 7 12 10 11 8 7 6 9 9 16 11 6 1 5 5 6 12 9 4 5 4 6 10 16 16 20 17 14 5 5
29 27 28 28 28 30 33 33 30 20 14 10 7 15 15 13 10 8 5 7 10 6 11 15 14 11 8 16 20 15 17 14 10 11 9 4 3 4 6 5 8 6 18 20 14 12 15
29 26 27 28 29 30 34 34 28 14 16 16 17 16 5 5 8 9 9 14 14 16 14 7 20 12 4 5 8 9 7 4 10 10 13 6 6 4 1 1 3 3 19 24 22 21 25
28 25 26 27 27 29 30 29 24 16 11 3 20 11 4 2 4 7 8 3 9 8 15 14 8 16 14 10 3 3 3 4 2 5 9 8 3 3 2 2 5 2 5 8 15 10 7
28 26 26 26 24 28 28 29 26 16 19 5 16 13 6 3 5 7 5 7 3 2 1 3 10 8 11 3 3 5 4 4 2 3 1 2 3 2 3 2 2 3 1 1 3 3 3
26 27 26 25 24 26 27 28 27 16 17 4 15 13 8 5 6 6 3 2 3 2 1 2 3 5 9 4 3 3 4 2 5 5 4 3 2 4 2 3 7 5 3 1 3 4 2
26 25 24 23 22 23 24 26 25 16 14 5 14 13 9 2 4 6 12 7 3 3 2 3 3 3 3 4 3 3 3 5 2 2 4 5 5 3 2 1 6 4 4 2 3 1 2
25 24 23 23 22 23 21 25 26 17 13 6 9 12 9 7 3 9 18 20 16 9 5 7 3 3 5 3 3 2 2 2 3 3 2 3 5 5 7 5 2 3 2 2 0 4 3

GFSGBSN_850_spd_021.txt.gz
Wind_Speed
19 24 26 22 21 19 19 22 20 21 22 21 20 20 19 16 14 13 10 9 7 6 5 4 5 8 10 10 16 2 4 4 7 22 21 14 9 4 3 4 6 5 2 9 14 21 22
23 23 22 25 23 22 20 20 21 21 22 24 20 21 18 17 16 14 13 10 8 7 6 4 5 8 9 5 10 14 11 8 6 13 15 15 6 10 5 4 3 4 10 10 10 14 17
26 26 26 26 26 27 21 21 22 21 22 22 22 22 21 19 15 15 14 12 9 7 6 4 5 7 11 18 7 14 17 12 8 7 7 10 17 8 2 3 6 5 6 7 7 8 7
26 27 28 27 27 27 27 22 23 19 21 22 24 22 21 18 16 16 14 13 9 8 6 5 5 7 8 4 12 14 17 16 17 12 7 5 3 13 13 8 5 2 2 2 3 11 8
28 28 30 29 27 26 27 28 21 26 18 22 25 25 23 23 18 14 14 12 12 10 6 6 6 7 10 6 10 16 18 11 13 17 13 9 5 6 3 3 5 5 7 4 5 7 5
29 31 32 32 30 28 27 27 26 26 26 17 24 27 25 23 20 14 13 13 13 11 8 6 6 5 11 5 4 7 23 15 6 9 9 9 7 3 3 6 10 4 3 4 5 1 3
29 31 31 31 31 31 30 29 27 25 25 23 25 28 26 23 22 16 18 15 6 6 16 11 9 8 1 1 5 3 15 17 9 4 5 3 5 9 13 8 5 5 6 7 4 7 5
30 31 31 30 30 34 32 31 29 27 26 22 19 29 25 26 24 22 22 19 9 2 5 24 19 18 7 2 2 6 14 13 8 6 4 2 12 8 6 7 9 12 16 16 7 8 8
29 30 32 31 33 33 32 31 30 27 26 25 23 30 28 27 26 27 26 26 10 6 3 6 21 19 19 15 8 7 16 12 4 7 7 12 3 10 8 9 10 11 14 14 13 7 11
30 31 33 35 32 32 32 31 30 25 26 22 26 21 30 27 28 29 25 22 22 5 2 5 5 5 9 9 6 24 20 10 6 12 9 11 15 13 11 12 10 18 9 13 11 5 6
33 33 32 34 33 32 33 34 29 26 22 24 21 19 29 37 24 32 25 19 15 5 2 4 5 6 8 9 2 5 19 19 12 9 6 7 5 12 18 13 10 9 6 8 8 7 7
34 35 34 34 35 32 34 35 36 27 28 27 18 27 16 41 30 26 23 22 17 4 7 6 4 6 5 7 2 2 7 16 1 10 13 8 6 6 8 15 13 2 7 6 4 5 12
34 34 35 35 34 33 33 37 33 26 38 32 22 29 12 39 35 28 31 32 4 4 1 6 5 5 6 5 5 6 4 7 7 5 10 3 13 3 4 6 9 13 6 3 5 7 8
33 32 34 34 34 34 36 40 26 50 24 24 25 28 17 45 36 37 45 4 4 5 5 3 5 6 6 7 4 9 5 9 12 6 2 6 6 14 10 9 6 18 14 4 6 5 4
34 32 32 35 34 34 36 38 48 29 12 9 17 26 20 44 32 44 35 3 8 7 7 10 6 4 6 7 4 8 8 10 7 15 8 2 5 5 10 6 11 5 12 17 5 3 4
35 32 31 34 33 33 34 38 38 20 6 8 15 8 21 42 41 45 9 6 3 5 7 5 7 9 6 7 9 8 7 4 5 11 13 5 5 4 5 7 10 8 5 5 6 4 6
34 32 29 32 34 32 34 39 36 21 11 4 11 6 25 41 48 28 5 4 4 7 9 6 6 6 7 6 9 6 4 4 8 8 19 6 4 2 4 11 13 11 10 4 2 4 4
33 32 29 30 34 32 34 38 39 21 14 6 6 3 45 47 9 5 5 6 6 5 2 3 2 6 8 10 8 6 8 8 16 10 10 9 3 7 15 4 12 16 15 16 5 6 6
32 32 28 29 31 32 34 36 36 26 13 11 4 5 46 45 5 5 6 4 3 5 5 6 6 9 10 7 5 8 6 8 17 12 12 10 5 4 3 7 14 8 13 15 16 4 12
31 30 27 27 28 28 31 35 37 30 19 17 8 3 10 24 9 13 8 8 7 9 4 7 4 11 8 6 8 4 5 4 19 15 11 14 4 8 9 3 4 10 16 20 17 11 13
31 30 26 25 26 27 30 33 35 27 21 7 5 5 7 7 6 11 9 9 10 7 9 11 5 12 7 6 9 9 8 10 2 9 8 8 6 10 17 20 13 7 19 20 23 27 17
30 30 25 25 25 26 27 30 33 22 20 4 7 5 5 8 22 11 12 8 12 9 7 5 8 8 14 9 7 4 5 4 5 7 8 5 4 3 17 21 20 12 17 20 23 21 22
29 29 25 25 25 24 26 29 30 20 24 6 5 12 10 12 11 9 8 7 14 6 11 12 14 11 10 14 22 29 13 14 11 9 10 4 3 3 5 4 8 7 18 23 21 20 18
28 27 27 25 24 23 25 27 28 20 23 16 5 6 5 4 9 10 9 9 7 7 5 4 15 10 3 7 10 14 16 15 7 8 12 6 4 2 4 3 2 4 5 14 18 12 8
28 27 27 25 25 22 25 25 29 21 25 10 5 6 3 4 8 9 9 8 10 11 11 15 14 13 16 9 2 4 2 2 8 8 13 7 2 3 3 3 2 4 6 9 11 13 12
27 26 26 24 25 22 25 24 27 21 25 5 4 7 2 5 7 10 11 6 3 4 2 2 4 8 11 4 3 5 4 0 3 3 5 4 6 2 3 4 3 2 5 13 8 6 18
27 26 25 24 25 21 22 22 26 23 21 4 1 6 2 3 4 12 4 6 5 3 2 1 2 4 15 5 4 3 4 2 3 3 3 3 2 3 2 3 7 3 2 17 6 5 2
27 25 24 23 23 22 22 19 22 23 16 12 12 8 4 2 2 5 6 6 5 4 3 4 2 4 3 5 4 4 3 4 2 3 3 5 4 3 3 1 5 4 1 3 2 1 3
25 24 22 22 22 23 22 19 21 22 14 10 1 14 7 3 2 7 8 10 11 9 7 9 2 3 4 2 2 3 1 2 4 3 2 3 5 3 6 5 3 4 2 2 3 1 1

GFSGBSN_850_spd_024.txt.gz
Wind_Speed
25 26 27 25 25 26 29 29 22 20 19 22 20 24 21 18 17 15 13 10 8 6 5 5 6 6 8 11 15 2 3 5 9 21 22 14 8 5 4 3 1 4 3 7 7 12 14
25 26 26 27 27 27 27 26 26 24 21 19 22 22 24 21 15 16 13 12 10 7 6 6 6 6 8 4 11 17 7 4 5 15 18 16 6 8 3 3 3 1 5 8 8 11 12
26 28 27 28 30 28 28 27 27 22 22 19 19 22 25 21 18 17 13 13 11 8 6 6 6 7 11 18 8 7 14 9 10 11 10 14 13 6 3 2 3 3 4 6 7 9 7
27 28 29 29 30 31 29 28 28 27 24 22 17 23 24 23 22 18 14 14 11 8 6 6 6 7 8 7 9 12 19 14 11 10 8 3 3 9 8 5 4 3 2 3 5 4 8
27 29 30 31 31 31 31 29 29 28 26 25 24 21 24 24 22 18 13 11 12 9 8 6 7 7 9 7 9 12 13 16 18 12 9 3 3 4 4 3 3 5 5 5 6 4 5
28 29 30 32 32 31 30 32 30 29 28 25 27 24 24 25 23 20 14 12 13 12 9 7 9 6 9 2 2 5 15 12 6 11 9 7 6 3 3 4 5 4 4 3 8 3 5
26 28 28 30 33 33 32 33 30 29 27 26 23 23 18 27 25 23 20 19 9 6 15 11 7 6 1 1 3 2 8 16 8 8 5 3 5 7 10 7 3 1 5 11 6 8 8
27 29 30 30 31 32 34 32 31 31 27 26 23 25 18 28 27 30 27 23 19 5 4 23 20 15 6 3 1 4 10 11 6 5 4 1 10 7 5 5 7 8 10 13 13 13 11
31 33 35 34 33 32 35 31 32 30 28 22 23 22 21 27 25 36 32 29 21 14 1 5 20 24 13 12 5 7 14 9 3 5 6 7 3 7 10 5 7 9 10 8 12 8 13
33 33 33 34 34 34 33 32 32 31 30 28 23 21 21 15 24 40 36 28 19 11 4 4 4 5 12 10 5 20 18 9 3 9 5 9 12 7 5 6 8 14 8 13 13 6 7
32 33 35 33 34 35 33 33 30 30 32 28 23 24 24 21 17 41 34 32 22 10 2 3 6 7 11 15 2 4 17 12 7 8 6 6 5 7 15 16 7 5 6 9 10 8 8
34 34 34 34 32 34 34 33 33 35 35 28 26 29 21 28 19 41 33 29 21 6 6 6 5 6 6 6 3 4 9 10 0 10 12 11 5 4 6 8 11 3 5 4 3 7 10
34 35 35 34 33 33 34 34 34 37 32 38 37 30 22 28 10 39 39 34 5 4 0 6 5 6 6 6 5 5 6 8 6 4 8 4 15 4 4 4 7 10 2 2 5 6 8
33 35 35 34 30 34 34 32 36 38 38 23 16 19 21 38 16 43 49 6 4 6 5 5 5 8 6 6 4 7 4 7 11 5 1 4 5 12 11 14 7 15 11 5 4 4 4
35 36 34 33 30 32 34 30 37 42 22 11 2 11 18 38 23 50 34 3 8 7 7 9 11 4 5 6 3 6 8 6 7 15 6 3 4 2 7 8 8 5 10 13 6 4 4
35 35 33 32 29 31 31 32 37 40 26 5 5 5 13 15 50 38 11 7 4 4 6 5 5 5 6 7 8 7 6 4 6 12 7 2 6 6 4 9 10 7 1 3 5 4 4
34 35 33 31 28 31 28 32 36 39 31 4 2 5 9 23 44 24 7 3 3 6 7 4 4 5 4 6 8 5 5 4 7 5 13 5 4 1 5 10 12 8 5 6 2 4 4
35 34 32 30 27 28 27 32 33 35 25 1 5 2 24 51 8 4 5 6 5 5 3 3 3 4 5 7 7 6 7 5 7 9 10 9 3 6 14 5 14 14 10 15 6 5 4
34 34 31 29 27 27 27 30 31 32 20 20 2 3 31 48 4 6 5 4 3 4 3 3 3 2 4 6 4 8 4 6 15 10 11 10 5 4 4 1 6 10 16 18 15 1 10
34 33 30 29 28 27 28 29 31 33 26 15 2 3 12 19 4 9 9 5 4 6 5 3 2 5 4 5 8 3 3 5 20 13 10 15 4 9 12 13 4 7 16 17 16 9 19
33 32 29 27 28 28 25 29 32 34 24 8 4 3 4 5 4 8 4 9 6 5 3 9 5 9 6 5 5 6 6 8 6 13 8 8 8 13 22 22 13 11 13 15 19 22 11
31 30 28 29 26 27 25 27 30 33 23 1 5 4 5 8 16 6 5 6 11 6 8 5 7 7 9 5 7 6 6 6 6 3 8 4 6 7 19 18 18 16 15 17 24 21 21
31 29 27 28 26 27 24 27 27 29 24 8 4 7 9 10 9 7 6 6 9 6 9 7 12 9 8 13 22 22 13 12 5 3 8 4 3 3 8 6 5 3 16 19 16 21 19
31 28 27 26 24 27 23 26 25 26 21 20 11 2 6 5 8 9 9 7 9 11 3 2 13 7 5 5 10 10 18 16 12 13 14 5 3 3 5 7 3 5 5 15 19 13 18
29 28 26 26 25 26 21 25 24 28 23 21 2 3 4 3 7 11 9 7 6 2 3 7 15 13 9 5 2 3 2 3 7 9 12 13 4 4 3 5 5 6 1 4 8 10 17
29 27 26 25 25 27 26 24 23 27 24 11 10 7 1 4 7 8 5 5 3 4 4 6 4 12 10 2 2 4 4 4 3 3 1 3 2 3 3 4 4 3 5 7 5 4 13
26 24 24 23 23 22 23 23 20 23 21 11 6 3 2 4 4 9 4 7 7 3 2 2 3 2 12 4 4 4 2 2 2 2 3 3 3 7 4 3 7 4 3 10 2 3 6
27 23 23 21 23 23 24 23 21 22 21 10 3 5 5 3 7 7 7 8 7 5 3 5 1 3 2 4 4 3 4 4 0 3 4 6 4 3 2 2 4 3 2 1 3 4 5
26 22 21 21 21 21 23 21 19 18 20 12 1 6 4 3 2 7 8 10 10 8 7 8 4 4 4 3 2 2 3 2 4 3 0 3 5 3 6 5 4 3 5 10 10 9 5

GFSGBSN_850_spd_027.txt.gz
Wind_Speed
25 25 27 27 26 28 27 26 25 25 24 19 21 19 20 20 21 15 14 15 11 8 6 5 5 5 6 7 11 4 2 4 7 23 20 11 6 5 3 2 2 3 3 5 7 9 10
25 26 26 27 27 26 28 28 27 26 25 19 21 17 24 20 20 20 13 15 12 10 7 6 5 6 7 3 9 14 7 3 6 15 18 16 5 8 3 3 3 2 4 8 10 13 12
26 26 27 27 27 28 28 27 27 27 27 25 21 21 16 23 22 21 15 12 13 10 8 6 6 6 8 12 6 5 14 7 7 13 15 16 9 7 6 1 3 4 5 7 9 11 8
25 27 28 28 29 27 30 30 30 29 28 26 24 23 20 18 23 21 19 14 12 9 8 6 6 7 7 5 7 12 15 11 9 12 9 7 11 7 4 1 2 3 3 3 3 1 7
25 27 27 28 29 29 29 29 30 33 27 26 25 22 25 20 24 21 22 18 11 10 9 7 7 6 7 4 6 8 14 15 11 11 10 8 7 4 3 2 4 4 3 5 5 6 2
25 26 29 33 30 31 30 31 32 31 28 29 26 23 22 22 18 22 22 16 14 13 10 6 7 6 7 2 3 6 15 12 11 10 8 6 4 3 3 5 6 4 5 6 5 1 4
27 29 30 30 30 29 30 33 32 33 29 29 25 24 20 23 14 21 27 24 14 5 15 9 6 3 2 4 6 5 15 14 11 9 5 4 5 8 11 6 4 1 3 11 7 8 11
29 29 30 32 32 32 31 32 32 32 28 29 24 20 19 19 20 24 40 30 29 10 6 27 18 11 3 5 5 5 16 10 7 4 6 3 10 9 8 5 10 11 13 15 11 9 11
28 29 31 33 33 31 31 33 33 31 27 26 26 24 20 22 22 23 42 37 25 17 5 5 19 20 11 10 2 9 21 9 4 5 7 6 4 5 8 5 12 10 13 12 17 9 14
30 31 32 33 33 33 31 32 33 31 27 29 27 25 19 21 17 21 36 35 23 17 4 4 5 6 17 8 4 15 20 9 3 11 5 6 9 4 4 8 10 16 6 10 11 6 7
31 31 32 33 33 32 31 33 33 31 29 31 29 27 17 15 17 12 21 30 26 16 2 3 5 8 13 14 8 6 19 9 7 6 5 4 5 5 12 12 9 7 5 6 8 8 11
32 32 33 34 33 32 31 32 34 31 33 38 32 23 16 23 19 21 24 34 25 4 6 7 6 6 9 8 5 5 8 6 3 5 8 7 4 5 8 7 14 1 3 4 3 5 9
32 33 32 33 32 32 31 32 34 31 41 39 29 28 30 28 26 27 44 35 4 4 2 8 5 7 8 7 5 5 7 8 5 4 4 3 15 6 5 5 3 12 2 3 4 6 7
32 32 32 33 32 31 29 34 30 36 41 28 20 15 16 27 23 23 41 4 4 5 4 5 6 9 5 5 4 7 5 7 11 5 1 4 4 11 9 13 6 14 11 5 5 5 3
32 32 33 32 31 29 30 32 32 37 43 24 8 1 12 22 22 20 16 3 6 6 8 10 11 6 4 4 3 5 8 5 7 13 5 3 4 2 7 3 11 5 10 10 9 13 9
32 32 32 32 31 29 31 28 33 37 39 18 1 4 10 14 21 14 3 4 3 5 12 11 5 5 10 9 7 8 6 2 4 10 12 1 5 3 1 6 10 9 1 4 5 5 9
33 33 32 31 30 30 30 27 33 34 37 7 5 4 7 16 20 9 2 1 5 7 10 4 4 5 5 7 8 6 3 3 5 1 9 4 4 3 4 9 10 8 7 7 3 4 5
33 33 32 31 29 30 30 27 30 33 34 17 5 0 9 17 3 1 2 5 6 3 5 3 4 4 4 7 6 6 6 5 11 9 8 7 3 5 11 10 15 19 19 17 7 11 5
32 32 32 29 29 29 30 25 32 35 31 35 2 3 21 26 2 2 2 4 5 3 2 2 3 3 2 5 3 5 4 3 16 9 10 8 4 5 6 2 6 10 18 19 12 4 13
32 31 30 30 30 29 31 24 33 33 36 8 2 2 7 10 0 4 5 3 4 5 3 5 4 4 3 3 4 0 4 3 16 10 10 13 4 7 9 15 9 8 14 19 18 7 17
30 31 30 29 30 28 31 26 32 34 27 4 1 3 3 2 2 7 3 4 5 3 2 4 3 5 4 4 4 6 7 3 5 12 7 9 7 10 19 26 23 24 25 17 20 24 11
30 30 29 29 29 28 30 25 27 34 23 9 3 2 3 3 10 7 5 5 7 4 5 5 2 7 7 5 7 5 3 4 5 3 7 5 5 4 21 21 22 19 16 15 20 21 23
30 30 28 27 27 28 29 22 22 27 29 9 14 3 4 11 6 6 4 6 7 7 4 2 9 4 8 11 14 16 13 7 3 4 10 4 3 3 13 10 17 5 5 9 11 16 14
29 29 28 27 26 25 26 24 23 23 27 24 13 6 4 4 6 5 7 3 5 5 3 2 8 5 4 5 7 11 14 14 12 13 12 6 2 3 8 9 4 3 2 8 15 14 17
30 28 25 26 26 26 26 25 23 23 28 27 7 4 4 3 7 8 8 5 3 10 4 1 3 7 8 3 2 3 2 2 7 13 10 13 6 4 4 7 8 1 6 1 4 6 18
26 26 24 24 25 26 26 28 24 22 26 23 6 3 3 4 8 11 6 10 4 4 1 3 11 9 8 2 2 3 4 3 3 2 4 5 11 3 3 4 4 3 4 2 5 3 5
26 25 22 22 23 24 24 26 21 20 25 22 6 5 3 2 6 14 5 8 7 5 1 3 4 3 7 2 3 4 4 3 3 3 4 4 3 8 7 4 7 5 5 2 2 4 6
23 23 22 21 22 21 22 24 19 19 21 21 1 8 5 2 8 7 12 8 8 9 3 4 2 1 2 3 3 3 3 4 1 3 5 6 5 4 2 3 6 1 2 2 3 10 8
23 23 22 22 21 21 22 21 18 18 17 20 7 5 3 2 4 8 8 7 10 8 9 11 2 4 6 3 3 2 3 2 3 3 0 2 5 3 6 5 4 4 7 8 9 11 11

GFSGBSN_850_spd_030.txt.gz
Wind_Speed
20 22 23 23 23 24 23 24 23 22 23 24 23 16 13 20 22 19 21 14 13 12 11 8 7 6 7 7 8 7 4 5 10 21 16 12 10 8 9 4 6 11 10 9 11 11 13
20 21 23 23 23 25 23 25 25 25 25 24 23 23 19 15 19 24 23 17 12 11 12 9 7 7 6 8 9 13 6 2 5 17 19 15 8 8 3 4 9 2 8 11 11 15 16
21 20 22 24 24 25 24 25 25 25 24 27 23 23 21 19 14 23 21 23 14 11 12 10 8 7 7 9 6 8 13 10 5 13 18 16 12 8 7 5 6 6 10 12 16 15 14
20 21 23 26 26 26 25 26 25 26 27 26 24 22 21 21 20 16 22 27 18 13 12 10 7 6 6 6 10 9 11 10 10 11 10 14 14 8 6 4 3 4 5 5 4 3 6
23 22 25 26 24 27 26 27 26 27 27 28 25 25 21 21 23 14 23 24 19 15 13 10 7 5 4 4 9 8 15 11 13 11 9 10 10 5 5 6 5 7 7 8 10 8 7
24 26 25 25 26 31 26 29 27 28 27 30 25 26 22 22 18 17 24 23 23 18 16 10 5 4 7 4 6 11 17 15 11 15 11 6 4 5 7 8 6 5 12 10 11 1 8
25 26 27 28 28 30 30 29 29 27 28 27 24 22 21 18 17 19 19 23 20 12 21 8 9 2 5 7 9 9 18 14 13 13 8 9 6 11 14 13 12 4 7 10 9 9 18
27 27 29 29 32 29 30 30 29 27 28 26 21 18 20 22 19 20 20 13 28 13 7 17 10 10 6 8 5 9 20 12 15 13 9 6 11 12 8 10 12 14 16 17 15 13 12
28 29 31 31 31 32 30 29 28 28 27 26 22 22 20 21 20 23 21 22 29 21 5 8 18 12 6 8 4 13 20 9 12 12 16 8 2 4 13 12 13 15 16 15 18 17 18
29 30 32 33 33 33 31 29 28 28 29 27 27 24 22 22 16 14 14 15 27 11 3 9 9 8 16 9 5 11 19 8 5 12 10 9 11 6 9 12 12 15 8 13 14 11 8
32 31 32 35 33 33 31 30 26 29 30 26 27 28 27 18 12 13 10 21 28 16 7 11 7 9 14 14 12 8 17 5 8 8 6 3 6 11 13 15 10 7 6 7 9 12 14
31 32 32 32 33 31 30 28 29 32 27 35 38 34 21 20 19 18 8 26 25 5 6 8 8 12 13 17 8 8 11 4 4 7 8 10 2 5 8 10 13 0 7 10 11 8 9
31 31 32 33 33 31 29 28 31 28 32 38 45 32 19 21 17 12 8 17 4 5 6 9 9 12 14 12 10 9 11 10 7 6 8 5 16 8 8 7 7 11 3 3 4 6 8
31 33 33 33 31 30 29 29 30 30 36 43 26 9 15 18 27 15 13 2 3 6 7 5 13 16 7 16 7 9 11 10 14 6 2 3 3 13 12 15 5 13 13 6 6 6 8
34 35 33 32 30 29 29 31 26 31 35 41 13 8 3 13 16 15 16 5 3 6 11 12 12 8 5 11 5 8 9 8 9 14 6 5 5 2 11 7 12 5 10 13 13 21 13
34 34 32 31 29 30 30 29 26 30 34 36 14 3 5 16 20 19 4 2 2 6 18 17 6 7 9 14 9 12 12 4 10 14 13 2 4 6 2 8 11 10 0 4 6 6 11
33 32 31 30 29 31 30 30 25 30 35 34 7 3 13 20 22 9 2 1 5 16 14 3 7 9 8 12 10 10 5 3 8 10 16 7 5 3 4 13 14 9 6 6 8 9 7
30 30 30 30 30 31 30 29 25 33 33 39 5 1 17 24 3 2 3 3 9 10 3 4 6 8 13 10 9 8 8 4 9 11 10 11 4 8 14 10 13 15 16 20 9 12 10
29 30 30 30 31 30 31 29 27 31 42 27 3 7 22 9 3 3 2 3 4 4 3 3 4 4 3 7 5 7 5 2 12 10 10 11 6 4 4 3 6 9 16 23 19 13 19
30 29 29 29 30 30 31 30 30 33 26 7 3 3 5 5 1 5 4 4 5 6 5 8 8 7 6 4 1 3 6 2 11 14 8 13 5 8 9 11 4 10 18 13 17 12 22
30 31 30 29 28 29 31 30 30 34 15 6 5 3 2 3 4 5 1 4 8 4 4 4 4 4 4 3 4 3 7 3 5 10 9 8 5 10 18 24 21 23 26 25 18 24 16
29 28 26 26 27 27 29 31 28 30 25 13 5 2 2 6 11 9 5 5 5 4 3 3 4 5 4 4 4 5 7 7 4 9 9 7 5 5 15 22 21 20 21 20 17 18 19
27 27 27 25 26 26 28 28 26 26 30 10 18 6 1 9 7 9 6 6 6 7 2 3 4 4 4 7 7 10 9 5 4 5 12 5 3 3 7 15 24 6 5 8 7 9 10
25 26 25 22 24 25 26 27 26 22 23 23 14 6 2 3 5 9 8 4 8 6 2 1 4 5 3 1 3 8 12 17 15 13 10 5 4 2 7 15 4 2 11 12 10 14 12
23 24 24 20 23 24 25 25 25 20 18 23 6 4 2 3 9 8 10 7 9 5 1 3 2 4 1 2 2 3 3 3 7 13 16 14 9 4 4 5 12 7 8 5 2 6 12
22 21 22 21 21 22 21 23 21 20 19 18 8 2 3 3 8 12 9 9 5 4 2 4 6 8 5 3 3 3 2 2 1 3 2 11 13 7 3 4 4 2 5 6 2 3 11
21 21 21 21 21 19 20 22 18 18 19 16 5 7 3 3 1 13 11 11 7 5 1 2 2 3 8 3 3 3 3 2 3 3 4 4 3 9 7 4 8 4 5 1 5 7 14
20 22 21 20 20 20 21 21 19 17 18 15 5 7 3 1 6 8 12 8 8 9 3 5 3 2 2 3 2 2 4 3 3 2 4 7 6 5 5 5 5 2 3 3 3 10 14
20 22 22 22 21 21 20 19 19 17 15 13 8 7 4 1 3 6 8 9 12 10 10 10 1 4 4 3 3 2 3 2 3 2 3 4 5 2 5 4 1 3 10 8 8 10 8

GFSGBSN_850_spd_033.txt.gz
Wind_Speed
18 18 20 21 21 22 22 22 23 23 23 23 25 23 22 21 17 19 17 17 19 15 12 11 9 7 8 9 14 9 6 9 16 16 17 16 16 15 12 11 10 13 18 14 16 16 17
20 19 21 23 26 24 24 22 23 23 23 25 25 25 24 23 20 17 18 17 21 17 12 11 10 8 7 11 11 14 6 4 9 18 19 14 7 11 6 9 10 2 13 17 16 18 19
19 21 21 24 25 23 26 26 25 25 25 25 26 26 26 23 21 21 15 18 18 19 13 12 11 8 9 11 5 7 14 6 7 15 19 15 7 6 4 5 11 9 14 15 19 21 15
23 23 26 25 23 25 29 28 24 26 26 26 25 30 26 25 22 20 20 16 19 22 16 13 11 7 7 13 12 8 7 8 6 9 11 15 10 6 8 1 4 7 12 12 3 8 15
23 23 23 25 25 27 28 28 27 27 26 25 26 26 27 25 23 20 21 16 26 27 19 15 11 8 7 8 10 11 9 10 10 10 9 13 11 5 5 9 8 10 10 13 9 9 8
26 25 26 27 29 28 30 29 27 26 27 26 25 27 23 20 21 20 18 18 23 24 19 14 6 6 11 8 9 10 12 12 12 15 12 10 8 6 7 10 8 11 15 12 11 4 8
26 27 30 30 32 32 31 31 28 28 27 25 24 23 20 17 19 17 16 14 14 15 31 9 15 4 13 10 10 11 15 15 13 14 7 10 8 13 17 17 15 9 9 11 10 8 16
27 28 31 31 32 34 33 32 30 27 26 25 23 25 21 18 18 17 16 15 6 3 9 10 13 9 11 12 9 13 18 13 13 12 10 5 12 15 11 10 11 13 13 15 14 11 12
28 30 31 32 32 33 33 30 29 27 25 25 27 20 22 20 20 20 17 20 16 14 5 17 18 15 11 11 9 19 21 16 13 14 15 11 2 4 14 11 12 13 12 11 14 17 18
30 28 29 31 33 32 31 30 28 26 25 28 21 23 23 23 20 13 13 12 18 17 4 10 13 11 12 9 5 16 21 11 7 15 12 10 8 5 9 13 11 12 8 8 10 8 6
30 30 30 33 34 32 31 29 27 25 28 25 28 32 27 27 20 11 7 5 14 16 6 17 11 11 20 13 19 13 20 8 11 8 7 4 6 12 12 12 8 7 3 6 8 10 13
29 32 34 34 32 31 29 29 26 28 25 28 32 39 35 30 22 20 13 6 17 2 5 7 8 13 18 16 9 15 18 5 3 7 11 10 4 5 9 7 10 4 4 7 9 5 8
31 33 34 32 30 30 28 28 28 24 25 29 37 27 17 13 12 14 10 12 4 5 12 10 9 14 17 15 11 13 14 11 8 5 8 10 16 8 10 8 6 7 1 2 3 4 7
30 32 31 30 30 28 30 29 26 23 25 33 38 14 8 13 13 16 18 2 7 7 6 7 15 17 9 17 10 15 15 12 16 10 4 8 6 17 12 14 5 12 9 4 5 7 11
29 29 30 30 29 29 29 29 28 23 27 33 32 8 4 13 22 16 8 4 2 11 10 13 17 9 8 19 8 11 13 11 13 13 7 6 3 1 10 7 11 5 8 10 13 18 11
26 28 30 29 29 29 29 31 26 24 31 33 32 4 3 11 20 17 4 7 4 3 14 18 7 6 8 17 10 13 13 12 9 17 12 2 3 6 6 6 9 11 3 2 4 5 11
28 29 29 28 30 28 29 32 27 30 34 29 6 2 8 18 20 4 3 2 2 12 13 2 9 10 10 15 10 15 16 5 15 13 14 7 4 5 3 11 13 10 7 6 6 7 6
27 29 28 27 29 28 30 32 29 31 31 18 6 3 17 17 3 2 3 3 12 13 1 2 7 6 16 16 10 11 8 2 9 10 11 8 3 6 12 9 9 13 13 17 7 8 6
25 29 29 28 28 29 30 31 30 33 20 9 6 6 11 1 3 2 2 3 8 3 2 2 4 2 6 13 6 5 6 4 10 11 9 10 5 3 2 3 12 11 16 17 18 14 20
24 26 26 25 26 28 30 30 30 27 18 6 4 3 1 4 6 7 4 4 5 3 7 9 9 11 10 12 5 7 6 4 8 11 6 6 5 8 7 6 5 6 15 16 12 8 17
26 26 27 25 24 26 28 29 27 25 18 4 4 2 1 2 4 7 5 3 10 4 3 3 4 7 6 4 4 3 4 5 6 8 6 5 4 11 16 20 18 19 22 22 18 19 14
23 24 25 23 24 25 27 28 25 25 15 20 5 4 4 4 10 6 4 2 3 4 1 3 7 6 4 3 2 4 7 6 5 9 10 5 4 4 12 19 16 16 22 16 15 17 16
21 22 23 23 23 24 24 25 24 22 23 10 11 5 3 5 8 6 6 8 4 5 4 7 6 4 3 4 1 1 3 2 1 3 11 5 3 3 6 12 20 7 2 8 11 13 11
20 20 20 22 21 23 22 24 22 19 17 14 8 4 3 3 6 7 7 5 4 2 3 4 2 1 6 4 2 1 5 9 10 9 10 5 6 3 6 12 3 1 5 8 8 12 8
19 20 21 22 22 21 20 22 21 18 17 16 2 1 4 1 5 7 9 5 7 6 4 5 4 5 3 2 2 2 3 3 8 13 14 12 6 3 3 6 15 8 5 4 2 5 7
19 20 20 20 19 20 21 21 19 16 16 11 5 3 4 3 6 9 9 11 5 4 2 3 3 2 3 2 1 2 2 2 4 4 3 10 12 5 3 4 4 4 5 2 2 2 10
18 19 20 21 21 21 20 20 19 18 14 10 4 7 2 5 4 11 8 7 4 3 1 3 3 2 4 2 1 2 3 2 3 4 5 4 2 8 8 5 9 9 5 1 5 7 14
19 18 20 21 20 21 20 18 17 18 13 7 3 6 1 3 1 3 3 5 6 6 2 5 3 2 2 2 1 2 4 2 3 3 5 8 7 4 4 4 7 3 5 4 8 14 10
19 18 19 20 20 20 20 18 16 17 11 9 3 7 5 3 1 5 7 7 5 2 4 7 3 4 3 2 3 2 2 2 5 3 5 5 7 1 8 5 6 9 11 14 9 11 8

GFSGBSN_850_spd_036.txt.gz
Wind_Speed
19 20 22 22 23 23 23 22 24 23 25 24 24 24 25 23 22 22 19 19 16 16 18 12 10 7 8 8 11 10 5 15 18 17 17 15 17 14 11 10 16 12 16 17 15 18 12
21 23 24 25 26 24 24 25 27 26 25 25 25 26 26 27 24 22 19 19 17 14 20 13 11 9 12 11 10 3 3 5 10 14 20 18 10 14 9 14 9 6 11 15 21 12 13
24 23 24 25 26 26 27 27 31 28 25 26 26 27 26 27 25 23 20 21 16 16 20 16 12 11 10 14 5 9 12 6 7 14 17 17 7 5 1 4 10 7 8 11 15 14 10
24 26 27 27 28 28 30 30 31 29 25 25 27 26 27 27 24 22 20 18 20 12 19 19 13 11 9 9 21 8 9 9 7 8 17 17 12 2 2 4 2 5 10 8 10 19 17
24 25 28 28 29 31 32 31 30 29 26 27 26 25 25 25 23 19 18 18 22 16 11 21 16 13 8 10 17 17 10 11 9 5 11 12 11 4 7 3 2 6 6 12 9 5 4
25 27 28 30 33 31 33 33 32 30 27 26 25 23 23 24 19 18 19 16 18 16 22 18 10 10 13 12 13 14 14 11 13 13 9 9 5 4 5 7 6 7 10 8 8 5 4
25 27 30 29 30 31 32 30 29 28 26 26 24 21 24 24 18 18 18 12 7 9 28 9 12 3 17 17 16 14 17 15 13 15 7 13 4 7 12 10 13 12 8 8 11 9 6
29 28 29 31 31 33 31 30 29 27 25 24 22 23 20 20 20 17 15 6 13 2 6 22 8 12 15 18 12 17 20 11 10 8 5 3 7 10 11 11 10 8 7 10 9 9 10
29 30 31 33 34 33 31 29 27 26 24 21 23 21 18 23 23 21 14 15 14 15 5 16 13 17 18 11 10 22 23 13 11 9 8 8 2 13 11 7 4 6 6 7 9 11 10
30 30 32 34 33 31 29 28 26 26 24 24 19 21 26 24 20 9 12 10 8 10 2 10 10 13 11 10 7 20 22 13 6 11 9 7 7 5 4 9 7 6 3 6 5 6 4
31 31 34 32 30 30 28 28 26 26 25 21 23 25 26 30 22 19 2 5 3 8 4 14 9 13 18 12 21 15 22 9 11 9 7 4 4 5 5 6 6 3 7 5 5 6 9
30 30 31 30 30 29 29 28 27 26 23 22 24 29 31 18 15 22 12 6 7 3 4 5 8 13 15 16 5 18 15 4 2 5 8 5 4 1 4 3 4 6 2 4 6 4 5
28 28 29 31 30 30 30 29 29 27 23 23 30 35 17 12 5 12 13 17 3 4 4 8 9 13 17 13 10 15 11 6 5 4 4 4 8 3 4 4 5 3 2 2 2 3 6
26 29 30 30 29 30 29 32 31 26 23 27 31 19 9 3 8 20 19 3 5 4 2 7 14 16 11 15 8 13 12 7 9 6 6 6 4 15 9 9 4 7 4 3 5 3 3
27 30 30 28 29 30 30 30 32 26 29 27 25 8 7 12 12 17 9 3 3 3 8 10 18 7 9 11 7 10 10 8 10 10 4 6 3 3 11 6 9 5 6 2 3 5 2
27 30 31 28 27 29 30 31 30 30 30 23 13 5 10 19 14 15 1 2 4 5 14 16 5 6 10 14 8 9 12 12 8 14 9 4 3 3 8 6 10 6 3 1 1 3 6
26 27 28 30 28 30 30 32 31 30 32 13 10 5 6 15 10 6 1 2 4 9 20 1 9 7 10 14 9 9 11 6 12 12 12 3 2 2 5 8 9 6 5 4 3 3 4
26 26 28 28 27 29 31 32 30 34 22 10 7 3 8 11 3 4 1 2 1 4 1 1 6 10 13 14 8 10 11 4 14 9 13 5 3 3 8 7 12 8 8 9 3 5 4
24 26 28 29 25 28 31 31 27 29 14 8 5 6 4 4 1 1 3 4 4 3 1 1 4 7 15 10 8 5 10 6 6 5 11 7 3 2 2 3 8 5 7 11 11 7 13
24 26 26 27 25 28 30 31 26 21 8 4 4 2 3 4 4 3 1 4 3 8 11 9 8 7 12 7 3 6 7 2 6 3 8 11 3 5 3 2 4 4 5 8 7 6 12
23 24 24 26 24 26 27 29 25 21 8 3 3 1 1 1 3 6 2 5 3 3 4 3 2 8 10 4 6 5 9 8 5 7 4 2 2 4 7 11 9 11 15 17 16 18 14
21 22 23 22 23 24 24 26 24 24 12 11 3 3 4 2 4 10 1 0 1 7 7 5 10 7 5 5 5 7 6 5 5 7 6 3 3 3 5 13 16 18 17 17 15 16 15
21 21 23 23 23 22 22 24 22 20 20 10 8 5 2 1 4 1 2 3 4 4 9 11 6 5 9 7 7 6 6 3 5 6 8 5 2 1 4 7 10 7 5 6 8 11 10
20 21 21 22 21 20 20 21 20 17 13 11 7 6 4 1 2 4 6 5 5 5 6 4 4 4 4 3 4 4 4 1 2 4 4 3 4 2 4 8 2 3 9 9 8 11 10
20 21 22 22 22 22 20 19 18 17 15 11 1 2 4 2 5 2 2 4 11 6 7 8 6 6 2 1 1 2 2 1 6 6 9 8 1 2 2 3 8 7 3 2 4 4 8
19 20 21 23 22 22 21 19 16 16 13 5 6 1 2 4 2 7 6 8 4 4 3 4 5 1 3 1 2 0 0 2 4 3 2 10 9 3 3 3 3 1 4 4 5 2 2
20 19 20 21 21 22 20 18 15 16 13 7 2 4 3 4 4 3 1 2 4 2 3 4 4 2 2 0 1 1 2 5 2 6 5 3 4 8 7 3 7 7 3 8 2 4 6
20 19 19 21 20 21 20 18 15 15 11 7 2 3 1 3 6 4 3 3 6 3 1 6 3 2 1 1 1 1 2 2 3 5 6 6 6 4 3 4 7 2 1 3 3 6 9
20 19 19 21 21 20 19 19 16 15 10 7 2 4 4 6 4 1 3 4 3 4 4 8 2 4 3 2 2 2 1 3 3 2 2 4 6 4 6 5 7 17 4 7 6 8 6

GFSGBSN_850_spd_039.txt.gz
Wind_Speed
22 24 23 23 24 26 25 25 27 30 28 25 24 23 23 24 24 22 22 21 17 15 13 16 15 9 9 10 11 2 6 13 21 18 20 19 16 15 6 7 14 5 8 21 20 19 13
24 24 26 27 26 28 28 30 31 28 31 29 23 23 23 22 24 25 23 21 19 17 14 11 15 12 13 6 9 7 4 9 19 18 21 18 9 18 6 9 5 4 4 4 8 14 14
21 23 25 28 27 28 31 31 34 32 30 27 25 21 24 22 22 23 22 20 19 18 16 7 17 15 13 19 10 12 9 5 4 15 18 22 12 12 8 2 2 4 4 7 8 12 6
25 23 27 26 29 30 29 30 34 32 32 29 25 24 22 23 21 22 20 18 17 17 20 15 18 16 8 14 16 9 13 14 13 12 15 17 16 9 3 3 2 4 3 2 7 11 12
24 26 27 29 27 30 30 30 30 30 28 26 23 22 21 21 21 20 18 18 18 15 23 15 24 15 7 12 17 20 11 17 15 10 12 13 14 3 4 4 1 2 3 5 7 10 6
25 30 29 29 32 32 32 31 30 28 27 24 22 21 20 20 21 18 17 19 17 13 19 14 14 10 12 14 21 22 16 16 12 12 12 10 4 3 2 4 5 5 4 4 6 5 2
29 28 30 31 33 32 32 29 28 26 25 23 21 19 20 17 15 17 16 17 5 5 19 7 13 3 10 14 16 20 24 17 17 12 4 7 3 5 9 6 4 5 6 5 4 5 2
27 29 30 32 32 31 29 29 26 25 23 23 20 20 18 16 19 18 17 11 9 4 6 23 10 11 24 25 11 23 22 12 11 6 5 3 2 5 8 9 10 5 7 5 6 5 4
26 29 30 32 29 29 28 27 26 26 23 24 22 17 20 21 22 20 13 11 12 12 4 13 18 20 23 12 8 24 23 13 8 6 6 5 2 7 5 2 7 2 4 3 5 7 6
26 28 27 29 29 29 29 29 27 26 24 23 19 19 21 22 21 3 10 5 10 12 3 10 7 13 18 11 5 23 20 14 4 9 6 1 1 3 4 3 3 0 4 5 4 4 4
26 24 29 30 30 29 30 28 30 27 26 23 19 21 24 25 23 16 5 2 7 0 4 13 10 23 21 4 22 16 20 2 6 6 6 6 3 5 3 2 5 3 6 5 4 3 5
24 26 31 31 30 30 30 30 32 30 26 20 19 25 28 23 12 12 15 2 8 2 4 6 9 11 9 14 3 21 10 2 4 4 5 4 6 3 6 2 4 5 4 3 3 2 2
24 28 29 30 29 29 30 31 31 30 26 24 27 26 18 10 6 9 20 12 3 3 2 6 8 15 12 9 6 9 9 5 4 5 2 2 2 3 3 4 2 4 5 2 2 2 6
26 27 29 30 30 29 30 31 31 30 30 27 23 20 7 2 1 19 21 2 2 2 3 8 15 16 7 12 9 9 7 4 3 3 4 5 3 8 5 5 6 6 5 4 5 3 4
24 26 28 29 30 29 31 32 32 31 36 31 15 5 5 5 11 15 3 2 2 4 2 8 14 6 5 4 7 7 5 5 5 4 5 4 3 4 9 3 5 3 3 4 1 2 2
23 26 28 32 29 30 31 32 33 32 31 17 14 12 15 9 8 10 3 4 4 5 9 12 4 3 7 8 6 5 8 6 5 8 1 1 4 5 4 5 5 5 4 2 2 2 5
23 25 28 29 29 30 32 32 32 29 19 11 11 7 8 9 4 1 1 3 3 8 15 2 5 7 10 6 6 7 11 6 9 9 7 1 2 2 2 5 6 4 5 4 2 3 3
22 25 26 28 27 30 32 31 28 27 16 11 11 3 4 5 3 2 3 3 5 4 12 5 4 8 12 6 8 3 9 2 18 14 6 3 4 3 8 6 8 5 6 6 4 4 4
21 24 24 27 27 28 30 30 26 22 12 9 5 4 1 10 2 1 3 3 4 4 3 3 1 4 14 5 6 2 5 5 16 7 12 6 1 2 1 3 1 5 6 8 3 2 8
21 23 24 25 27 27 28 28 24 19 6 5 2 2 2 3 1 1 1 2 4 5 4 6 11 15 7 1 5 7 4 4 6 5 10 9 4 5 5 3 3 3 3 6 9 4 8
19 21 23 24 25 25 26 27 24 19 9 2 2 1 2 2 2 2 1 5 7 6 8 7 8 9 6 5 6 5 7 3 5 3 4 4 2 1 5 6 4 6 9 9 10 15 10
18 21 22 23 23 21 23 24 24 19 8 9 3 3 6 5 7 5 5 3 6 5 5 7 9 12 10 4 2 8 7 4 4 2 3 2 2 2 5 9 10 9 13 13 15 18 19
15 18 21 22 23 24 24 21 20 19 16 7 5 3 2 5 3 1 3 2 3 2 10 10 5 7 10 3 9 9 8 5 8 7 5 5 3 1 4 5 6 5 7 12 5 5 6
12 17 19 21 22 21 22 21 16 17 12 11 6 5 3 2 2 1 0 2 5 3 4 6 12 4 3 5 8 8 8 8 8 4 8 5 3 1 3 4 1 4 5 6 10 7 10
11 17 18 19 21 21 21 20 15 14 11 11 1 2 3 2 3 4 2 5 8 9 6 5 7 5 2 2 2 3 2 2 3 4 5 4 3 1 1 2 6 3 2 2 6 6 5
11 16 17 18 21 20 19 19 18 14 12 7 3 3 3 3 1 7 0 9 3 1 2 3 3 3 2 2 2 3 3 3 3 3 5 5 3 1 2 2 3 2 2 1 4 4 4
11 16 18 18 19 20 18 17 19 15 12 8 3 3 2 3 4 7 2 3 3 3 3 2 2 1 1 1 2 2 2 1 3 5 4 4 3 5 5 4 6 8 6 6 3 5 2
10 16 18 18 19 20 18 16 17 15 13 8 6 2 1 3 7 4 3 4 6 2 2 5 3 0 1 1 2 2 1 2 2 6 6 6 5 3 5 4 6 5 3 3 4 6 7
11 15 18 19 19 20 17 16 16 15 12 8 6 5 5 7 4 2 1 4 5 4 5 9 1 3 4 2 1 2 1 3 1 2 4 3 6 4 7 6 7 5 4 5 6 9 6

GFSGBSN_850_spd_042.txt.gz
Wind_Speed
17 18 21 26 26 25 27 29 29 30 32 30 29 27 25 25 23 21 20 22 18 19 16 15 10 17 13 10 14 7 4 20 22 23 24 19 16 11 5 8 11 3 3 10 14 20 10
20 23 21 23 23 27 26 28 29 28 29 27 26 24 22 22 25 22 20 19 19 18 16 14 13 16 16 7 10 11 5 18 25 23 25 22 12 17 8 4 8 1 11 12 12 10 6
20 22 25 27 24 26 30 30 28 30 29 28 26 24 23 20 20 20 20 19 16 19 14 18 14 18 18 23 8 11 9 14 22 20 22 25 11 12 8 1 9 4 4 3 6 6 4
20 21 26 26 25 29 29 30 30 29 27 25 23 22 21 19 18 18 19 20 17 15 13 23 15 17 9 21 13 17 12 14 9 15 20 22 19 6 5 5 4 5 4 0 4 3 8
21 24 25 24 26 29 28 29 28 27 26 24 22 20 19 18 16 19 18 19 16 15 15 20 19 13 6 14 27 19 16 17 14 12 13 12 20 5 5 6 3 1 2 4 6 9 6
23 24 26 26 29 27 27 28 26 24 24 21 22 18 18 18 15 14 17 19 17 14 13 13 14 9 10 14 28 24 13 19 16 17 14 9 8 3 3 4 6 6 3 3 5 4 1
23 23 26 27 27 26 26 26 26 24 24 24 21 22 20 16 14 17 16 20 4 2 9 6 10 4 7 16 21 21 21 19 10 16 5 8 3 4 8 4 3 4 1 2 4 3 5
23 24 24 25 27 27 27 26 26 25 24 23 22 22 16 17 17 18 17 14 9 3 6 19 6 21 8 22 13 24 24 11 8 5 4 3 2 8 14 11 7 2 3 4 6 1 3
24 21 23 28 28 28 28 28 28 28 26 24 23 19 18 16 20 21 11 9 6 3 2 8 15 23 16 16 7 23 23 13 5 6 4 5 3 6 6 7 7 4 4 2 5 5 1
25 22 27 28 28 28 27 28 27 30 29 28 22 17 18 21 17 6 14 3 6 2 2 4 8 8 10 11 4 24 19 13 4 8 7 4 1 6 6 2 3 2 3 2 2 4 4
26 23 25 29 27 28 28 28 30 29 28 24 21 15 20 21 24 12 11 3 8 5 4 9 5 18 17 1 23 14 12 2 5 7 5 4 5 6 4 4 4 4 5 4 2 3 4
25 25 24 29 27 29 29 30 30 29 29 27 25 24 21 20 9 5 6 2 5 2 2 6 7 10 9 10 2 18 5 5 9 6 5 3 4 3 5 4 4 7 5 6 4 3 2
23 25 24 30 29 27 29 31 31 32 32 38 25 18 16 9 2 3 15 7 3 2 2 5 8 16 14 5 5 7 6 3 4 6 3 2 2 2 5 6 3 5 6 2 4 3 6
21 24 26 29 30 27 30 31 32 30 35 27 13 7 9 5 5 12 19 1 1 5 4 8 13 14 6 9 7 8 7 4 2 5 4 4 2 6 2 4 6 3 5 4 5 2 4
21 23 26 27 29 28 30 31 31 33 24 21 15 25 20 17 14 14 2 3 3 4 5 11 14 5 5 4 7 6 6 5 4 3 5 4 2 2 5 3 6 3 2 3 3 3 3
21 23 24 26 27 27 29 30 28 26 16 14 18 20 19 11 4 1 1 5 3 3 10 10 4 2 4 5 6 4 9 6 3 6 1 5 3 2 2 5 2 4 6 3 3 1 4
19 22 23 24 26 26 26 29 27 22 12 11 8 6 8 6 4 3 2 5 5 8 3 2 3 5 8 6 8 5 9 1 7 4 4 0 4 2 4 3 6 4 2 2 3 3 3
19 21 22 25 26 27 25 28 24 21 14 11 6 3 6 7 3 1 2 2 4 5 7 4 5 10 4 5 4 3 8 3 12 7 5 1 4 3 7 2 3 4 5 5 4 3 2
17 20 21 24 24 24 24 24 23 19 13 9 4 2 5 7 2 2 4 4 2 3 5 4 4 3 5 5 5 3 5 4 18 8 8 4 2 2 3 5 3 3 5 4 4 2 6
15 18 20 22 25 25 25 23 22 18 8 7 3 3 4 4 1 2 2 2 3 4 4 5 5 12 4 3 3 4 3 5 5 5 12 7 3 4 5 5 3 3 5 6 8 3 3
14 16 19 21 24 26 25 22 21 18 8 3 5 3 3 3 3 2 3 5 6 7 8 9 7 4 4 4 6 4 3 3 6 5 4 4 3 3 5 6 2 5 5 6 8 17 6
14 14 18 19 22 24 25 22 19 19 7 8 3 3 5 4 6 4 5 6 7 6 5 4 6 3 8 4 1 5 6 3 3 1 3 2 1 2 4 4 7 7 10 11 12 15 17
13 12 17 17 20 22 23 22 18 22 15 5 4 3 3 6 2 2 1 4 5 2 10 9 6 7 10 4 6 9 6 10 8 6 3 4 3 2 4 2 4 5 10 12 6 6 8
14 11 18 17 17 19 20 19 18 16 14 10 4 2 3 3 2 2 3 2 5 4 4 6 11 4 2 6 11 12 16 13 8 4 6 5 4 3 3 3 1 4 0 6 11 9 11
17 10 17 16 16 18 20 16 17 13 13 9 1 1 3 2 3 5 3 4 7 9 4 4 6 5 2 2 3 3 2 2 1 1 3 4 3 1 1 2 5 5 3 3 5 8 5
18 10 15 16 14 16 18 16 14 15 13 9 4 2 3 4 4 6 2 8 3 2 2 2 3 3 2 2 2 3 3 2 4 3 3 3 3 2 2 2 2 3 0 3 4 4 4
17 9 14 19 13 15 17 15 12 13 12 9 4 3 4 3 5 7 1 3 2 3 3 1 1 1 1 2 2 3 2 2 5 6 4 3 3 5 4 2 6 9 5 6 3 4 4
16 10 14 18 13 15 14 14 13 12 12 8 8 4 1 4 8 3 3 2 3 4 3 4 2 1 1 1 2 2 1 2 1 5 5 6 6 4 3 3 7 4 3 2 3 10 8
17 12 13 20 13 15 14 14 12 12 11 5 8 7 6 7 6 7 1 4 2 3 4 8 1 3 2 3 0 1 1 1 1 2 2 4 5 3 6 5 5 6 6 10 11 13 8

GFSGBSN_850_spd_045.txt.gz
Wind_Speed
20 20 21 22 26 24 24 26 27 27 28 27 27 25 25 24 22 23 20 20 18 17 19 18 18 12 14 13 18 4 3 14 24 32 30 21 19 9 6 9 4 3 2 8 14 14 10
20 19 21 26 25 25 26 28 28 29 28 26 25 24 24 23 21 22 20 20 18 17 17 20 15 17 15 8 12 13 4 15 28 30 29 26 15 15 8 4 9 4 11 12 11 11 7
21 22 25 23 25 25 29 28 28 26 26 26 24 22 21 20 19 19 19 18 17 17 17 15 19 11 16 21 6 14 9 17 28 28 29 26 12 18 5 3 8 6 3 1 6 5 5
22 24 24 26 27 29 26 28 26 25 23 24 24 21 20 19 19 17 17 19 19 15 14 11 16 12 7 20 8 13 10 15 24 21 24 24 16 16 5 4 4 6 4 3 3 6 6
23 26 25 28 25 27 27 26 25 26 24 24 22 20 20 19 18 18 16 17 16 12 13 11 13 12 3 11 24 19 15 16 15 19 18 17 20 6 5 5 3 0 4 4 5 5 3
26 25 27 25 26 27 27 28 26 26 25 24 21 22 21 20 16 17 19 20 19 11 9 8 13 5 9 11 27 24 18 15 11 16 11 11 10 4 4 4 6 5 4 3 4 2 3
24 26 23 26 29 29 29 28 26 26 28 26 20 21 20 16 15 16 20 22 5 1 6 9 7 5 2 14 18 25 18 17 12 13 5 8 4 9 13 8 3 5 4 3 3 2 3
24 27 24 26 30 29 29 27 28 26 30 27 25 24 18 13 15 18 20 9 9 6 5 18 11 23 5 14 10 22 19 11 7 5 5 4 4 4 4 2 3 0 2 2 4 0 2
23 25 26 25 30 29 28 28 29 28 28 27 25 21 15 15 17 21 7 12 3 3 3 2 6 7 6 13 10 20 24 8 4 5 5 6 4 13 10 6 5 4 4 3 4 4 2
23 26 27 25 30 29 28 29 30 31 28 28 26 22 14 14 16 8 11 11 7 3 2 4 3 3 8 12 5 21 22 9 3 6 4 4 4 12 9 7 6 4 1 3 3 4 3
24 24 25 26 32 30 28 30 30 31 30 31 32 27 17 15 15 10 9 7 9 3 5 8 6 8 13 2 20 13 10 4 6 4 5 2 4 6 5 3 4 4 5 5 3 3 3
23 23 26 28 28 30 29 30 30 31 34 31 26 13 8 11 3 2 9 9 6 4 4 5 6 6 8 8 4 15 4 7 13 6 5 3 3 3 3 4 2 8 5 6 4 2 2
20 22 26 27 30 27 28 29 32 32 28 27 23 13 9 5 7 7 12 7 3 4 3 3 4 11 9 13 6 4 4 4 3 5 3 4 3 2 5 7 6 5 5 2 4 3 4
19 22 24 26 28 26 28 30 32 26 25 20 18 15 18 17 12 14 8 3 4 2 4 4 7 15 5 5 8 4 4 3 4 4 3 4 1 3 1 4 5 1 5 4 4 1 4
18 21 24 25 27 27 28 29 30 23 17 14 14 19 22 20 15 10 5 3 2 3 5 4 11 6 4 5 4 6 2 4 2 1 5 4 2 1 2 3 5 4 1 2 5 3 3
18 20 23 25 26 26 27 27 26 22 14 8 7 11 12 9 6 2 2 3 3 3 6 5 4 3 5 4 4 4 3 3 2 2 2 3 4 2 2 5 5 3 7 3 3 2 3
20 21 22 25 26 27 25 23 26 23 16 9 6 4 7 7 2 1 2 3 4 7 11 5 3 5 5 5 7 3 8 1 3 3 3 4 3 1 5 3 6 3 1 4 4 3 3
21 22 22 24 25 27 26 21 21 20 18 12 7 2 10 8 3 2 3 3 5 6 4 4 6 8 4 4 3 3 6 3 9 8 5 1 4 3 2 1 1 3 5 5 4 3 2
18 21 22 22 26 27 26 21 17 18 14 14 6 6 9 10 3 3 4 4 2 2 2 2 3 2 3 5 5 3 3 1 10 5 6 4 2 3 5 4 3 2 3 4 4 3 5
18 20 20 22 23 26 27 23 16 15 10 8 5 3 5 4 1 1 2 2 3 4 2 3 4 5 5 3 4 4 2 4 9 7 7 6 3 4 5 4 3 2 4 6 6 3 3
18 20 17 21 22 24 26 24 19 14 7 3 5 1 3 4 4 4 1 4 5 5 4 6 4 5 5 3 3 3 3 3 5 7 4 4 3 2 4 5 3 4 4 7 7 10 5
19 18 16 20 21 22 24 24 20 15 4 5 3 3 5 6 9 5 4 6 6 5 5 4 6 7 5 3 1 6 6 2 2 3 3 2 1 2 4 3 6 4 7 8 8 9 12
20 17 18 20 20 21 22 22 21 16 9 3 4 2 3 6 5 3 3 3 5 2 11 10 3 4 9 5 2 9 4 7 6 6 3 3 4 2 4 3 4 5 10 11 5 5 9
21 16 19 19 19 18 21 20 18 15 10 5 2 2 3 3 2 2 4 3 6 3 5 3 8 4 2 8 7 14 18 14 9 5 5 5 4 2 3 3 1 5 3 7 12 10 13
21 14 17 16 21 16 19 19 14 16 9 5 2 1 1 3 4 6 2 3 5 7 4 4 7 5 4 2 3 3 3 2 4 3 3 3 3 1 1 2 6 2 2 4 5 6 6
21 14 15 13 20 17 17 18 15 12 11 6 3 3 3 3 3 5 3 3 2 2 2 2 5 4 2 3 2 2 3 2 3 2 4 4 4 2 0 2 3 1 3 3 4 3 2
20 13 14 14 19 18 15 15 13 12 11 7 6 6 3 4 5 4 2 2 3 3 3 3 3 2 3 2 2 2 2 2 5 6 4 3 2 4 5 3 6 7 5 6 2 3 6
22 15 16 11 18 20 15 15 13 12 10 9 10 6 2 4 8 3 2 2 1 2 3 4 3 1 2 2 2 2 2 2 1 3 5 6 5 3 3 3 6 4 3 1 3 5 10
17 15 18 11 20 20 16 15 13 14 12 8 11 6 7 6 6 7 7 4 3 2 3 7 3 3 3 3 1 1 2 1 2 2 1 4 6 4 7 5 4 2 9 14 10 10 11

GFSGBSN_850_spd_048.txt.gz
Wind_Speed
21 21 23 25 24 28 26 29 27 28 28 26 25 24 24 22 22 21 21 21 18 21 18 18 16 17 9 11 18 4 3 8 28 33 31 23 21 13 7 9 6 4 2 14 13 9 7
21 21 24 24 26 27 28 27 27 27 25 26 21 25 23 22 22 19 19 18 17 16 14 15 16 16 15 9 16 24 11 8 32 36 33 26 17 12 10 6 7 8 11 9 5 8 6
22 23 25 24 28 26 27 27 27 26 25 25 23 24 21 21 20 19 17 16 15 15 15 14 12 11 18 19 9 14 12 11 30 38 34 28 14 14 7 4 14 4 3 2 6 5 5
21 23 24 24 24 27 29 29 29 27 26 25 23 22 22 20 19 18 18 16 13 14 13 12 9 11 8 5 16 9 9 14 29 29 30 28 17 21 4 6 4 6 3 2 3 7 5
22 23 26 23 26 30 29 30 30 27 27 26 26 22 19 20 19 17 17 16 16 15 13 9 9 6 6 9 18 9 7 12 25 20 23 23 21 11 6 6 4 1 4 4 5 5 2
22 22 26 25 26 30 30 31 28 27 28 27 28 23 20 20 18 15 16 18 16 10 6 6 7 3 10 10 18 19 11 10 20 19 19 18 14 5 4 4 8 6 3 2 4 1 2
23 23 25 27 25 30 29 29 30 29 30 30 28 27 24 18 14 14 17 21 6 2 3 7 4 7 4 5 13 18 13 13 12 12 8 19 8 13 17 7 5 5 4 4 2 2 3
23 23 25 27 26 30 30 27 30 32 30 28 27 22 21 15 12 14 17 4 5 4 6 10 17 19 12 6 8 15 14 7 6 6 5 1 6 4 11 7 6 5 5 2 2 1 2
23 24 25 27 28 28 30 28 31 29 33 34 28 26 20 14 11 16 9 6 4 2 3 4 6 4 7 9 12 17 19 5 3 5 5 5 5 12 5 6 8 3 3 3 3 3 2
23 24 25 26 27 30 28 30 30 33 35 33 32 28 19 12 10 5 17 14 8 4 4 0 2 4 8 9 3 16 19 4 2 3 4 4 5 12 12 6 3 3 4 3 4 3 3
24 23 25 27 27 30 27 28 31 31 34 32 27 20 5 9 5 9 6 7 8 2 5 4 2 3 9 4 18 11 17 1 5 5 3 1 8 10 4 6 9 3 5 5 3 4 2
24 24 24 27 28 28 26 29 31 27 28 30 23 18 7 6 5 7 6 9 6 5 1 3 3 4 7 17 5 9 6 4 9 5 8 4 4 2 3 5 2 10 5 6 4 2 2
23 24 24 25 27 28 27 27 29 25 22 25 23 14 10 8 10 11 8 3 4 5 2 2 3 3 7 10 7 3 3 4 4 4 4 4 3 2 5 7 5 3 4 2 4 3 3
24 25 23 25 26 27 26 27 27 24 18 18 17 17 17 15 15 13 3 3 7 2 3 6 4 7 7 6 7 3 4 4 5 5 3 4 1 1 1 3 6 3 4 4 4 1 2
23 24 23 26 27 29 27 26 25 24 17 14 11 11 13 9 6 1 5 5 1 2 5 2 7 7 5 6 5 3 3 4 3 3 4 4 2 1 3 2 3 3 2 2 6 2 2
20 21 24 25 29 31 29 25 23 20 18 14 11 9 12 10 5 7 3 3 1 2 5 3 4 4 4 2 4 4 2 2 3 2 1 2 4 1 2 5 8 3 7 3 3 1 2
19 20 22 25 29 30 31 27 20 20 17 11 8 5 10 15 6 2 2 3 2 6 5 2 3 5 4 4 4 2 4 2 2 1 6 3 3 1 4 1 6 2 1 5 4 2 2
17 20 21 24 28 28 29 28 21 21 18 14 4 3 12 13 6 2 2 3 1 3 1 3 4 5 3 3 3 3 5 2 6 6 4 2 3 3 1 1 1 2 5 4 4 3 2
18 20 18 23 27 28 29 29 22 19 16 14 7 3 7 11 3 4 6 3 2 4 4 3 3 3 2 4 4 3 4 2 9 3 6 5 1 3 2 0 3 3 4 4 4 3 5
18 19 17 21 26 26 29 29 24 17 12 8 6 3 4 5 3 1 4 5 5 4 3 5 4 5 4 4 5 3 2 4 8 5 7 5 3 4 5 4 3 2 4 5 5 3 3
16 18 17 19 25 24 26 29 26 17 9 6 5 2 3 3 2 5 2 3 3 4 3 6 4 3 4 3 2 3 3 2 5 9 4 3 2 2 3 3 3 3 4 8 7 6 6
15 16 15 18 23 27 23 27 27 18 8 4 3 3 3 4 10 4 5 4 2 2 4 3 6 5 4 4 3 6 6 3 3 3 3 1 3 2 3 2 6 4 7 8 9 5 9
15 16 14 14 21 24 20 22 24 20 13 5 4 3 2 3 4 1 2 4 2 3 8 9 3 4 8 4 1 7 3 8 7 6 3 3 4 2 3 3 4 5 9 12 6 6 8
15 18 16 13 18 22 18 21 20 18 13 7 5 5 4 3 1 2 4 4 5 2 5 4 8 4 6 4 11 17 19 16 11 5 4 5 4 2 2 3 1 5 3 7 12 6 11
16 17 18 11 15 20 22 17 19 13 14 7 5 3 3 3 4 5 3 2 3 7 5 4 5 5 7 2 3 4 3 3 4 4 4 3 4 2 1 1 6 3 4 6 6 3 6
15 15 17 12 14 20 19 18 19 13 12 10 2 4 4 4 4 4 2 1 2 1 3 2 4 5 3 3 2 3 3 3 3 2 4 4 5 3 2 2 3 2 1 4 3 0 0
15 17 18 14 15 18 16 17 18 13 11 11 6 6 5 4 7 2 4 3 3 3 2 2 3 2 2 2 2 2 2 3 4 6 4 3 2 4 4 3 7 7 5 3 3 2 3
20 22 18 15 19 17 17 16 17 12 12 13 13 9 5 5 12 5 4 3 3 4 3 4 3 1 3 2 2 2 2 2 2 3 5 6 6 3 3 3 6 5 4 1 3 6 9
21 21 16 17 14 19 18 20 17 13 12 15 15 10 8 8 8 6 8 9 7 3 2 6 1 3 4 3 1 2 2 2 3 2 1 4 5 4 6 5 5 2 8 21 11 8 8

GFSGBSN_850_spd_051.txt.gz
Wind_Speed
21 20 23 25 23 25 24 25 25 26 27 24 24 24 23 21 19 20 18 17 16 16 15 16 15 15 13 12 18 9 8 4 24 28 31 26 28 18 13 10 8 3 3 11 6 5 3
21 22 24 25 25 23 27 29 27 28 28 25 25 23 22 21 18 18 16 14 13 13 13 12 13 12 12 10 9 24 8 6 20 34 33 27 22 18 14 9 8 9 9 4 8 8 3
20 22 23 25 24 24 27 28 28 28 25 26 25 23 23 21 18 18 16 14 12 10 12 12 12 11 14 22 3 16 20 18 15 39 37 26 24 19 14 5 10 9 4 5 9 6 3
21 23 23 25 24 24 28 29 27 28 26 26 25 24 21 21 16 17 16 15 11 12 11 10 9 9 9 19 15 10 20 13 17 37 32 28 26 12 5 11 6 5 2 3 2 10 8
23 24 24 26 27 26 31 29 30 28 28 28 27 25 24 19 18 16 14 13 14 13 12 9 7 6 6 12 12 13 8 10 27 29 28 29 24 10 6 6 4 4 4 5 3 9 3
22 24 24 28 28 27 29 31 27 30 29 28 28 27 21 17 17 11 13 12 15 7 6 7 7 5 10 9 13 14 7 9 26 25 20 20 9 4 3 5 9 9 4 3 6 3 2
22 23 24 28 30 30 31 27 29 28 31 32 33 27 19 18 12 7 11 13 4 1 3 3 5 7 11 4 13 16 7 13 21 22 9 17 6 16 17 5 4 8 5 4 3 1 2
23 22 24 26 29 30 28 30 29 32 33 36 33 28 20 14 9 8 10 4 1 3 4 5 12 13 16 4 7 18 10 7 11 7 5 7 12 9 12 8 6 6 6 4 1 2 1
22 22 23 26 27 28 27 29 31 30 33 36 32 29 20 8 5 6 5 4 7 2 2 4 3 11 10 8 13 22 12 1 4 10 13 1 1 15 13 9 9 2 5 3 2 1 2
23 22 23 26 27 29 29 30 30 30 31 35 31 29 17 3 2 1 7 7 4 5 4 3 3 4 3 10 5 13 13 2 3 7 16 3 3 8 13 15 8 5 3 3 4 2 1
22 21 22 25 27 29 26 27 29 30 28 32 31 22 19 7 1 2 4 5 7 2 6 6 2 3 5 3 14 6 7 3 4 6 4 1 9 16 9 2 8 2 4 4 3 4 1
21 21 22 24 26 29 27 25 27 28 24 27 32 18 14 15 14 10 6 6 3 5 3 3 4 5 2 7 2 8 6 3 4 9 12 4 3 4 3 5 5 9 5 5 3 2 1
21 20 22 23 26 28 31 27 24 24 20 19 22 20 14 13 10 7 3 4 4 5 5 3 2 3 10 5 6 3 1 3 4 4 3 4 4 4 12 8 4 1 3 1 2 2 2
20 20 22 24 26 28 32 28 23 21 18 15 14 15 12 9 7 5 12 4 9 2 2 2 0 12 7 5 7 4 2 4 5 5 4 3 4 4 1 4 7 1 1 3 3 3 1
20 21 20 25 25 30 32 31 23 20 18 13 8 8 12 11 9 9 7 5 4 2 3 1 6 7 5 8 4 4 3 3 3 1 5 5 3 1 5 3 1 3 2 1 6 2 1
20 21 21 24 24 29 31 32 27 20 19 17 10 8 9 13 10 9 3 3 1 4 3 2 4 2 3 3 3 1 2 2 3 3 2 1 5 3 2 4 10 3 6 2 2 3 3
18 22 21 22 26 28 30 31 30 22 18 16 8 3 12 15 5 5 3 3 3 2 2 2 3 5 3 4 3 2 1 1 2 3 6 3 3 2 3 1 5 2 1 4 4 1 2
16 20 21 20 24 30 31 30 29 24 20 16 7 3 11 9 5 3 3 5 5 4 2 2 3 4 3 2 3 3 3 2 3 5 4 1 4 3 1 1 1 2 4 3 3 3 1
15 18 19 19 24 28 31 30 29 23 18 15 9 5 7 8 3 3 3 3 2 3 3 2 2 2 1 3 4 2 2 4 5 3 5 5 2 3 1 1 2 2 4 4 4 3 4
14 18 18 18 22 26 29 29 27 24 15 10 5 3 4 5 5 2 3 3 3 2 2 3 3 4 4 4 5 3 2 4 3 3 8 6 3 4 5 4 3 3 3 4 5 3 4
14 17 18 18 21 23 27 28 25 23 13 8 5 1 3 3 3 3 1 3 1 3 4 6 3 2 4 3 2 3 3 3 4 6 4 3 3 2 2 1 3 3 4 8 6 5 5
13 16 18 18 18 23 26 26 23 22 15 7 5 4 4 4 5 3 2 4 2 0 2 2 5 2 1 4 3 6 6 3 4 2 3 2 3 2 3 0 5 4 7 9 8 3 8
12 15 19 20 14 20 22 24 24 21 17 7 8 4 3 5 3 1 1 1 3 1 4 5 5 4 6 3 1 5 3 7 8 6 3 4 5 2 3 2 2 5 9 12 5 5 9
13 15 17 17 11 16 19 22 23 22 17 10 8 7 3 3 2 2 3 3 1 1 3 2 5 4 6 14 18 18 20 17 11 6 3 5 4 2 1 2 1 4 3 8 14 3 11
11 15 16 15 13 13 18 19 19 21 15 12 7 4 4 4 2 6 2 3 1 7 4 3 5 6 9 2 3 4 3 3 4 5 3 3 4 3 0 2 5 0 3 6 6 4 9
14 17 17 20 16 14 16 16 19 15 15 12 6 4 4 5 3 4 3 1 1 1 2 2 5 5 2 3 2 3 3 3 3 2 4 4 4 3 2 2 3 3 1 4 3 2 5
16 18 20 21 16 15 15 17 15 14 12 11 11 7 5 6 11 4 4 2 3 2 2 1 4 3 1 2 2 1 2 3 4 6 4 2 1 4 3 3 6 6 5 0 2 2 2
16 19 20 18 16 16 13 18 16 18 12 12 10 15 8 6 21 11 8 4 2 3 3 5 3 1 3 2 2 2 2 2 2 3 5 6 5 3 3 3 6 4 4 1 2 9 8
19 20 20 19 17 13 16 18 20 12 11 11 13 12 10 12 11 11 16 12 10 3 3 6 1 3 5 3 1 2 2 2 2 2 0 4 5 4 6 5 4 2 5 14 9 6 7

GFSGBSN_850_spd_054.txt.gz
Wind_Speed
21 20 22 23 25 24 24 26 29 26 27 25 24 23 21 20 19 16 15 14 14 13 12 11 11 13 9 9 21 7 18 14 24 26 29 27 31 25 18 19 15 15 5 10 8 8 7
21 21 22 22 25 24 23 28 30 26 29 27 25 24 21 20 19 17 15 14 13 11 9 8 9 9 9 14 13 22 11 8 17 31 30 28 26 23 17 14 15 14 8 12 13 8 5
21 22 23 24 26 24 23 28 28 28 26 28 27 25 23 20 18 16 13 13 11 9 8 8 10 9 12 21 10 13 23 9 11 31 32 28 18 24 11 9 14 4 13 13 9 11 9
20 23 23 25 26 28 27 28 24 26 28 28 27 26 24 23 18 14 13 12 9 9 12 8 9 9 10 10 20 8 25 15 13 27 27 24 21 23 10 7 13 14 7 10 10 18 6
21 22 23 25 27 29 29 25 29 27 27 30 31 30 25 21 16 16 11 9 8 13 12 8 7 7 8 7 21 12 17 16 15 26 26 22 25 22 9 14 10 14 10 18 5 10 13
21 22 23 25 27 28 28 27 26 29 29 31 31 28 21 16 12 10 6 8 9 6 3 6 6 5 11 9 18 11 17 14 17 27 19 20 15 11 14 15 15 19 15 13 14 7 9
22 22 23 25 27 28 26 27 29 27 29 31 33 27 21 12 7 6 4 4 1 1 3 4 3 5 5 2 14 10 17 15 19 26 10 25 6 18 24 19 3 10 16 9 8 5 6
22 23 23 25 26 27 26 27 26 27 29 32 31 29 19 3 2 2 4 2 2 2 3 4 9 11 9 9 6 15 12 10 18 21 11 8 13 15 16 13 7 14 14 10 6 5 5
22 23 22 24 26 27 25 26 26 26 28 31 29 26 21 8 4 3 5 5 4 3 2 2 0 4 5 2 3 13 6 3 20 14 17 5 7 15 18 16 13 9 12 11 4 6 2
22 22 22 23 26 28 28 26 26 25 26 28 31 23 16 7 5 7 8 9 1 2 1 5 2 3 6 8 4 11 11 5 4 9 6 1 3 18 19 18 16 12 5 8 7 5 3
21 22 23 24 26 28 30 26 24 22 22 24 28 21 19 12 5 6 4 7 2 3 4 2 2 4 5 2 17 7 1 4 10 11 6 4 6 15 20 20 15 6 9 8 5 3 2
22 22 22 25 26 28 30 29 24 21 19 15 19 18 13 14 13 9 6 5 2 3 7 6 4 5 3 4 6 8 6 9 14 9 14 7 6 4 2 7 6 15 10 8 4 1 3
21 22 21 22 26 27 28 30 26 23 19 14 11 13 12 11 7 8 8 7 1 6 3 6 5 4 7 4 11 8 4 4 3 5 4 5 4 6 5 9 3 8 12 4 3 4 2
19 20 21 23 26 29 28 30 29 22 21 16 11 9 10 11 8 8 11 2 10 4 4 2 2 4 4 6 7 8 3 5 8 8 4 2 4 2 3 2 9 10 3 2 4 4 3
17 20 22 22 24 28 28 30 30 24 22 17 9 6 8 11 12 8 3 6 3 2 2 1 3 4 3 7 5 4 2 4 3 3 3 4 4 2 3 4 6 4 4 2 4 2 1
16 18 21 22 24 27 30 30 31 29 21 18 8 1 10 12 8 6 1 5 1 3 2 4 2 2 4 5 3 2 1 2 3 0 2 3 6 3 4 1 11 1 8 2 0 4 4
15 18 20 21 23 27 29 31 30 31 23 17 5 1 12 11 8 6 3 4 1 3 4 2 2 3 6 4 4 2 2 3 2 2 3 5 3 3 2 1 7 4 3 2 2 1 2
15 18 20 21 23 25 27 27 28 29 27 16 5 1 10 7 3 3 2 2 2 2 4 2 2 6 5 3 3 2 3 1 2 3 3 1 4 4 2 2 2 1 2 4 2 4 0
14 16 18 22 22 26 28 27 26 26 23 18 9 3 5 5 3 3 1 1 3 3 2 1 2 1 1 3 3 3 3 3 1 1 5 6 4 5 5 3 1 4 4 2 5 2 5
14 15 18 20 19 23 26 28 24 24 19 13 5 1 3 5 3 1 2 2 3 2 3 2 2 2 4 3 3 4 4 3 0 2 7 3 2 1 2 3 3 4 8 9 4 3 4
13 14 14 19 19 21 25 26 24 22 16 8 5 2 2 2 3 2 1 1 1 2 3 5 2 1 3 3 3 4 2 4 3 2 3 1 3 2 1 3 2 1 5 11 7 4 5
13 13 14 19 21 16 24 27 29 23 16 6 4 4 6 4 6 4 3 2 2 1 2 0 2 1 1 2 1 7 6 4 3 3 2 2 3 2 1 1 4 5 8 10 14 14 13
11 12 14 18 19 15 19 24 26 28 21 8 6 3 3 4 3 3 1 1 3 3 2 1 5 4 3 1 1 1 1 5 5 7 5 3 5 2 1 0 3 7 15 16 9 9 13
10 10 16 16 17 16 16 19 21 24 23 13 8 4 3 2 3 2 4 4 2 3 1 2 1 1 5 16 13 14 14 12 8 6 3 6 5 1 0 2 4 3 2 5 17 10 13
9 11 15 18 17 14 15 15 17 18 20 15 8 3 3 3 6 7 4 4 1 3 3 2 2 7 11 2 4 5 2 1 5 5 2 2 4 2 2 3 5 2 4 6 8 7 16
9 11 14 17 18 13 13 15 16 14 14 14 10 6 3 4 3 3 4 3 2 2 3 3 6 8 3 1 1 3 4 3 4 3 4 4 3 2 2 3 3 3 3 4 4 3 4
9 11 15 17 18 14 16 12 13 13 13 14 12 9 5 5 8 4 4 3 2 1 2 4 6 3 1 1 1 2 3 2 5 6 5 4 2 7 6 4 5 5 4 1 2 3 1
10 13 16 18 19 15 14 13 13 15 14 13 14 10 9 8 22 17 15 9 5 3 3 5 5 3 2 4 3 2 2 4 3 2 4 8 5 4 4 4 6 3 4 3 4 5 6
11 15 18 17 19 14 14 14 15 19 15 14 16 14 11 13 11 12 15 21 23 10 3 6 1 4 4 3 2 2 2 3 3 3 2 5 4 2 5 3 1 2 2 5 2 1 3

GFSGBSN_850_spd_057.txt.gz
Wind_Speed
21 22 24 24 26 26 24 25 27 28 25 23 25 25 24 22 20 21 17 15 15 13 12 12 11 11 11 14 21 8 10 22 24 27 29 25 29 26 17 21 17 18 11 20 6 8 8
22 23 24 24 25 28 29 25 25 25 27 27 26 26 26 23 20 19 16 14 13 11 11 10 10 10 11 18 14 15 10 10 28 28 30 29 27 28 15 9 21 13 18 13 15 11 9
23 22 24 24 26 29 28 27 26 27 26 28 28 28 28 26 21 18 14 12 12 11 9 8 8 9 14 21 7 10 22 11 10 32 31 30 21 28 10 6 15 5 19 7 17 17 7
22 24 23 24 26 27 29 27 26 26 28 29 30 31 29 24 18 14 12 13 11 10 10 11 9 8 11 13 22 21 11 23 6 27 28 27 21 28 8 6 13 13 13 16 15 13 13
22 23 24 24 26 27 27 28 29 28 28 30 33 31 27 21 14 9 12 7 8 9 12 10 7 9 13 6 19 18 17 22 13 31 24 24 20 24 17 14 11 14 14 17 13 22 10
23 24 24 24 25 26 28 26 27 27 27 30 35 31 29 14 7 6 3 2 6 5 4 6 7 5 14 8 12 15 12 15 11 24 23 20 15 10 12 15 15 21 23 20 18 10 17
22 22 23 25 25 26 28 26 27 27 28 29 32 30 26 9 0 2 2 3 2 3 6 5 2 12 10 12 9 17 17 19 13 29 14 17 7 15 27 25 18 15 19 14 13 8 10
21 22 23 27 27 27 29 27 28 27 28 28 31 28 20 12 8 5 5 3 2 3 6 4 9 9 8 12 3 15 16 20 14 23 18 9 7 17 21 19 14 9 16 14 5 10 8
21 22 24 27 30 27 28 28 27 27 26 27 26 24 12 8 8 8 6 5 3 0 4 2 1 3 5 3 9 13 11 11 17 24 19 12 8 10 11 17 14 12 14 14 8 8 8
21 21 23 27 30 28 28 29 27 26 25 23 21 19 19 5 5 6 6 4 4 1 2 4 5 3 4 7 6 7 7 3 1 21 13 1 6 18 13 17 15 13 10 9 7 12 5
20 20 23 27 29 29 27 28 29 27 23 22 16 14 13 13 3 3 4 1 3 3 1 4 6 5 5 4 14 7 6 5 6 9 5 4 12 13 19 15 16 6 9 10 7 6 1
20 21 22 25 28 29 28 29 30 26 24 21 16 13 10 8 6 7 6 6 7 4 7 2 3 4 6 14 13 10 5 11 16 9 8 5 5 4 2 7 4 14 14 8 4 1 5
19 20 21 25 28 27 31 30 31 30 24 23 16 12 10 8 4 8 7 4 1 6 2 8 4 3 13 14 10 6 3 3 6 5 2 2 3 3 6 9 3 10 13 4 4 4 3
18 20 21 24 27 28 29 31 32 32 26 21 16 10 11 9 8 6 6 3 8 4 5 4 3 13 7 7 6 6 7 11 8 10 3 3 5 1 1 3 6 13 13 3 6 6 6
18 19 20 22 25 27 28 30 31 31 29 20 15 7 8 10 11 4 6 4 2 1 4 4 3 6 4 8 5 4 6 9 4 4 4 2 5 4 1 4 2 5 5 2 1 3 2
17 18 19 20 23 26 27 30 31 31 29 19 12 6 5 12 8 2 2 4 2 1 3 5 3 4 3 4 4 3 5 4 5 1 2 4 5 5 8 11 5 4 7 3 1 5 5
16 17 18 19 22 27 28 28 31 30 29 18 7 4 7 10 7 0 3 4 1 2 3 4 3 3 6 7 4 3 3 3 2 3 2 7 2 3 2 3 4 3 3 1 3 2 3
15 16 17 19 22 27 26 27 28 29 28 20 5 2 10 7 2 3 3 1 1 2 2 2 3 3 4 5 3 2 4 4 3 3 4 2 5 5 2 2 5 5 4 8 3 4 1
16 16 17 18 21 24 26 26 26 26 23 19 8 4 7 5 1 1 2 2 1 2 2 1 1 1 3 3 2 4 3 2 3 1 2 5 5 4 2 2 2 5 7 4 2 3 4
15 16 16 18 21 20 24 25 25 24 19 13 5 3 4 2 2 3 1 2 3 1 1 1 1 1 5 4 2 5 5 2 2 4 5 2 2 2 0 3 3 4 8 8 4 2 3
14 15 14 17 21 18 22 25 26 24 16 9 6 3 3 3 1 7 4 2 2 2 0 0 3 2 2 2 2 3 5 7 3 2 2 1 2 3 3 4 3 3 7 11 6 8 3
13 14 13 16 19 16 18 22 27 26 17 7 4 4 6 6 9 7 1 2 4 1 2 3 2 4 2 1 4 2 6 6 4 6 4 1 2 2 1 1 5 6 9 11 14 15 13
13 12 13 17 17 18 16 19 22 25 21 7 8 5 4 5 5 4 1 4 2 2 0 3 2 4 3 4 3 2 2 2 1 4 7 5 5 4 3 3 5 9 16 16 11 9 16
11 10 13 18 18 17 15 15 17 20 22 11 8 6 4 3 4 3 7 9 6 5 4 1 1 2 2 7 9 9 8 7 5 3 4 5 5 2 1 3 4 3 3 2 16 8 11
8 7 10 16 19 18 14 14 14 13 16 11 10 5 3 4 8 11 6 8 6 3 3 1 2 4 9 4 5 6 3 3 4 2 4 4 4 2 3 4 7 5 3 4 8 9 13
7 7 9 13 18 18 16 16 10 12 12 10 7 8 2 5 3 7 7 8 6 6 5 2 4 7 1 2 3 3 4 3 4 5 2 1 3 3 2 3 3 5 3 3 4 3 6
7 7 11 16 18 19 16 13 11 10 11 11 6 7 3 6 9 7 3 4 5 5 2 6 7 3 2 1 3 3 2 1 4 5 5 5 4 7 6 3 5 5 5 2 3 3 4
7 8 13 16 20 19 13 13 11 11 14 12 7 8 6 7 18 17 12 9 11 6 3 7 6 4 5 4 3 3 3 5 3 1 3 7 5 4 5 4 6 4 4 3 2 1 3
9 10 12 15 18 14 13 13 13 15 13 11 9 9 11 14 17 23 23 18 24 21 10 5 2 4 6 3 2 1 3 2 4 2 4 4 4 2 5 2 4 3 5 6 4 5 3

GFSGBSN_850_spd_060.txt.gz
Wind_Speed
22 23 25 24 25 26 26 26 24 26 25 26 28 29 29 28 26 23 19 16 14 13 12 11 10 8 7 10 21 12 2 23 30 29 25 20 28 24 14 17 13 17 12 22 11 7 2
24 25 25 25 24 26 26 26 25 25 28 28 30 31 32 31 27 23 17 15 12 11 9 7 6 7 8 17 13 13 15 15 29 31 28 27 22 24 12 9 15 13 19 11 13 7 2
23 24 25 25 25 26 27 26 29 27 27 28 30 34 33 29 24 20 13 11 9 9 8 6 4 6 11 21 7 7 15 15 17 28 29 29 20 24 8 7 13 3 9 11 5 14 3
23 23 25 25 26 27 28 26 25 25 25 29 33 34 34 32 21 12 8 8 10 9 9 6 7 5 9 10 16 14 12 16 16 18 27 27 23 20 15 7 2 8 3 10 7 12 10
23 22 25 28 26 27 27 26 27 27 26 28 31 34 33 24 10 6 6 7 5 6 6 9 6 8 10 4 13 15 15 17 14 13 28 24 24 12 21 8 5 6 6 12 10 14 5
22 22 23 26 27 26 27 27 27 26 26 27 29 30 27 23 13 7 5 5 3 3 4 2 8 4 7 6 6 13 16 18 14 15 28 23 12 6 9 9 11 12 10 13 13 17 17
21 21 22 25 27 26 27 28 26 26 25 25 25 27 20 18 15 9 8 7 4 2 7 5 3 12 9 12 11 11 16 22 20 19 7 23 8 17 27 18 9 8 11 14 13 8 14
21 21 21 25 27 27 27 27 28 26 24 23 22 22 19 13 12 12 11 6 2 2 7 8 9 10 7 10 4 10 15 20 13 15 15 9 14 11 14 14 15 8 11 18 4 10 7
21 22 22 24 27 28 29 28 29 27 24 21 19 19 18 10 9 10 10 7 3 3 4 2 3 2 4 4 1 7 9 13 6 20 20 12 8 12 16 16 17 9 8 10 7 5 2
20 22 21 24 27 28 29 29 29 29 24 22 17 16 14 12 6 9 6 7 5 5 3 5 4 2 1 1 3 3 5 3 2 19 14 5 5 13 9 13 15 10 6 3 11 7 3
20 21 20 23 27 28 29 30 31 31 29 21 19 13 12 10 6 5 7 6 6 3 1 11 6 3 4 3 7 5 9 8 3 10 5 3 12 16 5 9 9 7 7 8 7 6 2
20 20 20 22 25 30 30 31 31 32 32 24 19 13 10 7 5 9 8 9 8 1 6 4 3 3 1 4 4 6 7 8 11 9 16 6 5 4 6 8 9 7 9 9 3 1 2
19 20 20 21 24 29 31 32 31 31 32 29 18 10 9 7 3 9 8 5 1 5 2 8 3 4 7 5 7 7 2 6 4 5 3 3 4 4 3 9 5 10 8 4 3 2 3
18 20 20 21 23 27 30 32 31 30 30 30 17 5 10 6 5 5 5 1 7 3 3 5 3 11 7 3 3 1 8 11 8 8 3 3 2 1 3 2 5 6 7 4 5 4 4
17 19 20 19 23 25 30 31 35 30 29 28 15 6 9 10 10 3 2 4 2 1 3 5 3 3 2 5 6 4 7 5 5 3 3 4 2 1 2 3 3 3 1 2 2 2 4
16 19 20 20 22 25 29 30 32 32 29 27 14 5 3 12 6 5 2 4 1 3 5 7 2 2 6 5 3 3 3 4 3 2 4 3 5 2 2 3 8 3 2 1 1 3 3
16 18 19 21 22 26 29 30 32 33 27 24 6 5 4 9 4 1 3 2 3 5 4 5 7 6 7 4 4 6 6 3 4 2 5 8 2 4 5 3 4 2 2 2 0 2 1
15 18 19 20 21 26 27 29 32 32 28 22 5 1 7 4 1 3 2 1 1 5 3 2 5 4 4 2 4 4 7 5 3 3 4 4 5 3 4 5 6 6 3 3 1 3 1
15 18 19 19 22 25 25 28 30 29 24 21 10 5 6 4 2 3 3 2 3 4 5 5 3 5 5 4 2 5 6 1 4 5 3 4 2 3 2 3 1 1 3 1 6 2 3
15 17 18 18 21 22 24 27 28 26 18 11 6 4 6 4 2 3 1 3 3 1 2 2 3 3 1 1 5 3 5 2 3 4 5 4 2 3 3 3 4 3 5 5 4 2 3
14 16 16 17 20 21 22 25 27 26 12 9 8 3 4 3 4 6 5 3 3 1 3 3 3 4 2 2 2 2 6 5 2 1 2 2 3 3 4 6 4 2 5 7 5 6 4
13 15 15 18 22 21 21 23 26 28 15 11 6 5 8 7 12 8 2 1 3 1 1 2 3 2 1 5 6 3 5 5 3 4 3 2 2 2 1 4 5 3 6 8 9 10 8
11 12 13 16 19 21 20 21 23 24 23 9 11 5 3 8 7 5 3 5 6 4 3 2 7 2 3 6 5 6 6 6 5 5 3 4 4 2 1 1 4 6 12 12 7 7 10
9 10 10 12 16 20 18 19 19 18 20 11 11 7 4 4 5 6 8 9 6 6 4 3 4 4 1 5 4 5 7 6 5 4 1 4 3 2 1 1 1 3 3 2 11 9 7
8 9 8 12 16 18 18 17 14 14 14 13 11 6 4 4 9 11 11 6 11 6 4 0 4 2 6 2 3 3 2 2 4 2 3 3 4 2 2 3 6 6 3 2 6 8 8
7 9 8 12 16 19 17 14 11 14 12 14 9 9 4 6 2 11 11 11 5 4 2 4 4 6 2 1 1 3 3 3 3 3 2 2 2 2 1 2 3 3 4 1 2 1 8
7 8 8 11 15 18 14 12 12 11 12 14 10 8 4 7 8 9 3 5 9 7 3 5 5 3 2 1 2 3 2 2 3 5 4 2 2 4 4 2 5 6 6 5 2 3 7
7 7 8 11 14 15 12 12 10 12 13 14 12 10 8 7 21 21 14 13 13 7 3 5 4 2 2 2 2 3 3 3 2 1 6 5 5 3 3 3 6 8 4 2 4 6 7
8 7 9 10 12 13 12 9 11 15 15 14 15 13 10 14 21 27 30 32 25 19 13 7 6 2 6 3 2 2 1 2 3 2 1 3 3 3 6 3 3 2 12 8 8 10 6

GFSGBSN_850_spd_063.txt.gz
Wind_Speed
21 22 23 22 23 24 25 25 24 23 24 24 26 29 31 31 27 22 18 13 13 9 8 8 7 7 7 10 22 9 10 5 31 33 31 28 28 19 8 12 16 13 7 25 19 5 17
20 21 23 22 24 24 24 25 25 23 21 24 27 30 32 31 27 21 12 8 8 6 5 4 5 5 7 9 10 4 10 3 30 30 34 29 23 22 13 12 10 14 19 10 9 10 3
20 20 22 22 23 26 25 26 25 24 23 25 27 30 29 26 20 9 6 4 3 3 3 2 2 2 7 17 7 10 6 7 18 26 30 29 19 24 9 3 19 8 11 3 7 6 2
20 20 22 23 24 25 26 26 26 24 23 25 26 28 26 24 18 12 7 4 3 3 3 2 3 3 7 9 6 14 5 6 10 23 29 27 21 20 6 5 3 5 6 5 8 10 5
20 20 22 23 24 26 25 26 25 25 23 23 25 26 22 21 18 14 12 9 4 1 1 3 3 3 8 9 5 8 8 8 7 12 27 28 21 10 13 5 3 2 4 6 7 12 6
19 20 21 23 24 26 26 25 25 24 25 22 21 23 20 17 14 12 11 8 4 2 5 5 3 1 4 6 8 6 9 7 7 12 17 21 12 4 3 5 14 16 9 10 8 8 8
19 20 20 22 23 27 26 25 26 26 24 21 19 19 20 11 11 10 7 6 2 2 4 5 3 6 7 8 11 5 11 9 6 10 9 21 8 19 26 11 6 7 3 6 7 7 6
19 20 20 22 24 28 26 28 29 27 26 23 19 16 16 11 8 10 11 4 3 3 6 8 8 7 8 7 3 5 8 5 4 1 9 8 15 10 9 8 6 9 9 8 2 6 13
18 20 20 22 24 26 30 28 27 30 29 27 20 14 12 11 7 9 9 9 4 2 3 2 3 4 3 1 2 7 12 8 2 5 10 12 8 12 12 10 11 6 6 5 4 3 4
17 19 19 21 25 26 30 30 28 28 29 30 25 15 9 9 3 7 4 4 2 4 2 3 3 2 1 3 1 6 11 5 1 10 10 6 4 11 12 13 7 6 6 3 13 5 4
17 19 19 21 24 26 29 32 29 28 28 29 26 18 5 6 3 4 7 3 4 1 3 8 3 1 1 1 3 9 21 8 7 10 5 2 5 10 10 3 3 5 1 7 5 6 4
16 18 19 20 23 26 29 33 32 29 29 29 23 14 7 4 3 6 6 5 4 1 5 3 6 1 1 3 6 4 6 8 13 12 12 5 6 4 3 3 3 5 8 7 5 2 1
15 17 19 20 22 25 28 32 34 30 29 28 22 9 7 4 1 8 3 2 3 6 4 8 4 1 4 5 5 4 5 2 4 6 3 4 3 4 2 3 6 2 5 2 2 1 5
15 17 18 20 22 25 29 33 34 32 29 28 21 6 7 8 8 3 3 2 10 3 3 3 3 5 3 2 3 3 8 5 7 7 4 4 5 2 2 4 3 9 4 5 6 4 4
14 17 19 20 22 24 29 32 32 32 29 27 16 3 7 11 7 3 2 6 3 3 3 8 7 4 4 5 4 5 3 4 3 2 5 4 3 1 2 2 2 6 4 3 3 2 4
14 17 19 21 22 24 28 30 33 32 27 24 12 4 3 11 1 3 4 5 2 4 3 3 3 2 3 1 0 3 3 5 5 4 7 6 5 3 5 1 2 3 0 1 3 3 4
13 16 19 21 21 24 26 29 31 32 28 22 5 4 5 9 1 3 3 1 4 9 7 2 5 4 1 3 1 2 4 3 4 7 6 2 4 4 6 4 6 2 1 2 2 4 4
13 15 19 22 21 24 25 27 29 31 29 22 5 3 7 8 3 3 3 4 4 4 10 5 3 4 1 4 6 5 3 2 5 4 7 5 3 3 1 4 7 2 4 4 4 4 2
12 15 18 21 22 23 23 25 26 26 22 21 6 4 5 7 3 2 2 5 5 3 3 2 1 3 3 3 3 3 4 5 9 3 3 3 2 3 2 2 4 4 5 5 3 2 4
11 15 18 18 21 21 21 24 24 22 15 11 4 4 6 4 4 3 4 3 4 5 3 3 2 2 1 2 3 4 2 2 3 2 2 2 2 3 6 4 4 5 12 5 5 3 2
10 13 14 15 19 20 20 24 25 21 13 8 7 3 5 4 3 5 7 4 4 2 3 3 4 4 3 4 4 4 3 1 1 1 3 3 3 2 2 4 3 2 4 8 5 4 5
7 10 11 14 18 20 19 22 23 24 14 14 5 5 9 7 11 5 1 2 4 3 2 2 2 2 5 4 3 3 6 4 3 2 2 2 1 2 3 4 4 3 6 7 6 5 3
5 9 10 12 16 19 19 20 19 23 23 10 12 5 3 7 6 5 5 7 7 7 1 1 3 4 4 3 4 5 8 8 7 7 4 3 4 3 2 1 3 6 10 10 6 5 9
4 8 8 11 15 17 18 16 15 17 20 17 14 7 4 4 3 4 9 11 9 11 2 2 5 2 2 4 5 8 10 9 8 4 3 4 4 2 2 3 1 6 2 8 14 10 8
3 7 7 8 13 16 14 12 12 16 13 15 13 8 4 3 6 6 13 7 11 16 4 3 0 1 1 2 3 3 1 2 2 4 3 3 3 2 3 3 5 1 3 4 7 8 9
4 5 6 7 12 15 13 11 11 10 12 13 13 7 2 3 1 8 5 8 3 5 4 1 4 5 2 2 2 3 4 4 3 2 4 3 2 4 2 1 3 2 2 2 4 4 7
3 5 6 8 10 12 9 11 8 9 14 12 10 8 2 5 8 8 3 5 7 4 5 1 1 2 1 2 1 2 3 5 4 5 4 2 1 4 4 2 5 3 3 4 2 2 2
4 4 6 9 8 11 10 9 7 10 14 14 12 9 8 6 21 11 5 11 12 5 3 9 2 2 2 2 3 3 2 3 3 4 6 5 5 3 3 3 6 6 3 2 3 3 12
5 4 5 8 8 12 11 10 9 12 15 17 19 16 12 12 15 27 28 26 24 19 12 5 6 3 2 1 1 1 1 1 3 2 1 3 5 4 6 5 4 7 4 6 10 10 7

GFSGBSN_850_spd_066.txt.gz
Wind_Speed
17 18 18 18 19 22 21 23 22 21 19 21 22 25 27 27 23 17 12 6 6 7 6 5 6 6 7 9 16 12 5 6 16 30 28 27 22 20 7 8 18 3 12 12 14 23 26
17 18 18 18 21 22 21 23 23 22 21 20 22 25 24 23 20 15 8 1 3 3 3 2 1 4 8 6 9 5 17 13 14 33 32 30 19 22 16 10 13 11 7 19 4 11 16
16 18 18 18 22 23 23 23 23 22 21 21 21 22 21 19 18 15 9 4 1 3 3 2 1 2 6 13 2 7 11 7 12 27 29 29 12 24 10 3 12 5 14 4 18 11 8
16 19 19 19 20 23 23 23 24 24 23 21 20 20 20 16 13 12 9 4 2 2 3 4 1 3 5 7 4 5 4 2 7 21 26 29 18 28 4 3 8 6 6 7 11 10 10
16 18 20 19 21 22 22 24 24 24 23 22 20 19 18 14 10 9 9 6 3 5 4 3 2 3 5 4 5 6 10 2 2 7 24 21 22 10 12 3 3 2 6 6 7 17 5
15 17 20 20 21 22 24 22 23 25 24 22 20 15 15 11 8 7 5 2 2 5 5 5 3 2 1 3 4 5 6 5 7 3 16 14 10 4 4 6 15 20 7 5 11 12 7
14 17 19 20 21 22 24 24 23 22 25 23 20 15 11 8 7 9 4 1 2 1 5 4 3 2 4 6 8 1 9 7 3 12 9 13 9 20 21 9 2 10 6 8 3 6 5
14 17 19 21 22 22 24 24 25 24 24 24 23 17 10 6 3 8 8 2 2 2 3 3 9 11 8 6 2 5 12 5 3 3 3 6 16 9 9 9 3 12 6 6 1 4 7
14 16 18 20 21 23 24 26 26 24 24 25 26 18 9 6 1 4 7 4 4 3 2 5 4 2 3 3 0 6 10 10 2 2 1 10 8 11 9 7 6 3 10 4 4 2 2
14 16 17 19 21 23 25 28 29 26 26 25 27 18 7 6 2 2 3 2 1 2 2 0 1 2 1 1 1 6 9 4 3 2 0 1 11 12 8 7 4 2 6 6 6 5 5
13 15 18 19 21 23 25 28 29 26 25 24 24 18 6 4 1 2 4 1 2 2 2 5 1 1 1 1 3 6 12 4 6 4 3 3 14 15 12 8 5 4 4 8 5 6 4
13 14 18 19 21 23 26 28 29 27 25 23 23 13 6 4 3 0 2 1 3 3 6 2 2 0 2 4 3 2 9 4 8 8 6 6 7 5 2 3 3 2 5 7 5 3 1
13 13 17 19 21 23 26 29 28 27 25 22 19 6 6 4 3 0 1 1 3 6 3 4 2 3 5 5 3 3 3 1 4 5 4 6 4 2 3 5 2 1 6 2 2 2 5
13 13 16 18 21 23 26 28 28 27 24 20 13 3 5 7 5 2 1 3 8 1 1 2 3 5 3 3 1 7 7 4 4 11 5 4 5 2 3 3 3 4 4 5 5 3 3
12 14 15 18 21 22 26 28 28 27 23 18 6 5 7 7 5 1 2 5 7 5 3 3 4 1 3 2 1 4 3 1 3 3 5 5 1 0 2 2 1 3 2 2 5 3 3
11 13 16 18 20 22 25 26 27 27 23 16 3 5 10 9 6 3 3 2 3 5 2 1 2 0 3 3 2 2 1 2 3 2 3 4 5 2 4 3 3 3 2 2 2 3 4
11 13 16 19 20 22 23 24 25 25 23 11 4 3 9 9 4 2 3 4 4 8 6 3 2 1 1 2 4 2 2 2 2 3 3 5 4 3 6 7 6 5 4 2 3 4 4
9 11 15 18 20 21 20 21 22 24 22 11 3 3 7 10 5 2 1 2 1 3 4 4 2 2 2 2 4 3 3 2 2 7 4 3 4 4 4 3 7 1 5 4 4 4 1
8 10 13 17 19 17 18 20 20 20 18 15 3 2 5 6 3 3 3 3 1 2 2 2 2 2 2 2 4 3 3 1 3 4 7 5 2 3 2 2 2 4 4 3 3 3 5
6 8 12 15 16 16 17 20 20 17 13 7 3 3 3 3 4 4 4 3 3 1 4 3 3 3 3 4 5 3 2 2 3 3 2 4 3 4 5 4 5 5 8 7 5 3 3
4 7 10 11 15 16 17 20 20 17 11 3 5 3 3 3 3 5 4 4 2 2 2 3 4 2 2 1 2 3 2 2 3 1 2 3 3 3 2 3 3 3 6 9 8 11 7
2 6 8 10 14 17 18 18 20 18 11 15 4 3 3 3 7 3 2 4 3 5 3 2 1 6 2 3 3 6 4 3 3 0 2 2 2 2 3 1 2 2 6 9 9 5 5
2 5 7 9 13 16 15 15 18 21 19 11 8 4 2 4 4 1 2 4 5 9 1 1 1 3 1 1 2 2 3 5 4 6 2 2 4 3 3 1 2 6 10 11 8 6 8
2 3 5 8 12 15 14 12 13 15 19 18 15 6 3 2 2 2 4 7 6 6 2 8 3 0 1 2 4 7 9 9 8 3 4 4 4 2 2 2 1 5 1 6 12 5 8
3 2 5 7 11 13 12 11 9 11 13 14 13 7 3 1 3 4 9 4 9 10 3 4 4 2 1 1 3 3 4 2 1 2 4 3 4 2 3 3 5 2 4 5 7 7 11
3 1 4 7 9 11 10 10 7 10 12 10 11 9 4 1 2 6 5 7 3 3 4 3 3 4 2 2 2 4 4 5 3 3 2 4 5 3 1 1 4 2 1 3 5 5 6
4 1 3 6 7 9 9 8 5 9 12 11 6 6 4 2 4 4 1 4 5 3 4 4 7 2 2 2 2 3 3 4 4 5 4 3 2 4 3 3 6 5 2 5 3 4 4
5 1 2 5 5 8 9 9 7 9 13 14 11 7 7 4 13 8 6 6 5 5 3 7 3 3 1 3 2 3 3 4 2 4 5 5 5 3 3 3 6 3 3 3 3 2 4
5 3 2 4 6 7 11 10 10 11 14 17 7 6 3 7 8 11 20 24 25 20 8 3 4 6 3 2 1 1 2 0 3 2 1 3 5 4 7 5 5 10 4 5 5 6 6

GFSGBSN_850_spd_069.txt.gz
Wind_Speed
14 16 17 18 18 19 20 20 20 18 18 18 18 20 23 22 20 18 12 9 4 4 2 4 4 5 5 5 10 4 1 12 9 17 21 18 18 13 12 8 10 2 14 16 14 8 9
14 16 16 17 18 20 19 19 19 19 19 17 18 18 21 19 17 15 13 9 5 2 0 1 1 4 5 2 4 9 14 10 5 21 26 25 14 13 9 8 9 9 6 19 13 11 16
14 17 18 20 19 19 20 19 20 20 18 20 18 16 16 18 14 12 9 6 4 2 0 1 2 3 4 6 3 5 10 10 6 16 29 28 8 19 3 2 10 5 6 7 10 13 6
13 16 18 19 18 19 19 19 20 22 20 18 19 17 14 12 10 8 9 4 1 1 2 1 1 3 4 3 2 6 8 8 5 16 26 27 18 25 3 4 5 4 5 4 10 15 7
13 16 18 19 20 18 20 21 20 18 21 21 18 17 13 10 7 8 5 4 1 3 3 3 3 4 3 2 3 4 2 8 5 16 28 22 21 11 3 5 4 3 6 11 6 23 9
13 15 18 19 19 20 19 21 21 19 19 21 19 16 12 10 4 6 6 3 1 3 3 2 1 2 3 4 6 1 6 2 6 13 15 15 11 6 3 5 16 21 9 12 12 16 20
14 14 17 19 19 20 19 21 22 22 21 20 20 18 12 8 4 4 4 2 2 2 5 4 0 1 5 7 6 3 9 8 5 5 7 12 4 21 22 8 1 7 6 12 1 8 12
15 15 16 19 20 21 21 24 23 22 21 20 21 20 13 6 4 2 3 2 4 1 0 2 8 7 7 6 3 3 10 4 5 2 4 6 12 13 8 8 4 10 5 8 2 4 11
15 15 16 18 20 23 22 23 26 23 22 21 21 21 13 5 4 1 2 2 5 2 2 2 2 0 1 1 1 4 6 8 6 3 4 2 10 11 10 5 6 2 6 5 6 4 3
15 16 16 18 20 23 24 26 26 24 24 21 20 20 10 2 4 2 1 2 2 1 0 0 2 1 0 3 3 3 8 5 4 4 5 1 15 12 12 5 4 4 3 5 7 5 4
15 16 16 18 20 23 25 27 27 25 25 22 20 17 6 2 3 2 2 2 1 1 4 2 4 2 2 2 4 5 6 2 8 5 5 4 18 14 10 6 5 3 2 5 3 3 3
14 15 17 19 20 23 24 27 28 27 25 22 18 12 3 1 3 4 2 3 1 4 2 2 1 3 5 1 0 5 4 2 3 2 4 6 6 5 3 4 3 4 5 6 5 3 2
13 13 16 18 20 23 24 27 27 26 25 21 15 4 2 1 2 4 4 2 4 5 1 3 0 3 2 4 5 3 6 6 3 2 1 12 4 3 3 7 2 3 4 2 2 1 5
12 11 14 17 20 22 24 26 26 25 24 19 9 2 3 3 2 4 3 3 7 3 1 0 1 5 1 1 4 4 2 3 3 2 5 4 5 2 4 3 5 3 4 4 5 4 3
11 11 13 16 20 21 24 25 24 24 23 18 1 4 3 3 2 1 2 4 6 6 2 1 2 2 1 3 3 3 3 1 2 5 3 4 3 2 4 1 2 4 3 3 6 3 3
10 10 12 15 19 20 22 23 24 23 21 16 4 4 4 5 2 1 3 1 2 4 3 2 3 1 2 2 2 2 3 2 4 6 2 3 5 1 1 3 2 2 2 1 3 3 4
8 9 12 16 18 19 20 21 23 21 20 9 3 1 4 5 0 1 3 4 3 5 4 2 2 1 1 3 1 3 2 2 3 4 4 4 3 3 6 6 7 2 2 2 3 4 4
7 9 11 15 17 18 18 20 21 21 18 9 1 1 4 6 2 1 1 2 1 2 3 2 2 3 1 2 3 2 3 1 4 9 4 2 4 5 2 3 3 4 4 6 4 4 1
7 7 10 13 15 16 17 19 19 18 15 10 2 2 4 6 2 2 2 1 1 1 2 2 2 3 2 2 3 2 2 1 4 6 6 5 2 4 1 2 2 6 6 4 3 3 6
7 6 8 11 13 15 16 17 19 16 12 5 2 2 3 3 3 1 4 3 1 1 2 2 2 2 2 3 5 2 2 1 2 3 3 5 3 5 7 5 4 6 9 7 6 4 4
7 5 6 10 13 14 15 16 17 15 11 2 3 1 1 3 3 4 1 3 2 2 1 3 1 3 2 2 2 2 1 2 4 3 4 3 4 3 2 1 3 3 9 17 9 14 9
8 5 5 8 12 13 14 14 17 17 10 9 3 2 1 2 6 4 4 3 5 5 4 3 2 4 2 2 2 5 4 2 3 1 2 2 1 2 2 2 4 4 7 12 16 8 8
9 5 3 7 10 12 12 13 15 17 16 10 6 4 2 4 5 1 3 4 4 6 2 6 4 3 2 2 2 1 5 4 3 6 3 3 5 3 4 3 3 6 8 11 6 6 11
10 4 1 4 8 10 12 11 11 15 17 15 11 4 2 0 2 2 4 7 5 9 2 9 6 1 3 2 4 5 9 8 5 3 4 4 4 2 2 2 1 5 1 4 11 4 11
10 5 1 2 5 8 10 9 8 12 13 13 12 7 3 0 1 2 6 3 10 9 4 3 5 3 4 1 3 3 4 4 1 3 2 3 4 2 3 3 6 3 2 4 5 6 13
12 7 3 2 4 6 7 7 6 10 13 12 9 9 4 2 3 1 2 3 2 3 5 3 3 3 2 2 2 2 3 3 2 1 3 4 5 4 1 1 4 3 2 3 3 5 5
14 8 4 2 2 5 7 7 5 7 11 14 10 8 5 3 2 3 2 2 4 0 2 4 9 4 0 1 2 2 3 3 3 4 4 2 1 4 3 2 6 6 3 6 4 5 9
14 9 5 2 2 3 6 6 6 7 10 14 13 5 5 4 9 6 4 6 4 2 1 6 4 1 2 3 2 3 3 4 2 3 5 5 5 3 3 2 6 3 3 4 4 5 5
15 10 6 2 1 2 4 5 7 7 8 11 9 5 4 6 6 8 12 14 16 15 5 2 1 4 6 2 1 1 2 1 3 2 1 2 6 4 7 5 5 6 5 4 5 2 2

GFSGBSN_850_spd_072.txt.gz
Wind_Speed
16 16 17 17 16 17 17 19 18 18 17 18 16 17 17 20 18 16 14 10 7 5 3 1 2 3 1 3 6 2 4 15 19 17 17 12 12 9 5 7 7 2 6 14 6 6 7
16 16 17 18 15 17 17 18 19 20 19 17 19 17 15 16 16 14 10 8 5 4 2 2 1 0 2 1 3 3 5 7 9 14 13 16 10 12 8 6 7 8 3 14 8 7 2
15 16 17 18 19 15 17 18 18 17 20 21 17 18 15 13 14 11 12 6 3 2 2 4 3 1 2 3 3 3 5 8 8 15 17 18 9 15 4 4 13 8 7 7 8 7 2
16 16 17 18 19 19 16 18 18 19 17 20 21 18 17 13 9 9 8 8 4 1 0 1 2 4 1 3 3 4 2 7 12 11 21 18 18 21 2 3 8 4 5 5 8 18 6
17 16 17 19 19 20 18 17 19 20 19 19 20 19 18 13 10 7 9 6 4 2 1 1 4 4 2 3 4 6 2 6 12 15 22 14 21 6 4 6 4 5 7 6 8 17 8
18 17 17 19 20 20 19 18 19 19 21 21 19 20 17 13 10 5 8 3 2 2 1 1 2 3 3 4 9 2 4 2 2 9 17 15 12 4 3 5 15 11 5 3 6 12 8
18 18 17 19 21 21 21 17 19 20 21 20 20 20 18 13 8 4 5 2 2 1 4 1 2 1 4 8 5 3 6 1 5 8 8 18 2 19 18 4 1 8 6 7 3 10 15
19 18 17 19 21 22 23 20 21 19 21 21 20 20 19 12 5 3 2 3 4 2 1 2 7 8 6 6 1 4 6 4 4 10 7 5 3 10 8 5 4 9 6 4 2 10 8
20 19 18 18 21 22 23 23 21 20 21 22 21 20 18 7 3 3 1 3 4 3 2 2 2 2 2 3 2 3 6 8 1 5 5 5 2 10 7 4 5 3 8 5 5 4 3
20 19 19 18 20 22 24 23 23 22 23 22 19 19 13 2 3 3 2 3 2 2 2 2 1 1 1 1 1 2 5 2 4 3 4 2 6 14 11 5 4 4 5 6 8 5 4
20 19 19 19 20 22 24 24 23 22 23 22 19 18 8 3 3 2 1 4 2 1 2 2 2 0 1 1 3 1 3 2 6 4 2 3 15 9 12 8 3 3 5 5 3 4 2
18 18 18 19 20 22 23 24 24 23 22 21 18 14 2 1 6 3 3 3 2 5 2 2 2 4 3 1 2 4 2 3 5 4 1 3 12 1 4 3 3 6 6 7 5 3 1
16 17 17 18 20 23 23 24 23 22 21 20 15 4 3 3 4 5 5 2 4 5 1 1 2 4 3 4 4 4 2 2 3 3 3 7 4 2 4 7 4 5 6 2 2 0 4
16 16 16 17 19 23 22 23 21 21 21 19 7 4 5 4 5 7 4 3 7 4 3 1 0 8 3 8 3 6 5 3 3 5 4 4 6 2 3 4 6 3 3 4 5 4 3
15 15 15 16 18 22 22 21 22 20 19 15 2 5 5 3 4 5 3 4 6 4 2 2 0 2 2 1 3 5 7 6 6 9 1 4 4 2 5 2 2 4 3 3 6 3 3
15 15 15 16 18 20 20 21 21 19 17 10 7 5 4 3 4 3 3 2 2 3 2 2 1 4 2 3 3 3 2 2 2 2 1 1 6 3 3 2 5 3 5 2 3 3 4
14 14 14 14 17 18 18 19 19 18 15 7 5 3 2 3 3 1 2 4 4 6 4 2 2 2 1 4 3 3 2 1 3 3 6 2 3 3 3 3 5 2 2 2 3 4 4
14 14 12 13 15 16 16 17 18 18 14 5 2 1 1 1 2 1 1 3 1 1 3 2 1 0 2 1 4 6 3 2 4 9 4 2 4 3 2 3 3 3 5 5 4 4 1
14 13 11 11 14 14 14 15 17 17 13 6 1 2 1 1 1 2 3 1 1 1 1 1 1 3 2 2 3 1 1 2 7 7 7 6 2 4 1 1 2 4 4 3 4 3 6
15 12 9 10 12 12 12 13 16 15 11 5 1 1 1 1 3 2 3 3 3 1 3 2 2 2 3 3 5 2 2 3 4 2 3 5 3 5 7 5 3 6 8 10 6 6 4
14 11 8 9 10 10 10 12 15 14 10 4 4 1 1 2 3 3 1 4 4 4 3 5 3 4 2 2 2 2 2 1 3 4 3 3 3 3 3 2 3 3 10 14 20 19 10
14 12 8 7 8 8 8 10 12 13 7 10 3 2 1 1 5 2 3 3 4 5 4 4 4 5 4 3 2 3 4 2 2 2 2 2 2 3 2 3 5 5 8 13 18 17 17
15 12 8 6 4 5 7 9 11 13 8 7 5 3 1 3 3 1 2 2 2 4 5 7 3 2 4 2 4 5 3 1 2 6 3 2 4 3 3 3 3 6 9 13 10 13 16
16 12 9 4 1 3 7 7 11 13 14 14 10 3 3 1 2 2 2 3 4 3 2 8 4 1 1 2 2 3 9 7 4 4 3 4 3 2 2 2 1 5 2 4 11 6 14
17 14 10 6 2 3 5 5 7 10 11 12 13 6 3 2 1 1 4 4 8 6 4 4 4 4 5 2 3 4 4 3 1 2 2 2 4 2 2 3 7 1 1 5 5 4 9
19 15 12 6 4 3 3 4 4 7 9 10 9 8 3 5 1 2 2 3 3 4 6 4 4 6 3 2 2 3 3 3 2 0 3 4 4 3 1 1 4 4 3 3 3 4 3
21 17 12 7 6 3 3 3 3 5 8 10 8 6 2 3 2 1 2 1 2 1 2 4 9 5 3 1 2 2 3 3 3 4 4 2 2 4 3 3 7 6 5 4 3 4 10
23 18 13 9 7 4 2 3 3 5 7 9 9 7 3 1 1 2 1 1 1 2 1 7 4 0 3 2 2 3 3 4 2 3 5 6 5 3 3 3 6 4 3 3 4 6 8
24 19 14 9 6 4 3 3 4 6 5 7 8 8 3 0 2 4 7 7 7 7 4 3 2 3 3 2 1 1 2 2 3 3 1 3 6 4 7 5 5 5 9 5 7 7 5

GFSGBSN_850_spd_075.txt.gz
Wind_Speed
17 18 18 19 19 14 19 17 17 19 18 20 16 17 15 12 16 14 12 9 7 5 4 4 4 2 2 3 2 4 4 10 20 17 14 14 13 12 4 8 8 3 5 11 10 8 7
20 18 18 19 18 17 17 17 18 18 17 18 21 18 16 11 10 11 13 9 6 4 4 4 4 3 1 1 3 1 2 6 10 19 13 13 7 14 7 7 6 11 2 10 13 7 5
18 18 18 19 19 18 20 16 19 18 18 17 19 19 18 13 10 9 7 9 6 3 2 3 4 3 1 1 4 3 2 6 9 18 12 14 10 11 2 4 7 11 8 4 7 7 4
18 18 19 19 19 19 18 19 19 19 18 19 19 18 16 14 11 7 8 7 7 4 1 0 2 4 1 3 6 4 1 2 10 4 23 13 11 13 2 4 7 4 5 7 5 16 4
18 18 18 19 20 20 19 17 19 19 20 20 20 19 18 14 11 6 6 9 6 4 3 2 2 2 3 3 4 6 1 1 8 8 17 12 15 6 4 5 4 3 6 5 5 16 8
18 18 18 19 20 20 20 20 18 20 20 20 20 19 18 16 10 5 6 5 4 3 3 3 1 2 2 2 6 3 3 2 7 10 15 12 5 2 2 5 15 7 6 5 8 10 9
18 19 18 19 20 21 21 20 19 20 19 20 20 18 17 17 10 3 4 2 1 2 4 1 1 1 2 7 1 2 2 1 4 4 6 14 4 11 10 4 3 7 5 9 5 9 6
18 19 18 19 20 21 22 22 20 19 20 20 20 18 17 13 7 3 3 3 3 1 2 2 4 7 7 5 1 7 2 2 3 5 11 5 2 10 7 5 6 11 8 4 2 7 8
17 19 19 19 20 21 22 22 22 21 20 20 19 19 17 9 3 2 1 3 2 2 1 1 1 2 1 2 2 7 7 4 3 3 13 7 2 12 7 5 8 2 9 5 5 5 3
16 18 19 18 20 21 22 23 23 20 20 20 19 17 13 2 1 2 1 3 3 1 3 0 0 1 1 1 2 5 6 3 1 6 4 3 11 17 10 6 6 4 5 6 9 9 4
17 18 19 18 20 21 22 24 23 21 20 19 19 15 6 3 4 3 2 4 3 2 4 1 2 1 1 2 1 1 4 2 2 7 2 2 11 12 8 8 5 4 5 6 3 4 3
17 18 20 19 20 20 22 24 22 20 18 18 17 9 2 4 5 4 4 4 3 5 2 2 1 3 2 4 3 1 1 3 5 6 4 3 10 2 2 3 1 9 7 7 4 3 3
15 18 19 18 20 20 23 23 20 19 18 18 12 4 5 6 4 4 5 2 3 5 1 0 3 2 3 1 2 1 1 2 3 5 1 7 3 1 1 7 1 4 6 2 1 2 4
16 17 19 18 19 21 22 21 19 18 17 16 3 6 6 6 6 5 4 3 7 1 1 1 4 4 2 6 2 3 2 3 5 4 3 3 3 6 1 2 5 3 4 4 6 4 3
17 17 18 17 18 20 20 19 18 17 15 11 6 7 6 5 6 3 1 4 6 5 2 2 1 3 2 4 3 3 2 2 3 3 3 4 2 3 3 1 2 3 3 3 6 2 2
17 16 16 16 17 18 19 17 17 16 12 5 8 6 6 3 5 2 3 1 1 4 3 0 1 1 2 3 2 0 1 4 3 7 11 2 5 4 2 3 8 2 5 2 3 3 3
17 15 14 15 15 16 17 16 16 15 10 1 9 4 4 3 5 1 2 4 4 4 3 3 0 1 4 4 4 4 4 1 5 8 5 2 2 2 3 1 5 1 2 4 3 2 3
17 15 14 14 13 14 16 15 15 14 8 1 5 2 5 5 1 1 1 4 2 2 3 2 2 3 1 3 2 2 5 3 8 8 6 4 3 3 2 1 2 1 3 3 3 3 1
17 15 14 13 12 12 14 13 13 11 7 2 5 4 5 5 1 2 3 2 2 2 2 3 1 2 2 3 4 2 3 2 5 2 6 6 2 4 2 0 2 3 4 3 4 3 6
18 15 13 12 10 11 13 11 11 10 6 2 3 2 3 2 0 1 1 2 0 0 1 1 2 2 2 4 5 3 2 2 5 1 3 5 3 5 6 5 4 5 6 7 5 4 3
19 15 13 11 9 10 10 8 9 10 5 2 2 1 3 1 1 2 0 2 2 4 5 6 2 3 1 2 3 2 2 3 4 4 3 2 2 3 3 3 4 5 6 12 15 12 12
20 16 14 11 8 9 7 5 8 9 2 1 2 4 3 4 1 2 3 3 4 4 4 3 3 4 3 4 2 3 2 1 3 2 3 2 2 2 2 3 4 3 7 9 15 15 17
20 17 14 10 8 6 2 3 8 9 3 2 5 7 3 3 2 2 2 2 4 4 2 6 3 2 5 3 2 2 3 0 3 6 3 3 4 2 3 2 1 5 10 13 7 7 13
21 18 15 10 7 4 1 4 8 7 7 7 7 7 3 1 3 2 1 2 3 4 2 5 7 2 4 7 3 1 9 7 5 5 4 5 4 2 2 2 1 4 2 4 13 11 13
23 20 15 11 7 5 3 4 6 8 7 7 8 5 5 3 3 2 2 2 3 3 1 2 3 5 8 2 2 3 4 3 3 4 2 2 4 2 2 2 6 1 1 5 5 4 7
24 22 17 13 8 7 5 4 3 5 6 6 8 8 6 11 1 4 2 1 0 2 4 2 2 5 1 2 1 3 2 2 2 2 4 4 4 3 2 1 4 4 2 4 3 4 4
27 23 19 14 11 9 7 4 3 3 5 7 8 7 6 8 4 5 3 2 0 1 1 2 6 2 1 1 2 3 3 3 3 4 3 1 1 4 4 3 7 6 5 6 3 4 5
28 24 20 16 13 10 7 5 4 4 6 7 8 8 6 7 7 6 4 3 3 2 2 3 0 2 2 2 3 3 3 5 2 4 5 6 5 3 2 4 7 6 4 5 4 3 5
30 26 22 17 15 11 8 6 5 6 7 7 7 8 11 7 7 5 1 3 4 4 1 1 1 1 3 2 0 1 1 2 4 3 1 3 6 4 7 6 5 8 10 7 6 7 5

GFSGBSN_850_spd_078.txt.gz
Wind_Speed
16 18 18 17 18 20 19 16 15 16 17 14 17 19 17 13 10 13 11 9 7 6 5 4 3 1 1 3 4 5 7 9 15 21 21 15 20 22 16 18 17 15 18 16 11 8 9
17 17 18 18 18 20 20 19 16 19 16 15 16 19 19 14 10 8 7 9 7 4 4 4 4 3 1 1 3 4 3 6 12 19 22 14 17 17 18 15 17 17 6 23 13 7 4
16 18 19 19 18 19 21 18 17 18 17 17 18 18 18 16 9 9 5 5 7 3 2 2 4 3 1 1 5 5 2 1 3 14 11 8 12 11 14 11 10 15 7 8 14 12 6
17 17 19 19 19 18 20 20 19 18 18 18 18 18 17 19 9 10 5 6 7 4 2 2 3 3 1 1 5 5 3 2 7 5 20 1 9 5 10 7 13 10 16 9 13 12 3
17 16 18 20 20 19 20 20 20 18 17 16 17 18 17 18 11 8 5 7 5 3 3 2 3 1 1 1 4 6 2 2 6 5 21 8 6 6 8 13 11 13 12 21 10 16 7
16 17 16 19 21 20 20 21 21 21 17 15 18 18 16 16 12 7 5 4 1 2 2 2 1 2 1 3 8 6 1 1 5 5 9 10 5 4 10 13 14 14 11 13 13 11 10
20 18 16 19 21 20 20 22 23 21 18 16 18 17 16 15 9 6 4 1 2 1 2 0 1 1 1 6 5 4 2 1 5 5 5 8 1 8 16 15 5 14 10 11 9 8 12
23 18 16 19 22 21 21 21 23 23 17 17 17 17 15 14 6 2 3 3 3 3 2 1 2 4 4 2 2 1 4 0 4 7 9 3 2 9 10 10 11 14 13 13 8 12 12
22 17 16 18 22 21 21 21 23 22 18 17 16 16 14 8 2 3 3 4 3 3 1 1 0 1 2 1 1 4 2 4 1 8 7 7 3 13 13 13 13 14 16 12 10 10 11
22 16 16 17 22 21 20 20 23 22 18 17 16 15 10 1 2 3 1 4 5 4 2 3 1 1 2 1 2 4 6 2 1 7 9 5 8 12 11 15 14 13 10 13 11 12 5
22 17 16 17 22 20 19 20 22 21 18 16 16 12 2 4 6 4 1 4 3 3 1 1 1 1 1 3 1 3 2 3 3 4 4 3 10 12 16 15 10 5 12 10 9 10 4
22 19 16 16 20 19 18 20 21 18 16 16 13 4 5 7 6 5 5 3 3 2 4 1 0 2 0 4 3 2 2 3 2 6 6 5 14 4 9 5 3 13 13 9 5 3 6
22 20 17 15 18 17 17 19 19 18 15 14 5 5 8 8 5 5 5 1 1 3 1 2 2 1 3 1 3 4 1 2 2 5 3 5 6 1 4 10 10 9 17 5 4 5 5
20 23 18 15 16 16 16 17 17 15 13 10 5 7 9 9 8 5 2 1 3 1 2 5 3 5 2 3 1 1 4 1 1 3 3 3 4 5 3 5 7 15 10 3 6 5 5
18 23 18 16 15 14 15 16 14 12 10 4 8 9 7 6 6 2 1 0 2 3 2 4 8 4 3 3 3 3 2 4 1 1 2 3 3 2 6 2 2 4 6 2 4 1 2
20 21 18 16 14 12 14 14 12 10 7 2 10 8 5 5 5 2 1 1 1 2 1 2 1 1 4 6 5 3 4 4 4 2 1 2 5 1 4 1 4 2 9 3 0 5 4
21 21 17 15 13 11 12 12 10 9 4 6 11 5 5 5 5 1 1 1 1 4 4 2 1 4 2 2 3 4 3 1 3 3 6 2 2 4 8 3 8 4 4 1 1 2 2
26 20 18 15 13 10 10 10 8 7 1 10 8 2 7 7 3 1 1 1 1 3 3 2 1 2 4 3 1 1 2 1 14 7 6 3 4 4 2 1 1 1 3 11 6 5 0
29 20 18 15 12 9 9 9 6 4 3 11 7 4 7 7 2 2 1 1 1 2 2 2 1 1 1 4 2 2 3 2 10 7 5 5 3 6 4 3 2 5 8 4 3 2 7
28 21 18 15 12 9 9 7 5 2 4 11 6 3 3 4 3 2 2 1 2 1 1 1 1 3 5 4 1 4 3 2 6 2 3 3 3 3 6 2 4 7 14 14 10 5 11
30 22 19 15 12 9 7 5 3 0 5 9 4 2 4 3 3 2 1 1 2 2 2 2 1 3 1 3 4 5 2 4 3 4 1 3 1 1 1 2 2 3 9 16 14 18 15
31 22 20 15 12 9 6 5 2 1 7 7 5 5 4 3 2 3 1 2 2 1 2 1 3 3 1 2 2 4 6 4 2 4 3 1 2 1 2 2 4 7 11 13 18 20 21
33 24 21 16 13 8 5 5 2 4 8 5 6 10 7 1 3 3 2 2 3 1 1 5 2 1 5 4 5 4 1 2 2 4 4 2 4 3 1 1 3 9 18 17 11 12 14
31 26 22 17 12 9 6 6 4 6 5 4 9 12 5 3 3 2 3 1 3 2 1 4 5 1 3 4 1 3 5 5 5 5 2 5 4 2 1 3 5 1 1 2 13 13 14
33 28 22 19 14 11 9 8 7 9 7 6 10 6 5 4 5 4 3 2 1 0 0 2 2 4 5 1 2 3 2 2 2 3 1 2 4 3 3 5 8 5 2 3 5 4 4
35 29 24 21 16 13 11 9 8 9 8 8 8 10 6 9 3 6 4 1 2 2 1 2 3 5 1 1 2 3 2 0 3 3 1 1 1 4 3 3 4 2 2 3 2 4 3
34 27 25 23 18 15 13 10 9 9 9 8 8 12 8 8 5 6 2 2 3 3 1 2 6 3 3 2 3 3 4 0 3 3 4 4 3 8 7 5 6 5 6 4 4 3 2
35 31 28 23 19 17 15 13 11 12 11 9 10 13 9 8 10 7 4 3 4 2 2 1 2 1 2 4 3 3 4 4 3 2 3 6 5 4 5 5 7 8 6 5 1 1 4
39 31 29 24 20 19 17 15 12 14 12 10 12 16 18 9 11 9 5 2 1 2 4 2 2 2 2 2 0 1 2 2 4 3 3 4 4 2 6 4 2 11 8 9 8 6 5

GFSGBSN_850_spd_081.txt.gz
Wind_Speed
17 16 18 18 18 18 19 19 20 18 18 15 13 17 18 21 10 8 10 10 8 7 4 3 3 2 1 5 7 7 9 12 9 19 23 13 15 24 18 22 23 20 15 23 12 11 19
19 18 18 19 19 19 19 20 20 20 18 17 15 18 18 19 14 8 8 8 9 6 3 1 2 1 3 7 4 7 8 7 1 17 21 20 7 22 18 19 18 17 15 18 9 12 8
23 19 17 19 19 19 19 20 20 20 18 16 18 18 17 19 20 6 10 6 10 7 4 1 2 3 5 3 5 6 5 3 5 9 14 21 18 13 15 12 15 13 12 14 17 15 8
27 20 18 19 18 20 19 20 21 20 19 17 15 19 18 18 19 7 9 7 8 7 6 4 2 5 6 3 3 7 5 3 4 10 13 6 9 15 21 15 16 16 17 16 16 19 5
35 26 18 18 19 21 19 20 20 21 19 17 14 17 17 17 18 10 8 7 7 5 5 4 4 5 3 2 3 6 5 4 1 7 17 3 6 5 13 17 14 15 15 21 18 18 7
26 33 18 19 19 20 19 19 20 21 20 17 16 18 16 17 16 7 4 3 2 1 3 4 6 5 2 2 5 6 4 4 2 4 6 6 3 2 13 16 17 18 17 22 16 13 12
22 24 23 19 19 18 20 19 20 21 21 15 15 16 16 16 12 5 2 1 1 3 3 4 3 4 3 7 3 2 4 5 1 2 4 4 2 4 22 21 16 17 17 20 16 11 14
21 26 21 20 20 18 19 18 19 20 21 16 15 14 15 14 9 5 5 5 4 1 2 2 4 4 4 4 4 2 6 4 4 2 6 3 2 8 10 14 7 16 14 9 6 7 10
23 23 21 20 19 18 18 17 18 20 21 16 15 13 12 10 4 3 5 5 3 5 3 1 2 3 2 3 4 4 4 2 2 2 2 6 2 5 10 12 17 13 15 15 13 10 12
25 22 23 21 18 17 17 17 17 20 20 18 14 12 9 1 1 3 2 4 5 3 3 4 1 1 1 4 1 10 3 1 1 3 1 2 6 6 10 11 12 14 11 15 13 12 6
24 21 22 21 17 16 16 16 17 19 18 16 14 10 3 5 1 1 2 4 4 1 2 2 3 2 2 3 2 4 3 2 2 6 4 3 2 7 12 12 8 11 5 10 9 11 5
29 23 21 22 16 15 15 15 16 17 16 14 11 2 5 5 2 2 4 6 2 2 3 1 4 1 1 5 3 3 1 1 1 2 10 9 7 1 3 4 2 8 11 5 5 6 7
24 21 22 20 17 15 15 14 14 15 13 11 2 4 7 6 1 4 4 1 2 2 1 1 1 1 3 6 4 4 2 5 3 3 3 4 2 3 3 7 4 14 15 5 4 4 5
27 21 22 21 17 14 15 13 12 12 10 5 5 7 8 6 5 5 1 2 1 4 1 3 2 3 4 2 3 3 3 6 5 2 3 2 2 6 7 6 6 14 14 4 5 6 9
27 24 22 23 15 14 13 11 10 9 7 2 9 8 5 4 5 3 5 2 2 3 4 6 4 2 2 1 2 2 1 2 2 2 2 3 3 4 4 2 4 10 10 3 3 3 1
28 27 21 23 16 14 11 10 8 7 4 7 8 5 3 4 3 2 2 2 1 2 3 5 2 4 7 8 5 3 4 3 2 2 6 4 4 3 4 3 1 4 8 3 2 4 4
32 29 22 21 17 13 10 9 7 5 3 11 10 4 4 5 3 2 1 2 3 3 2 2 1 4 4 7 5 5 1 2 3 4 2 1 3 3 6 3 8 4 4 4 3 3 3
33 30 23 21 16 13 10 8 7 4 5 16 8 2 7 6 2 2 1 2 2 5 4 2 3 2 3 5 5 2 3 2 7 2 4 2 4 3 4 4 6 8 10 13 4 5 3
40 31 24 21 17 13 10 8 7 5 10 16 7 4 8 6 2 3 4 3 1 5 4 3 2 3 1 3 2 2 2 1 10 5 2 2 3 4 4 5 5 7 10 8 9 3 6
36 30 27 22 17 13 11 9 7 7 12 17 6 3 4 7 7 3 4 4 5 2 3 2 0 2 2 1 1 3 4 3 7 5 4 3 3 4 3 3 1 7 13 14 9 4 11
34 34 30 23 17 14 12 10 8 8 13 17 5 3 5 4 7 6 3 3 7 4 3 2 3 2 4 3 3 3 4 6 5 3 3 3 2 1 3 1 3 4 9 15 15 17 13
36 38 36 23 18 16 13 11 9 10 15 16 5 5 4 4 5 7 4 5 7 4 2 4 2 1 3 1 5 6 5 6 6 8 6 3 2 1 3 5 5 8 12 14 16 20 21
36 36 35 24 18 17 13 11 10 11 18 8 11 10 5 5 6 7 5 7 6 3 3 5 2 3 6 4 4 4 3 2 2 3 7 3 2 2 2 2 5 10 18 18 17 15 14
35 38 34 25 19 16 13 12 11 13 17 11 12 12 5 4 6 5 6 5 7 2 3 3 2 2 2 3 3 1 2 1 2 2 3 4 5 2 3 3 4 2 2 2 6 13 15
35 36 33 26 21 17 13 12 11 13 13 12 13 8 4 4 5 5 7 6 4 3 3 2 4 3 1 2 3 3 4 3 5 2 4 3 5 3 3 6 12 15 2 2 3 7 5
29 36 32 25 23 19 14 12 12 15 13 11 16 11 5 9 4 6 8 5 4 6 4 3 1 1 1 3 3 5 5 0 3 3 1 2 5 5 2 4 4 6 4 2 0 6 6
35 38 34 27 25 20 17 15 16 17 15 13 13 13 8 7 4 4 3 4 3 2 1 3 1 2 1 4 4 5 5 2 3 2 3 4 6 10 9 6 7 2 7 4 4 3 1
41 41 33 29 26 23 20 18 17 17 16 13 15 14 10 7 7 5 4 3 3 2 3 3 3 2 3 4 3 3 4 3 2 5 4 7 5 6 7 6 8 10 7 5 3 2 2
41 41 35 29 25 23 22 19 17 18 16 14 16 14 21 10 9 10 8 4 4 4 2 2 2 3 2 1 1 1 3 2 5 5 3 4 8 5 5 3 4 9 10 8 9 8 7

GFSGBSN_850_spd_084.txt.gz
Wind_Speed
26 24 21 21 20 19 17 19 20 21 21 19 15 17 18 17 19 11 9 9 11 11 7 5 5 5 2 6 7 6 10 8 12 11 14 19 19 19 13 16 21 17 10 27 23 5 19
30 29 26 21 22 20 18 18 19 20 21 17 13 17 20 17 17 15 8 9 10 10 7 4 4 4 8 13 6 10 8 6 11 9 13 19 7 15 12 16 21 20 23 21 20 12 18
31 34 33 23 23 21 20 18 19 20 22 20 16 14 18 17 17 18 8 8 8 9 8 5 3 5 11 9 6 10 7 6 10 3 10 13 4 2 8 10 25 11 18 11 13 17 8
30 30 35 28 22 21 20 19 20 19 20 21 17 13 17 18 16 17 8 8 9 10 9 6 4 6 7 8 5 7 7 5 7 4 9 12 12 12 7 11 18 9 14 14 16 25 14
33 30 33 34 23 22 20 20 19 18 20 22 18 15 16 15 15 15 5 4 7 7 6 3 3 5 5 5 4 6 6 5 5 8 6 6 10 4 10 8 10 7 11 14 11 13 7
34 31 35 32 29 23 21 20 18 18 19 22 17 15 14 14 13 10 3 1 3 1 6 3 7 5 7 3 7 7 4 5 2 5 5 3 4 1 7 10 11 12 9 12 8 9 11
35 32 33 25 28 25 20 20 18 17 19 22 18 14 14 15 10 4 2 6 2 2 3 4 3 7 5 9 6 4 5 5 1 5 1 6 2 6 16 18 12 12 10 13 10 9 11
36 32 26 25 27 22 21 19 18 17 19 21 17 14 12 11 7 3 7 3 3 1 3 0 3 3 3 5 6 1 8 3 1 3 7 4 2 3 3 11 16 14 16 7 7 4 9
36 32 30 25 25 22 21 18 16 16 18 20 17 13 11 8 2 4 5 2 8 2 4 2 1 3 2 2 6 7 8 3 5 2 1 3 3 3 4 3 12 17 15 12 10 13 6
36 32 31 30 23 24 20 17 15 15 17 17 16 12 8 3 3 3 1 5 4 4 2 4 1 1 3 2 2 5 2 2 2 3 4 5 1 5 7 13 8 9 12 12 14 7 4
37 32 34 31 23 26 20 15 13 14 15 14 13 11 3 7 5 1 1 4 5 2 2 2 3 4 4 2 2 5 3 3 5 2 2 5 7 4 11 6 8 3 8 8 11 9 5
36 35 35 35 23 26 19 14 11 12 13 11 9 2 7 8 6 1 5 7 4 2 3 3 4 4 1 4 5 2 1 5 5 3 6 5 6 6 9 6 6 8 11 4 5 0 1
35 36 33 35 24 28 17 12 10 11 10 7 1 6 8 5 4 4 10 4 1 2 1 3 3 4 5 5 4 3 2 3 3 1 4 5 6 8 6 3 5 2 6 3 2 2 3
35 36 33 30 30 25 16 11 8 9 6 1 7 10 9 6 7 9 5 2 2 3 1 2 1 3 4 4 2 5 5 5 5 4 3 3 1 3 2 3 2 5 5 3 4 4 4
35 35 35 33 30 21 16 10 8 7 4 8 11 10 6 7 7 6 1 1 3 3 4 6 3 0 2 2 1 2 3 5 2 3 2 3 3 3 2 5 5 5 3 1 3 2 4
28 35 37 36 26 22 14 11 9 6 5 13 12 9 4 5 5 6 2 1 1 3 4 7 2 6 5 5 3 2 2 3 2 3 4 2 5 2 3 6 3 3 1 1 2 2 1
21 34 33 36 24 22 15 13 9 7 9 18 13 6 4 6 5 3 2 2 3 5 1 3 2 1 7 4 3 2 5 3 2 1 8 4 4 2 2 2 3 2 0 1 2 3 1
24 29 34 34 25 22 17 14 11 9 15 19 10 3 7 9 2 3 2 4 1 5 4 3 3 2 2 4 5 0 3 5 6 5 2 2 4 3 1 5 3 4 4 4 3 3 1
21 29 34 35 27 22 18 15 12 12 17 20 10 5 9 9 3 3 4 5 2 4 5 4 3 2 3 2 2 4 3 7 9 3 3 3 2 3 1 2 5 5 6 6 2 4 3
15 37 34 34 29 23 18 16 13 14 20 17 7 3 3 7 7 5 6 5 5 1 1 2 1 3 4 3 1 3 5 2 7 2 1 2 2 2 2 1 1 5 7 7 5 2 4
12 30 35 36 32 23 20 17 14 16 22 16 7 5 8 4 7 7 1 8 8 5 4 4 2 5 2 3 4 4 6 4 4 3 2 2 2 3 2 3 2 2 4 8 7 9 5
32 31 32 37 33 26 21 17 15 18 24 19 6 4 7 3 6 8 4 6 9 4 1 4 4 1 4 3 6 2 5 6 4 6 2 3 2 3 3 7 6 6 7 9 10 13 12
25 37 36 38 30 26 21 16 17 20 24 10 13 11 6 7 5 5 6 8 9 7 1 5 3 3 6 4 6 7 7 6 5 4 6 3 3 1 2 2 5 6 14 14 9 8 8
2 34 34 37 31 27 21 16 17 18 27 13 14 13 4 3 4 3 3 7 7 4 3 4 3 5 2 1 2 2 2 1 2 2 6 2 2 1 2 1 3 6 2 4 2 6 11
24 25 45 37 31 27 21 16 17 17 26 18 13 10 3 4 7 4 6 5 8 4 3 3 5 3 1 1 2 3 3 3 4 3 4 1 3 1 1 3 8 6 4 1 2 5 6
26 31 45 36 31 29 24 18 15 16 21 20 15 12 4 9 2 8 8 9 4 5 3 4 1 1 1 3 2 2 3 1 4 4 4 2 2 2 3 1 3 2 3 3 2 4 6
34 44 44 37 32 30 26 20 16 16 18 17 19 13 8 8 4 5 3 2 1 2 3 6 2 1 2 2 2 1 0 2 2 3 3 2 2 5 5 3 7 1 8 2 2 2 2
32 39 38 37 33 29 26 21 14 15 17 18 17 16 11 8 9 6 6 5 2 1 1 3 3 2 1 1 2 3 1 2 3 4 2 5 4 4 4 4 6 8 4 3 1 1 3
35 43 38 39 34 31 25 19 17 16 17 15 20 17 19 9 11 10 10 6 6 6 4 3 3 3 3 1 1 1 2 1 1 2 4 1 3 2 2 1 3 8 12 9 14 11 12

GFSGBSN_850_spd_087.txt.gz
Wind_Speed
24 25 25 28 26 21 21 21 20 19 21 21 16 14 17 19 16 17 12 8 10 9 9 7 5 4 3 3 5 5 10 8 12 16 15 15 20 10 10 12 11 11 8 19 8 7 3
30 25 26 26 30 26 22 20 20 19 21 21 19 16 15 17 17 16 15 7 10 9 8 6 4 3 5 4 4 10 8 7 11 9 14 15 12 13 11 8 13 17 17 18 17 9 1
33 31 25 28 28 32 24 21 20 19 21 21 18 17 14 16 17 14 17 9 10 8 8 6 4 5 9 11 6 7 10 9 10 7 3 7 16 9 5 8 23 13 12 4 13 12 4
35 33 32 26 27 30 30 22 19 20 21 21 17 17 14 17 13 13 17 7 8 8 8 4 3 5 6 5 1 6 4 6 9 9 7 16 9 7 5 10 5 13 7 10 8 13 2
36 36 34 32 26 29 31 25 19 20 20 21 20 16 14 16 14 14 7 2 3 5 2 1 1 5 5 6 4 9 5 7 9 10 4 12 5 2 5 2 5 7 9 5 9 17 6
37 36 35 33 28 26 24 26 20 19 20 20 20 15 14 14 15 11 3 0 1 3 5 3 4 6 4 2 9 5 4 9 4 4 5 5 4 3 3 1 10 9 8 6 7 11 11
32 37 35 35 31 24 26 26 20 18 19 19 20 14 13 12 11 5 3 2 2 2 2 1 3 6 7 13 9 0 7 6 5 3 2 4 3 6 8 5 10 7 13 16 5 11 11
36 34 36 37 33 25 25 23 20 17 17 18 19 14 11 10 6 2 7 2 2 1 1 3 4 7 4 7 4 4 8 3 0 2 3 4 2 4 5 11 9 13 10 8 6 15 8
40 35 36 35 34 29 29 23 19 16 15 16 18 13 9 5 4 5 7 1 3 4 1 1 3 3 4 4 4 9 7 6 3 3 2 3 4 4 8 5 7 2 8 5 9 6 6
40 35 35 34 34 29 29 20 21 14 14 14 15 11 7 6 4 3 2 5 4 7 3 5 2 3 4 3 3 6 6 3 2 3 3 3 5 6 6 3 5 6 9 11 7 7 2
37 32 34 36 34 30 28 23 21 12 12 12 12 9 2 8 6 2 3 3 7 2 5 5 5 6 4 4 1 7 6 4 7 5 4 6 9 8 9 2 6 2 15 17 11 5 7
37 34 36 36 34 29 31 30 19 11 11 9 8 2 11 10 6 4 4 9 4 4 2 5 4 4 3 4 2 3 2 2 3 4 9 7 7 4 2 4 6 5 5 9 4 2 2
39 34 37 34 33 27 29 28 18 10 9 7 3 10 13 8 4 7 11 4 3 6 4 2 3 4 4 4 3 4 1 2 1 5 6 1 3 4 2 4 9 3 4 2 3 3 4
41 40 37 38 31 28 35 29 16 11 9 5 11 12 11 8 9 14 4 3 7 3 2 2 3 3 3 4 1 5 3 2 3 4 4 5 6 8 8 4 4 7 2 4 4 3 3
38 27 35 32 28 28 36 26 16 12 10 12 17 15 11 11 12 9 3 4 6 5 5 6 2 1 1 2 2 1 2 2 1 2 4 4 3 5 3 3 3 4 3 4 4 3 4
22 28 25 32 27 28 35 24 17 15 14 19 19 13 11 9 9 6 3 3 2 5 6 3 2 5 1 2 1 1 2 3 2 3 5 3 4 4 4 5 2 2 3 4 3 2 3
34 32 22 36 32 26 29 25 20 18 19 23 20 9 11 11 10 3 2 4 3 3 3 3 2 3 3 3 3 1 2 3 2 2 3 2 4 2 2 2 2 4 3 2 2 4 3
30 25 15 31 28 28 33 26 22 22 26 25 15 3 15 14 3 2 1 4 5 6 2 1 2 3 5 4 2 1 3 2 2 1 2 2 4 3 1 2 1 0 1 1 3 3 1
30 25 10 32 26 29 34 26 24 24 29 29 16 7 13 13 3 3 3 3 1 5 5 4 3 0 3 1 3 3 5 3 3 3 2 2 1 3 3 5 3 3 4 3 2 3 2
25 23 16 29 24 31 31 26 25 24 32 21 10 4 5 9 5 2 5 4 3 2 4 1 2 2 1 1 2 3 3 2 3 2 2 2 2 5 5 4 4 4 5 5 4 3 4
24 23 19 34 25 34 30 26 25 25 34 19 7 5 9 5 6 5 2 7 5 4 2 4 1 1 0 3 3 4 4 2 1 3 4 3 2 4 2 3 3 2 3 6 6 7 5
28 18 8 23 28 35 30 27 25 30 37 17 9 5 9 6 8 6 3 5 7 3 4 4 2 2 5 4 2 3 4 3 3 0 1 2 3 4 4 4 4 3 6 7 7 6 8
27 19 29 26 40 36 31 30 29 34 36 11 9 10 7 4 5 5 4 5 8 8 2 3 3 4 5 3 3 1 3 2 4 6 2 3 3 2 4 3 4 6 7 9 4 6 6
23 2 11 23 39 35 32 29 28 30 34 14 19 16 5 3 3 5 5 5 7 5 4 4 8 3 2 3 1 1 2 2 3 6 4 3 5 4 3 2 0 6 0 1 7 7 8
17 10 11 15 32 35 32 29 27 27 34 19 19 13 5 4 5 5 8 7 13 7 3 5 4 5 5 4 3 3 3 2 0 3 4 2 2 1 2 2 6 2 2 1 2 5 4
19 18 20 20 30 35 32 28 25 25 33 25 16 11 5 11 0 2 6 12 4 3 2 3 4 5 4 2 2 3 4 4 2 1 3 1 5 3 2 1 3 2 3 1 2 4 4
17 18 15 14 33 36 31 30 22 23 26 26 16 12 7 9 5 8 4 6 4 4 4 5 4 3 2 2 2 2 1 2 3 5 4 1 1 4 2 2 6 5 2 3 1 5 3
17 21 27 36 34 35 31 30 23 22 23 23 19 14 8 9 10 7 8 6 6 4 4 4 4 1 2 2 2 2 2 3 1 2 4 5 4 3 2 2 5 4 2 1 4 4 7
10 6 27 39 37 35 29 27 25 19 21 19 23 16 11 11 13 13 13 9 7 7 8 4 3 3 2 3 2 2 1 2 2 2 4 0 5 3 6 5 4 5 9 10 13 21 20

GFSGBSN_850_spd_090.txt.gz
Wind_Speed
29 30 31 31 32 32 30 25 20 19 19 18 19 16 15 12 17 16 16 11 7 9 11 8 5 4 2 3 4 5 11 13 9 12 16 19 16 12 9 8 11 15 13 18 10 4 5
31 31 31 32 32 34 36 31 23 19 19 18 19 18 16 11 15 15 14 15 9 9 9 7 5 4 3 3 1 6 9 13 10 11 8 13 11 21 8 6 15 10 19 19 9 2 4
34 32 33 33 33 32 35 37 28 20 19 17 19 19 16 12 15 16 12 17 9 9 7 6 4 5 7 6 5 7 10 11 11 12 6 6 12 13 13 6 18 10 12 12 13 8 2
31 29 31 33 34 32 30 38 34 24 17 19 19 17 15 12 16 14 15 10 4 5 6 4 3 4 6 2 2 6 10 11 11 9 4 6 4 14 11 2 2 14 8 8 13 17 2
44 35 34 33 33 32 31 29 36 26 17 19 18 17 15 13 14 14 9 1 1 0 1 2 2 3 6 4 4 11 6 9 11 9 2 5 8 6 7 3 6 10 8 9 6 16 6
37 38 41 39 34 32 31 31 34 29 16 18 17 16 16 15 12 9 1 3 4 6 4 3 1 5 3 3 7 8 5 9 11 11 3 1 4 1 2 2 11 8 9 9 8 5 13
37 39 33 40 41 31 34 31 35 31 18 17 16 15 16 13 9 1 3 7 5 2 2 1 5 7 9 12 6 7 9 10 10 3 3 2 3 5 7 8 1 11 13 10 11 10 5
36 40 39 33 38 39 34 31 33 32 19 16 15 14 14 9 4 3 7 7 5 3 2 1 3 6 6 8 5 6 9 4 2 3 4 3 2 8 5 8 4 8 14 7 11 15 5
41 40 38 36 33 38 36 31 34 33 19 15 14 13 11 4 5 7 10 6 5 4 1 2 5 3 6 7 4 7 4 4 2 2 2 1 3 10 5 4 4 5 13 11 9 7 6
43 42 40 38 34 33 39 34 30 32 20 15 13 11 7 9 7 8 5 5 5 6 4 8 4 2 4 5 3 5 4 2 1 2 2 4 4 9 9 2 4 6 7 13 15 7 2
42 46 43 38 37 31 36 38 28 29 22 15 12 8 5 11 11 7 4 5 8 5 5 5 6 7 2 1 6 3 6 3 4 5 4 1 9 9 4 4 3 4 10 11 17 9 5
43 44 44 38 39 30 31 38 27 30 22 14 10 7 11 14 12 8 8 13 9 5 1 5 4 4 1 4 2 6 3 3 2 4 11 7 3 4 4 4 4 7 10 11 9 3 1
41 43 43 40 40 37 29 36 27 31 21 14 9 9 16 13 10 10 15 10 4 5 2 4 3 3 3 3 2 2 4 4 3 5 8 6 6 6 6 6 10 12 6 3 2 2 3
44 41 38 37 34 30 28 38 28 30 20 15 14 19 16 13 12 17 13 4 6 3 4 1 3 5 1 3 2 2 3 4 5 5 3 3 4 6 7 4 4 4 4 3 4 4 3
42 42 39 50 26 28 34 38 35 28 22 21 24 20 16 15 17 13 5 4 7 6 6 6 1 2 4 1 2 3 2 2 2 4 5 4 5 4 3 3 2 3 4 3 6 4 4
47 46 47 46 30 28 36 35 39 31 27 31 28 20 16 17 18 11 3 3 3 5 6 4 4 4 1 1 2 3 2 3 3 4 2 3 4 2 3 1 1 2 2 3 4 3 2
47 46 51 40 27 17 43 40 37 32 32 33 27 11 16 16 14 4 3 5 4 6 8 6 3 3 3 3 2 2 3 5 5 6 7 3 4 4 4 4 2 4 3 4 3 3 4
43 49 51 25 25 21 42 45 37 35 39 35 15 4 19 17 5 3 3 5 5 6 3 2 2 2 5 4 2 4 3 3 3 2 4 3 3 3 1 3 1 1 2 3 4 3 1
38 43 45 22 14 39 43 41 39 42 43 35 11 7 16 19 4 3 4 4 4 4 5 5 3 3 1 2 4 4 3 3 5 5 2 1 2 3 7 5 4 2 1 3 4 3 2
36 41 33 26 21 45 41 40 41 43 41 27 10 4 5 10 5 3 4 4 4 5 3 3 2 3 3 2 4 4 2 0 2 3 2 3 3 5 5 5 2 2 2 3 4 3 3
28 36 32 27 21 31 38 39 38 40 40 21 6 5 8 7 6 4 2 6 6 5 1 5 1 2 2 2 3 4 3 3 2 3 2 3 3 2 3 4 4 3 3 3 5 5 4
23 28 28 14 26 28 39 35 36 40 40 14 9 6 9 8 8 7 4 7 7 4 5 3 4 4 4 4 2 4 5 2 4 1 2 2 1 2 3 3 4 3 5 6 6 3 7
20 27 22 13 8 30 33 34 34 41 39 8 7 10 7 7 5 5 4 7 7 9 3 5 7 6 5 5 7 6 4 3 5 6 2 2 3 2 3 4 5 5 5 4 3 3 4
17 23 18 8 15 18 30 33 33 36 37 8 12 13 5 3 4 5 6 2 9 4 6 3 7 5 5 9 8 5 5 7 7 4 3 4 3 2 1 4 2 5 3 3 5 6 5
15 17 11 20 10 14 30 32 29 36 39 13 13 6 4 3 3 2 6 6 13 14 5 5 4 7 12 6 4 4 4 3 2 4 5 2 4 2 2 2 5 1 2 0 1 5 1
14 14 11 10 9 14 30 30 30 32 37 21 13 5 4 10 1 3 5 9 4 4 3 3 6 8 5 3 3 3 4 4 3 1 4 4 5 3 2 2 4 4 3 2 2 4 4
15 11 7 4 4 19 33 29 27 28 34 26 12 7 5 8 5 5 3 4 7 5 4 4 4 2 1 2 2 2 3 5 4 4 3 2 2 4 2 2 6 5 4 1 1 5 4
15 9 9 9 12 23 30 27 27 24 30 26 12 10 4 8 11 6 7 5 7 8 4 7 4 1 2 2 3 3 2 3 3 4 5 5 5 3 2 2 5 1 1 3 4 9 12
11 10 11 15 21 28 31 29 27 23 24 25 10 10 9 10 13 15 14 10 9 9 10 6 3 3 3 4 1 2 1 1 3 2 3 1 4 3 6 4 2 7 3 12 16 16 18

GFSGBSN_850_spd_093.txt.gz
Wind_Speed
33 33 32 32 32 33 32 30 34 42 28 19 19 21 17 17 12 13 15 14 11 6 9 8 7 5 3 4 7 2 4 7 8 9 12 12 14 12 10 4 13 12 6 28 29 9 5
35 35 34 31 31 33 33 33 30 38 34 21 18 20 16 17 12 13 16 11 14 8 8 7 7 5 5 3 5 4 8 10 8 11 10 11 13 19 6 7 12 8 20 13 30 22 3
33 37 35 36 33 29 32 31 32 30 38 25 18 18 16 16 12 14 12 11 15 9 8 6 6 6 8 11 5 8 8 9 10 9 8 10 15 12 11 4 22 27 5 10 20 22 2
29 31 34 39 37 35 35 33 32 32 34 31 18 17 15 15 14 14 12 10 1 4 6 7 5 6 6 2 4 6 10 11 8 10 10 8 6 11 5 8 5 10 6 11 15 18 11
32 32 32 34 38 40 41 37 30 32 31 33 21 16 14 15 13 13 11 2 3 2 3 3 3 3 7 4 9 8 9 7 11 9 7 5 7 6 6 8 8 7 5 12 6 22 7
33 35 34 35 36 31 31 38 37 35 31 30 24 14 15 13 12 10 3 6 6 6 4 3 4 5 3 7 11 15 9 7 12 10 9 5 4 4 1 9 9 12 4 6 7 10 16
36 37 37 36 36 36 31 31 32 34 29 30 23 12 13 12 10 5 9 10 6 2 4 2 5 5 9 9 8 4 6 10 10 6 2 4 3 6 5 4 3 13 5 10 4 11 10
36 37 38 38 39 38 33 32 27 30 36 31 24 12 12 10 7 7 13 7 6 3 2 5 4 8 6 7 5 6 9 4 2 2 2 3 2 7 7 2 3 12 9 12 14 16 6
39 42 40 40 41 36 35 31 29 23 35 31 28 11 10 8 6 10 13 10 8 6 1 3 4 4 5 7 4 5 5 6 3 3 4 3 6 9 5 3 8 4 13 8 14 7 5
39 41 40 40 39 39 36 34 32 26 37 34 26 9 9 8 8 14 13 9 8 5 4 5 1 1 3 5 4 6 3 4 2 1 4 3 8 9 5 7 8 4 4 17 19 4 3
40 41 41 41 38 41 37 35 37 23 38 35 23 9 9 14 10 14 8 11 10 4 5 2 2 5 3 3 7 4 5 3 5 4 4 2 8 6 6 3 1 3 14 14 13 7 3
39 41 40 41 41 38 40 37 37 26 36 34 22 12 13 18 16 12 11 12 11 5 3 4 2 2 2 3 2 5 2 3 6 3 10 5 2 4 4 3 7 9 18 13 6 3 1
39 39 40 37 36 39 33 32 36 26 39 34 20 15 19 17 16 16 15 14 4 4 2 2 0 3 4 3 4 2 2 2 3 3 6 7 6 5 5 8 11 14 5 3 2 1 3
41 38 44 33 39 33 34 28 40 27 45 30 21 18 24 17 17 19 20 4 4 2 4 1 3 5 2 3 2 3 2 5 6 6 4 5 5 9 9 3 4 3 1 3 4 4 2
40 36 37 38 41 43 32 28 24 33 41 29 27 27 22 18 18 22 7 3 7 6 6 7 3 1 3 2 2 4 4 3 4 5 4 3 4 5 7 4 3 3 5 0 5 2 4
38 33 38 42 48 47 35 12 19 46 38 35 35 25 21 20 21 16 3 4 2 3 5 4 5 3 1 1 2 4 5 3 3 2 2 2 5 4 4 3 6 2 3 1 2 3 1
35 34 36 40 44 50 16 11 33 46 38 38 33 12 21 20 19 5 3 5 5 6 5 5 5 4 4 2 1 2 4 4 4 5 5 3 4 3 2 4 3 4 3 5 4 3 3
33 36 37 40 48 33 15 16 45 46 42 38 14 4 25 24 4 3 3 5 4 4 2 2 4 3 5 3 3 3 2 2 5 3 3 1 4 3 1 3 1 0 3 3 4 2 2
32 35 39 43 38 28 15 45 51 44 46 32 9 10 19 23 3 2 3 3 2 3 3 3 3 4 2 4 4 2 2 4 6 5 2 1 2 3 6 5 5 3 2 4 4 3 2
28 32 33 42 37 9 28 46 46 45 46 22 10 4 5 10 2 3 3 4 4 5 3 3 3 2 3 4 5 3 2 1 3 4 4 3 3 4 5 3 3 2 0 1 4 3 2
27 27 33 37 38 8 26 48 45 48 38 10 5 4 8 6 8 4 1 5 5 4 1 5 2 3 4 3 3 3 2 1 3 6 3 3 3 3 2 1 2 1 2 4 4 4 4
25 24 31 30 26 17 34 46 47 47 31 6 7 6 7 5 14 6 1 6 5 3 3 3 5 3 4 4 4 5 5 1 1 4 3 3 1 2 4 6 1 2 4 4 4 4 6
19 23 26 25 11 32 38 40 44 44 28 4 6 13 10 7 5 6 5 6 7 6 5 4 8 5 5 4 6 8 5 4 2 4 2 3 3 2 2 4 4 3 2 3 2 2 3
14 18 19 13 5 21 24 34 47 38 24 2 6 9 5 2 4 5 7 4 8 3 6 3 6 5 5 11 11 10 11 11 9 7 3 3 3 2 1 4 2 5 3 4 5 4 5
12 15 14 22 14 23 25 34 45 36 27 3 10 3 4 3 4 3 7 6 13 12 5 5 5 7 15 6 4 4 4 3 3 5 5 2 3 3 2 1 5 1 1 1 2 5 3
11 14 10 9 6 12 29 32 42 38 31 4 5 5 4 9 1 3 5 9 5 4 3 3 8 11 5 3 3 3 4 4 2 1 3 4 5 3 1 2 3 4 2 2 2 4 4
12 8 5 7 9 17 28 29 28 36 35 10 2 3 4 9 5 4 3 5 7 6 4 3 4 3 2 2 2 2 3 3 3 5 4 2 3 3 2 2 6 4 4 1 1 4 17
11 6 4 3 7 13 24 24 22 25 28 17 6 1 3 8 10 5 6 5 7 7 4 7 4 1 3 2 3 3 2 4 2 3 4 5 5 3 2 2 6 5 2 0 4 12 17
15 7 12 16 18 10 22 25 21 22 22 16 9 4 5 8 12 16 14 11 9 8 9 8 2 3 4 4 1 2 1 1 3 2 1 1 4 4 6 4 1 4 4 8 12 16 19

GFSGBSN_850_spd_096.txt.gz
Wind_Speed
28 30 32 32 33 33 30 32 30 31 31 31 38 25 19 17 16 12 14 14 12 8 7 8 9 8 5 4 6 3 2 5 9 10 9 10 11 9 6 6 9 9 11 9 24 12 12
26 26 28 30 32 33 34 32 31 32 31 34 33 30 20 14 15 12 15 14 11 9 8 7 8 7 5 3 2 4 4 8 9 9 12 10 8 15 9 10 7 7 19 17 11 17 7
27 26 29 31 29 31 33 36 33 32 33 34 40 29 22 13 13 13 15 12 12 9 9 7 8 8 6 11 4 6 9 8 10 11 11 13 15 17 11 4 18 16 4 11 15 13 7
29 29 29 29 31 32 33 32 30 33 32 32 34 26 23 15 11 14 14 13 2 3 7 7 9 6 6 3 6 7 7 12 10 10 12 10 11 15 10 6 4 8 6 3 10 11 8
31 31 31 31 32 33 33 34 29 28 30 25 32 33 26 11 8 12 11 5 3 4 4 5 5 3 7 4 7 8 9 9 11 12 12 8 7 3 3 2 4 7 4 6 5 13 7
32 32 32 33 34 34 33 36 35 28 29 23 27 33 20 8 6 10 6 6 6 5 4 4 4 3 5 4 7 12 15 14 12 11 9 9 3 4 3 5 8 7 7 6 6 8 12
31 31 33 33 34 35 33 34 32 29 26 19 21 25 21 4 6 8 11 9 6 2 7 5 4 5 8 9 11 5 4 9 12 4 4 3 3 6 15 12 9 5 4 7 3 12 6
33 33 33 35 36 36 36 34 33 29 25 20 22 31 21 5 3 8 16 8 6 4 3 7 7 10 10 7 3 2 6 4 4 5 5 4 6 7 8 9 11 11 9 10 14 13 5
35 35 34 35 36 35 37 35 34 29 24 21 19 31 17 6 4 14 18 12 8 7 1 3 6 6 4 3 2 2 3 5 4 7 9 6 2 11 7 7 10 5 13 9 9 10 4
36 34 36 35 37 36 36 36 34 28 23 22 19 29 14 9 8 14 17 14 9 7 4 3 2 3 2 2 1 4 5 6 2 4 4 5 4 6 7 5 9 6 9 13 18 9 4
37 37 35 44 36 37 35 32 33 30 23 26 22 31 16 9 5 20 11 14 11 4 3 3 1 3 3 1 3 4 5 6 4 4 5 1 5 6 2 3 8 3 13 12 10 5 5
38 38 36 41 34 37 37 32 32 27 25 28 20 30 18 16 14 14 15 15 11 6 4 2 1 2 4 3 3 3 4 6 4 5 2 4 3 3 3 3 8 12 15 7 3 2 3
40 39 38 35 34 35 29 34 29 25 24 19 27 27 19 18 20 19 19 18 5 4 3 2 2 3 3 3 2 1 3 4 2 2 6 7 14 3 6 10 7 7 5 3 3 3 2
41 38 35 36 31 31 36 33 24 27 21 18 33 23 21 19 18 22 25 4 4 2 4 1 2 3 3 3 3 3 3 4 3 3 3 5 5 10 12 5 4 4 3 3 4 3 2
42 37 35 33 29 32 34 36 30 29 27 20 31 24 26 19 22 24 9 3 6 5 5 6 3 2 3 2 0 4 5 3 3 5 4 4 5 4 5 2 2 4 4 2 6 4 4
39 34 31 30 30 34 40 37 29 13 26 43 36 29 23 23 21 22 4 3 2 3 4 2 3 2 1 3 5 3 5 3 6 4 0 2 5 4 5 3 4 3 1 2 3 4 2
34 31 27 31 33 38 39 39 30 14 38 47 39 12 24 24 21 7 3 4 3 5 3 3 4 3 4 1 1 2 3 3 5 7 4 2 3 2 2 4 3 5 3 4 5 4 3
32 27 30 31 35 38 39 20 12 42 51 41 13 4 28 28 5 2 3 5 4 4 3 0 2 2 4 2 4 3 2 1 8 4 4 4 4 4 2 4 2 2 2 3 4 1 2
28 29 29 32 35 39 25 10 36 53 48 29 8 9 24 23 4 3 3 3 3 3 3 2 1 2 3 2 3 3 2 4 9 5 2 1 3 3 6 5 4 4 3 3 5 4 1
29 29 31 34 39 26 8 34 43 44 41 27 10 4 5 10 2 4 4 4 4 4 4 2 1 2 2 3 5 3 2 3 6 4 7 4 3 3 5 3 2 2 3 3 4 3 3
25 29 30 38 36 7 17 40 45 43 37 13 6 4 7 7 7 4 2 4 5 4 1 2 0 2 4 3 2 3 2 4 5 7 4 4 4 3 3 1 3 2 3 2 2 2 4
23 26 31 35 18 19 32 46 49 41 25 16 7 6 7 4 19 5 1 4 5 3 4 3 3 2 2 4 3 5 4 1 1 5 3 3 1 2 5 7 5 1 1 2 3 3 4
24 25 30 28 15 8 23 41 45 30 17 7 4 13 10 10 5 5 4 6 7 7 3 1 6 4 4 2 7 10 5 8 4 2 2 3 3 3 3 4 3 3 1 0 2 1 1
21 25 30 24 17 10 33 45 29 24 13 5 8 6 6 3 4 4 7 3 7 3 6 3 4 4 5 14 13 10 16 14 12 8 5 3 3 2 1 4 3 5 3 4 4 4 3
19 20 24 28 14 9 29 40 27 22 11 8 8 3 4 4 4 1 7 6 12 11 5 5 4 5 14 3 4 4 5 4 5 6 6 4 4 3 2 1 4 1 2 2 3 3 7
17 14 15 16 7 7 28 35 23 21 7 9 12 10 5 9 1 2 4 8 5 3 3 4 7 11 2 3 3 2 2 2 1 2 4 4 6 4 1 2 2 4 1 1 2 1 8
17 13 6 8 6 15 16 30 22 21 18 6 11 13 5 9 4 3 3 4 7 6 4 3 4 2 3 2 2 2 2 3 2 3 2 2 3 3 2 2 6 3 5 0 2 3 12
16 13 4 6 4 12 19 27 29 25 19 12 6 11 5 7 10 5 5 5 6 6 4 7 4 1 3 3 2 3 2 4 2 3 4 5 4 2 2 1 5 3 1 1 1 5 12
22 15 7 9 16 10 18 22 19 23 22 20 9 6 8 7 10 15 14 10 8 6 8 10 2 3 4 4 1 3 2 1 3 2 2 2 5 4 7 4 3 3 10 5 7 11 12

GFSGBSN_850_spd_099.txt.gz
Wind_Speed
21 23 24 23 24 24 24 26 29 30 28 28 26 27 30 25 21 14 11 13 15 12 11 8 9 7 5 3 5 7 6 7 6 8 6 5 4 3 5 4 8 11 10 10 15 21 20
24 22 22 24 24 24 25 25 27 28 29 29 28 27 33 29 25 15 8 13 13 13 11 9 7 6 4 3 4 7 6 5 6 6 6 9 7 6 9 11 9 6 18 20 21 13 15
26 27 24 24 24 24 26 27 26 27 27 27 25 25 29 25 16 9 4 13 12 15 12 9 8 5 7 7 5 7 7 7 7 9 10 11 13 7 6 7 20 20 6 8 18 17 3
27 28 28 26 27 26 25 28 28 30 27 25 17 16 22 23 14 6 4 10 10 6 5 8 10 7 4 3 9 8 8 8 9 8 10 12 10 12 16 10 5 13 7 8 13 13 6
29 28 27 26 27 28 28 27 26 28 28 24 21 21 16 26 15 3 2 5 6 4 6 8 8 4 5 5 7 7 9 11 10 11 11 10 7 7 8 4 7 9 5 9 6 17 5
30 29 30 30 27 28 28 27 28 28 27 25 16 25 14 24 10 3 1 4 4 6 7 6 5 2 4 2 6 7 10 12 13 10 9 8 5 3 4 4 9 7 8 7 6 12 7
31 32 31 30 28 28 30 30 28 27 26 22 13 21 21 20 9 5 6 8 5 5 9 5 4 2 6 4 10 5 5 5 10 6 6 5 4 6 11 11 2 2 9 11 4 11 8
35 33 33 32 30 28 28 29 27 27 25 21 17 14 24 21 9 5 11 11 7 2 3 8 4 8 9 7 2 5 5 4 6 8 2 4 8 8 11 10 9 2 10 6 9 11 4
33 35 34 32 29 31 30 26 26 25 24 20 15 16 26 19 11 5 14 23 5 6 2 3 4 7 4 3 3 5 5 4 5 7 9 10 4 10 8 9 10 7 12 7 13 10 8
36 35 34 33 32 29 30 25 25 23 22 18 15 18 24 16 8 7 17 19 8 7 4 3 2 3 1 1 4 6 5 4 2 4 6 6 5 8 10 7 10 9 7 14 16 6 5
38 38 34 33 32 31 30 25 27 21 19 17 11 10 24 17 7 10 5 15 10 5 3 3 2 2 2 2 7 3 5 5 6 5 3 5 5 3 5 7 13 3 9 16 8 9 10
40 38 36 34 31 29 27 25 24 18 16 14 11 13 25 18 9 8 10 14 10 6 4 2 1 2 1 3 3 4 3 7 9 0 3 3 2 1 2 1 4 10 7 5 3 0 4
41 38 35 33 30 27 25 21 23 19 13 14 7 10 29 18 12 14 16 15 4 4 3 2 2 1 1 3 2 2 3 2 4 4 5 3 3 3 3 7 3 5 4 2 4 4 2
43 38 33 32 27 24 21 20 18 17 13 14 7 16 22 17 17 18 21 3 4 2 4 1 1 2 2 4 2 2 1 6 4 4 4 5 5 8 8 3 3 3 2 3 5 4 3
38 34 30 26 21 20 20 19 24 20 18 10 4 28 21 19 20 22 8 2 6 5 5 6 3 4 3 1 1 4 5 5 3 5 4 2 5 3 5 4 3 6 4 1 6 2 3
34 31 28 22 22 23 23 27 25 17 10 10 23 25 23 21 22 21 3 3 2 3 3 2 4 1 2 5 4 3 5 4 6 5 2 2 4 3 3 3 6 1 0 1 3 4 4
31 27 25 24 27 26 29 28 18 21 21 19 30 10 20 23 19 8 2 4 3 3 2 1 3 4 1 1 2 3 4 3 4 6 5 2 3 2 2 4 2 3 2 5 4 2 4
30 29 28 28 28 28 29 14 21 19 27 49 15 4 25 23 6 3 2 4 3 3 2 1 4 3 3 1 3 3 2 2 12 3 3 3 3 4 1 4 3 2 3 3 3 3 4
30 30 31 28 36 39 25 3 23 29 40 38 9 10 22 22 3 4 3 2 2 3 1 2 2 1 1 2 3 2 1 2 9 4 2 1 3 3 6 3 2 5 4 4 4 2 2
31 34 37 46 40 1 14 35 33 44 39 30 10 4 7 8 2 4 4 3 3 1 2 3 3 3 3 4 5 2 2 3 6 4 7 4 4 3 4 2 1 4 4 3 3 3 2
33 39 51 30 23 24 36 38 46 39 32 18 6 3 7 6 5 3 1 4 5 3 2 2 3 2 2 2 2 2 1 3 3 7 4 3 4 3 4 3 3 3 4 3 4 2 3
38 47 35 42 19 30 35 46 42 36 25 10 6 5 7 4 14 4 1 3 4 2 3 1 5 3 2 3 1 5 3 0 1 5 4 4 1 2 4 5 5 2 2 3 3 2 0
35 41 30 34 29 43 46 38 24 20 15 9 7 14 9 9 10 3 5 4 6 6 4 3 6 5 5 2 4 6 7 9 5 2 3 3 3 3 2 4 3 4 2 1 1 2 2
29 31 23 29 28 39 29 27 20 19 16 11 14 7 6 3 7 7 4 2 5 2 6 3 6 4 5 17 13 12 16 16 15 9 5 3 3 2 1 3 3 4 3 2 4 5 6
22 20 20 13 13 28 20 20 17 18 16 11 8 3 5 5 7 1 3 5 8 10 5 5 4 7 15 2 3 4 5 4 6 5 7 4 3 3 3 1 3 1 2 1 2 1 4
19 14 10 8 12 20 24 13 15 16 14 17 18 9 6 11 1 3 3 3 4 3 3 4 8 12 3 3 3 2 2 1 2 3 3 4 5 4 1 2 2 4 2 1 2 3 1
20 19 8 7 15 15 34 14 12 12 8 15 19 13 6 9 3 3 2 3 5 5 4 3 4 2 3 2 2 2 2 1 2 4 2 2 3 3 2 1 5 4 3 1 2 2 2
17 16 3 2 8 15 25 24 13 11 6 3 16 17 4 7 8 4 5 4 5 4 4 7 4 1 3 3 2 3 2 4 1 3 4 5 5 3 2 2 5 4 2 5 2 2 4
17 16 5 5 7 11 17 24 25 10 9 7 6 11 8 6 9 13 12 9 7 5 7 9 2 3 4 4 1 2 2 1 3 2 1 2 5 4 6 5 2 3 4 8 3 2 4

GFSGBSN_850_spd_102.txt.gz
Wind_Speed
23 23 24 22 22 20 21 22 24 22 23 23 21 20 21 18 22 20 13 6 6 11 9 8 9 8 6 4 8 10 10 8 6 6 4 4 6 5 8 6 8 17 20 20 15 19 24
24 23 24 25 23 23 24 23 22 26 24 23 22 17 17 19 23 22 11 2 5 7 10 7 9 7 5 8 7 11 10 8 5 2 4 5 4 5 9 12 12 11 18 25 18 16 16
22 24 25 22 23 23 22 23 24 24 24 24 23 15 8 13 26 18 4 3 5 7 11 9 9 7 8 12 7 11 10 8 7 4 6 8 7 9 2 9 18 21 18 15 18 22 15
25 27 26 24 24 22 22 21 22 22 24 24 20 17 10 13 21 14 8 4 4 4 2 8 10 7 8 6 11 11 10 9 9 7 6 6 7 11 9 10 9 13 17 17 17 16 15
28 27 26 25 24 22 20 21 23 22 23 23 21 13 11 13 26 19 8 3 2 5 3 8 8 6 6 6 9 7 8 9 8 9 8 6 6 7 5 7 7 12 12 19 16 19 12
29 28 27 25 25 24 24 21 22 23 20 22 21 13 15 14 25 14 7 10 8 6 7 8 9 4 7 5 5 6 8 10 9 6 6 7 5 4 4 6 8 10 17 16 17 20 17
30 30 27 28 26 24 23 22 21 21 20 20 19 7 13 21 24 13 13 14 8 2 10 8 4 3 4 4 7 7 7 5 6 6 9 6 5 10 11 16 6 2 12 14 15 19 17
33 32 31 30 29 27 26 23 23 21 18 20 17 6 5 20 14 13 13 10 10 2 4 16 7 11 7 6 4 7 6 4 5 9 8 5 10 13 13 14 13 2 13 15 9 19 11
35 33 32 30 32 28 24 23 24 17 17 15 18 3 8 26 17 13 8 10 8 5 3 5 7 6 1 5 4 4 6 2 6 9 12 11 5 9 8 7 8 8 12 12 11 14 5
35 34 34 32 32 26 20 22 22 17 17 11 14 7 21 20 12 10 8 12 7 6 1 5 3 2 2 4 3 4 4 5 3 5 5 7 5 6 8 11 9 9 15 10 16 15 5
37 37 34 37 30 21 24 22 17 15 10 8 9 7 19 21 7 14 6 17 9 4 3 4 3 2 3 3 2 3 6 7 4 2 3 2 3 6 5 7 13 3 14 16 19 10 7
39 39 40 33 21 23 23 18 14 11 8 9 4 11 16 21 11 10 15 17 11 2 2 3 3 2 3 3 1 2 4 8 5 1 1 2 1 3 3 7 15 7 8 3 1 3 5
41 35 27 28 22 22 18 13 15 8 5 4 2 5 17 21 13 14 20 17 3 3 1 4 2 3 3 3 2 2 4 4 5 2 3 2 2 2 2 6 8 7 11 3 3 3 4
36 33 26 24 21 15 10 8 3 3 5 3 4 1 31 20 18 20 21 2 3 2 3 2 2 2 4 3 1 3 4 6 6 4 2 3 3 3 1 2 3 4 2 2 5 4 4
34 30 25 19 14 11 8 5 5 8 4 8 6 21 22 17 21 23 11 2 2 2 4 7 3 3 2 2 2 4 5 7 6 9 3 2 4 6 7 4 2 1 3 2 5 3 5
32 28 25 21 17 14 12 10 11 6 10 14 17 27 17 21 20 15 2 2 1 1 2 1 1 2 2 3 1 3 6 5 7 6 4 3 4 6 6 5 3 5 1 1 1 4 5
32 29 24 22 19 15 13 11 6 12 23 14 25 9 13 19 16 5 1 1 2 2 2 2 2 4 2 1 3 3 4 3 6 7 5 3 3 4 3 7 8 4 2 4 1 3 4
35 35 33 29 22 19 17 7 7 15 20 30 9 3 18 21 4 1 1 2 1 2 1 1 2 3 2 1 3 2 3 3 11 5 4 4 3 4 4 2 4 3 5 3 2 4 4
56 52 42 22 7 2 1 16 19 19 34 27 7 9 17 8 2 4 2 1 2 2 1 1 2 1 1 2 1 1 2 4 8 6 4 3 3 2 4 4 2 5 6 4 2 1 3
51 46 37 33 31 33 30 32 35 43 32 22 8 3 5 3 2 4 2 2 3 1 1 1 2 1 2 2 4 3 1 3 6 4 7 1 4 5 3 4 2 2 7 9 5 3 7
49 40 37 37 38 38 42 42 39 32 30 14 5 3 6 4 6 5 2 2 4 2 2 3 2 3 2 2 1 2 1 2 1 6 3 2 4 4 7 6 3 6 7 8 5 3 5
40 34 30 28 28 32 35 35 38 35 22 6 5 5 5 5 10 4 3 4 7 2 1 1 3 3 4 3 3 1 1 0 2 4 3 2 4 2 3 5 4 6 4 3 5 3 5
33 29 25 18 18 26 29 29 27 24 13 5 8 14 7 9 8 5 4 4 6 4 2 3 4 4 8 4 5 7 7 8 5 2 3 2 2 1 2 5 1 4 5 5 3 5 3
19 22 15 13 14 19 18 18 14 8 5 7 18 12 5 5 8 6 4 1 7 1 3 2 3 2 5 16 13 8 9 10 11 11 6 3 3 2 2 1 1 3 3 1 6 5 5
12 11 9 9 17 15 13 14 14 12 12 10 8 5 5 6 11 4 4 4 7 7 4 3 5 5 13 2 1 0 0 1 6 7 9 5 2 3 1 1 1 1 2 3 2 3 3
11 8 6 9 15 15 13 9 9 13 15 10 9 7 7 13 8 3 4 5 4 3 2 3 7 10 1 2 1 1 1 2 1 1 2 2 5 0 1 1 3 3 3 1 1 3 5
14 11 7 4 13 21 14 9 10 10 13 15 12 6 5 7 4 6 2 4 4 4 3 3 2 1 2 1 1 1 0 2 2 1 1 0 1 1 2 2 3 4 4 4 3 3 7
13 13 7 3 12 21 20 14 10 7 5 10 13 9 3 6 7 5 5 4 5 3 4 6 4 2 1 2 2 1 2 1 2 1 2 3 3 3 2 3 3 9 5 5 5 7 5
12 13 9 3 8 13 24 18 11 6 4 3 8 8 9 6 8 10 8 7 6 5 6 10 1 2 2 2 1 2 2 1 2 2 2 3 2 2 5 1 3 9 2 6 7 5 4

GFSGBSN_850_spd_105.txt.gz
Wind_Speed
24 25 25 23 21 20 20 21 23 22 22 22 21 20 16 12 12 25 24 17 8 8 8 3 5 3 3 3 8 7 8 7 6 2 5 8 9 10 12 9 13 17 19 25 24 23 22
24 27 25 24 24 22 19 20 19 24 20 21 21 19 14 9 14 25 24 16 7 7 7 4 6 3 1 6 3 6 7 5 4 5 6 7 7 7 11 14 13 16 19 21 25 25 21
28 28 26 24 25 23 21 20 18 18 22 19 21 21 7 5 10 24 23 13 5 7 7 7 6 3 4 9 1 5 6 5 7 6 7 7 8 8 4 11 13 17 21 21 23 21 21
30 30 29 26 25 23 23 21 18 18 20 21 20 19 6 7 8 24 19 10 5 3 3 11 7 3 5 8 5 7 7 8 7 8 7 6 7 12 13 11 17 15 19 18 22 21 24
34 30 31 28 26 23 22 20 20 18 18 20 22 19 12 13 8 20 14 7 6 9 9 9 6 3 5 6 5 6 9 9 9 8 7 7 8 10 5 7 9 12 14 19 21 20 18
35 33 31 29 27 24 23 23 20 18 18 19 20 18 15 14 21 27 15 11 14 10 9 8 4 2 6 2 4 5 8 10 10 10 10 10 7 5 4 6 11 7 14 18 17 18 20
37 35 34 31 28 25 22 22 21 18 17 16 18 13 12 9 21 23 17 18 11 3 8 5 5 2 1 3 3 5 9 8 11 12 13 10 6 12 15 16 20 17 16 14 16 19 21
38 36 34 31 27 25 24 21 19 15 15 14 12 9 5 5 18 18 17 7 6 6 5 12 3 6 6 3 5 7 6 8 11 12 12 5 15 15 11 15 15 16 13 17 17 14 18
39 36 35 31 29 25 27 22 15 13 13 12 12 9 13 6 16 17 14 7 10 9 3 4 5 4 2 4 5 5 11 5 9 8 10 11 6 3 7 12 12 14 18 17 6 20 19
41 38 35 32 32 30 25 16 9 11 9 9 8 5 9 21 17 16 13 11 11 5 1 5 3 2 2 3 5 9 10 5 3 3 4 7 6 8 11 13 13 14 14 9 17 18 9
39 33 27 24 22 18 10 10 8 6 4 5 5 2 18 25 5 16 6 15 10 2 3 4 4 3 2 6 1 7 6 4 3 2 2 3 2 5 8 10 10 8 14 10 15 8 14
34 30 26 24 19 13 11 7 2 4 6 4 4 5 21 14 4 7 13 16 6 3 3 3 4 3 5 10 4 4 5 5 4 2 4 3 3 3 6 7 10 9 4 7 3 5 5
33 27 22 19 16 11 9 1 8 8 6 2 6 7 12 13 5 17 20 8 2 2 1 4 4 5 5 2 2 1 3 3 2 3 1 2 1 4 6 2 6 3 5 2 1 3 4
28 26 20 15 12 8 5 10 11 13 9 6 7 3 12 13 7 22 13 3 1 3 3 1 3 5 1 2 2 2 3 3 3 3 2 4 3 5 3 4 3 6 5 3 3 2 5
33 20 14 11 7 6 9 8 10 11 10 8 5 11 13 13 19 22 4 0 2 3 2 5 5 4 3 2 2 2 4 5 5 7 4 1 3 5 1 7 6 4 2 4 1 11 5
45 37 19 7 2 4 0 1 9 12 13 13 21 16 15 17 18 10 2 2 2 1 1 2 1 4 2 4 2 3 5 7 4 6 4 3 2 4 7 7 3 2 2 3 1 2 6
42 23 10 14 8 9 3 15 18 20 18 18 19 8 10 12 15 4 0 4 3 1 2 4 4 2 4 4 6 5 6 6 9 6 4 1 3 5 3 8 9 8 6 4 4 3 3
47 38 19 26 18 21 15 20 22 26 20 21 9 4 14 18 1 5 1 3 3 1 1 2 3 5 7 4 5 3 6 7 12 6 5 5 3 3 2 4 2 5 7 6 4 3 4
46 44 26 23 35 35 26 31 33 27 25 18 7 7 12 4 1 2 2 2 3 2 4 4 3 5 4 4 1 3 4 5 9 8 5 6 3 1 3 4 4 4 10 9 3 4 5
40 38 36 25 26 35 33 36 31 26 31 15 8 3 2 2 3 0 3 1 2 1 2 3 3 2 2 4 4 3 2 4 6 6 5 4 5 5 5 5 5 7 12 13 5 5 12
30 33 29 31 27 27 22 25 26 27 25 3 4 3 5 4 3 4 0 1 4 1 2 3 2 4 5 2 2 4 4 2 2 4 2 3 4 5 8 6 5 7 10 13 11 6 9
28 23 24 22 26 25 29 29 30 23 12 5 2 5 5 5 6 6 4 5 6 2 3 2 2 4 6 5 5 4 5 4 4 4 3 1 3 1 4 6 4 7 10 7 10 9 8
19 20 15 16 19 23 21 21 22 16 7 2 2 10 4 8 7 5 4 3 5 2 2 3 2 2 6 6 6 7 7 6 6 6 5 4 2 0 2 3 1 1 8 7 5 8 5
6 11 7 9 11 12 12 11 10 11 9 6 8 6 3 5 7 7 3 2 6 1 1 2 4 2 2 5 2 2 4 5 7 8 5 2 2 2 2 3 2 4 3 2 4 3 4
3 5 10 3 5 8 4 3 2 2 5 9 11 3 2 4 9 7 5 4 5 3 3 3 4 2 4 4 3 2 3 3 2 4 6 4 1 1 2 3 3 1 3 3 2 1 2
5 2 5 8 11 11 7 3 7 9 6 4 5 5 3 9 7 4 8 10 5 3 4 2 3 5 2 2 2 2 2 2 0 2 0 2 2 3 1 2 2 5 7 4 1 4 8
7 5 1 6 13 16 15 6 2 6 11 6 6 6 5 4 3 7 4 6 2 0 2 3 4 2 2 2 2 2 1 2 2 3 1 1 2 4 2 2 0 8 10 6 4 3 12
9 6 2 3 9 14 16 10 8 6 6 11 8 2 4 3 8 9 6 1 2 2 3 6 4 4 3 3 2 0 2 1 3 1 3 3 2 3 1 2 2 12 6 4 6 10 8
7 6 2 3 1 7 14 17 10 8 5 10 9 6 6 4 7 9 8 7 6 4 2 6 2 1 3 2 2 2 3 2 2 1 3 3 2 3 4 1 2 17 1 5 5 7 5

GFSGBSN_850_spd_108.txt.gz
Wind_Speed
30 31 30 30 28 26 23 21 19 19 18 18 15 17 17 16 10 13 14 20 15 11 9 6 7 4 4 1 2 4 7 6 5 2 1 4 5 8 9 8 11 11 12 20 23 24 26
32 33 33 32 29 26 25 22 20 18 16 18 21 17 18 11 8 14 20 23 13 9 7 6 9 5 3 4 5 1 7 4 3 1 1 2 4 8 9 11 11 15 18 19 22 23 24
34 36 34 35 30 28 24 22 21 19 17 16 19 20 18 9 9 12 20 19 14 7 7 7 9 6 3 5 5 6 7 5 3 2 1 3 5 6 9 8 7 13 13 14 20 19 18
37 36 36 34 31 28 25 20 18 16 17 17 18 19 18 9 3 11 19 19 11 7 8 9 10 6 2 5 6 9 5 5 4 2 1 3 4 9 14 9 8 12 12 13 9 18 23
39 37 35 31 30 28 24 18 16 18 16 17 18 18 18 10 14 4 16 16 9 9 12 14 11 4 3 2 6 6 7 5 6 4 5 7 7 11 6 4 6 9 8 12 17 16 14
38 36 33 31 27 25 23 19 15 15 14 15 18 16 15 19 19 16 21 11 14 13 14 10 5 1 3 2 5 6 6 6 7 6 7 9 7 3 3 4 5 5 8 7 15 15 14
39 37 39 30 29 27 21 16 14 13 11 13 16 14 8 18 22 24 19 22 13 5 7 5 4 5 7 3 2 3 5 3 6 9 11 15 4 9 12 14 16 16 17 18 20 12 11
38 39 34 30 24 22 20 17 16 13 6 10 11 10 5 12 17 20 23 8 2 6 5 6 5 3 2 2 2 5 6 4 7 10 9 4 12 13 13 10 14 16 15 16 19 8 10
35 34 32 28 21 21 17 16 14 4 6 7 7 9 5 1 9 12 11 3 10 8 4 4 5 2 2 4 2 2 8 3 5 8 9 8 4 3 7 11 16 13 15 13 9 11 9
32 31 24 23 21 18 9 6 4 3 1 2 7 4 4 7 12 8 14 9 10 4 3 3 5 4 3 3 1 5 7 3 3 3 3 7 9 9 9 13 13 13 7 9 9 7 7
30 27 25 18 14 16 8 2 4 4 4 2 5 15 20 14 5 10 3 10 7 2 3 4 4 4 4 2 2 5 7 6 3 2 3 2 3 3 6 8 8 8 6 14 12 6 11
34 18 19 16 14 10 7 8 10 8 7 4 8 5 21 11 5 4 14 10 4 2 2 2 5 5 4 7 3 7 5 5 4 3 6 6 4 3 4 12 8 6 6 1 3 5 4
27 22 10 12 12 10 8 10 13 11 8 9 9 8 12 6 8 12 16 4 1 2 3 3 3 3 5 4 6 7 6 4 2 3 1 3 3 3 8 7 1 4 2 3 0 2 2
41 20 2 7 8 10 11 12 10 11 10 10 10 8 7 5 5 15 5 2 4 4 2 2 2 4 4 1 2 2 7 3 7 1 3 4 3 4 3 3 3 4 3 3 3 2 2
38 16 6 9 11 13 12 17 16 13 13 13 10 12 9 8 6 12 4 2 3 4 1 3 3 5 5 4 3 4 6 5 4 5 1 3 4 4 10 9 5 4 3 2 3 5 3
31 14 13 13 14 11 12 14 16 13 15 16 16 16 13 8 15 2 3 5 3 3 4 3 2 3 4 4 4 2 3 5 4 3 1 5 4 4 6 4 5 6 6 1 2 3 4
29 18 18 17 14 10 13 15 16 19 19 21 15 8 5 6 8 4 2 4 5 4 5 5 6 1 4 3 4 3 6 3 6 5 5 3 3 3 3 5 5 5 5 4 1 2 1
34 21 19 15 14 15 20 21 21 21 24 16 10 4 7 9 2 4 4 3 2 4 0 3 4 6 6 5 5 3 4 5 10 8 5 3 4 2 2 3 2 5 6 5 3 7 5
34 20 15 17 15 18 20 21 22 21 20 8 7 6 6 8 2 2 2 3 3 4 5 6 4 5 4 4 2 5 4 5 7 5 5 5 4 3 3 2 2 5 9 6 2 2 6
34 25 11 11 12 15 17 20 18 24 11 10 5 2 2 2 6 4 0 2 3 1 1 5 2 5 2 4 4 4 4 1 7 4 5 4 5 4 2 2 3 5 10 10 4 5 10
29 25 14 7 6 10 17 19 17 19 12 8 3 2 4 2 3 4 3 4 2 3 1 4 1 7 5 5 3 4 4 1 4 1 2 4 3 4 3 4 1 5 7 12 11 7 7
20 23 18 14 7 6 8 8 11 15 7 9 4 3 3 3 6 4 2 1 1 2 5 4 6 6 10 6 6 5 6 5 4 7 3 3 1 1 1 6 3 6 8 8 9 11 12
12 14 16 12 13 13 7 7 7 6 10 6 8 3 4 2 4 3 4 3 2 2 3 4 8 3 6 4 7 6 4 2 2 5 6 4 1 2 2 4 6 1 4 6 5 5 1
6 5 7 8 4 6 2 2 6 12 18 15 10 5 4 2 3 3 2 1 3 3 3 3 8 4 1 2 6 6 2 2 3 5 5 4 2 1 3 4 2 3 2 1 6 5 6
4 2 5 3 6 3 1 2 3 6 9 12 8 2 4 1 8 6 3 3 4 2 2 3 2 3 2 5 3 3 2 2 1 2 4 4 2 1 2 1 2 4 4 4 1 4 4
5 4 4 5 8 9 7 2 4 11 7 5 9 7 3 2 5 6 8 6 4 3 4 1 2 4 3 2 2 1 1 1 1 2 2 5 3 1 1 1 2 2 4 4 3 0 7
5 6 8 11 11 14 13 12 7 7 11 9 8 2 2 4 4 5 5 4 1 1 3 3 3 2 2 2 1 1 1 1 1 3 1 1 2 3 4 3 2 5 7 4 2 5 11
7 8 10 13 12 14 18 16 11 8 8 11 10 14 5 4 6 10 5 2 3 2 2 5 3 3 1 1 0 0 2 0 2 2 2 2 1 4 1 2 4 12 4 4 5 12 12
7 9 8 7 6 8 9 16 15 10 9 8 12 11 9 5 6 11 9 9 8 4 2 6 0 1 1 1 1 1 3 2 2 3 1 2 3 2 2 4 1 20 4 8 8 10 9

GFSGBSN_850_spd_111.txt.gz
Wind_Speed
31 30 35 34 31 30 29 22 19 17 12 13 12 13 13 15 13 13 15 12 22 14 10 10 5 9 9 5 2 5 7 9 8 7 4 3 2 3 1 4 9 3 5 14 17 18 19
38 32 33 31 32 28 27 24 20 14 13 11 9 12 14 14 8 10 14 21 22 13 7 7 12 10 10 6 6 4 6 10 2 7 4 4 3 4 3 3 3 9 14 16 17 20 19
37 36 32 29 28 25 24 24 19 15 9 9 11 11 13 12 5 11 16 26 16 8 8 9 13 11 8 8 7 6 8 6 5 6 5 6 1 1 7 6 11 11 6 12 14 17 13
34 30 29 31 26 24 21 20 18 12 6 8 11 9 12 10 4 13 15 18 13 9 10 12 14 10 5 7 6 9 9 7 6 5 5 3 1 0 2 8 9 5 4 5 3 7 12
33 32 30 34 28 19 15 15 13 3 5 7 8 9 12 7 7 1 22 18 13 9 13 16 12 7 4 4 10 7 9 7 7 3 2 1 2 2 3 2 3 2 4 7 12 11 11
35 33 29 31 23 18 16 11 10 6 6 6 7 10 12 9 8 7 17 17 19 22 19 12 4 3 4 3 9 7 8 8 4 4 4 1 2 2 0 3 3 5 4 8 12 6 15
34 30 26 23 23 16 10 10 5 3 2 3 3 7 10 10 15 16 22 28 15 8 5 3 1 7 13 7 6 8 8 7 6 3 2 1 1 7 9 8 7 9 13 17 18 20 17
37 26 24 23 20 18 7 5 6 2 3 2 3 4 9 16 21 21 16 12 6 4 5 4 6 5 6 4 5 8 8 5 4 3 2 3 9 10 9 10 13 12 16 18 16 15 11
30 20 23 18 19 14 8 4 2 6 6 3 2 5 6 17 16 16 13 9 9 11 5 2 3 1 4 4 1 10 8 2 1 2 5 7 3 9 5 11 12 12 13 14 12 12 8
26 15 16 17 16 15 14 15 15 10 7 7 8 8 11 9 13 11 7 10 10 3 4 1 3 2 3 5 5 7 6 2 2 1 2 6 6 9 8 11 12 11 9 7 8 5 3
26 14 13 14 15 13 12 12 13 12 12 16 15 20 19 11 8 7 3 9 6 2 5 4 3 4 4 2 9 2 4 5 3 3 2 2 3 6 6 7 8 9 7 3 14 6 4
23 7 10 13 13 13 12 14 14 13 13 17 16 19 16 11 6 5 7 11 4 4 1 3 3 3 3 5 7 7 2 3 2 2 6 7 5 3 5 8 11 9 4 8 1 2 4
17 13 11 13 14 11 12 13 14 14 17 18 14 15 13 11 10 16 12 2 4 6 3 2 4 4 5 5 6 8 5 4 3 1 3 5 5 4 6 6 2 3 2 3 3 4 3
16 16 15 15 16 13 13 12 14 14 16 17 18 17 12 15 14 13 1 3 9 2 4 3 3 3 3 4 4 8 3 2 5 4 2 5 6 3 4 5 4 2 3 2 4 3 2
19 17 16 16 17 15 12 11 13 13 15 15 14 13 13 13 16 6 2 6 5 2 3 2 2 2 3 2 2 4 4 4 1 2 1 4 4 3 7 5 3 2 2 2 2 1 3
21 17 15 15 16 14 14 13 11 12 14 12 10 17 14 13 10 5 4 4 3 3 5 3 2 5 2 3 1 3 1 4 4 2 2 3 4 5 3 5 7 5 2 3 2 3 4
23 14 12 11 10 8 10 11 12 16 17 10 7 7 5 8 5 4 3 3 3 1 4 3 4 6 4 3 5 4 4 1 4 5 3 3 2 6 2 3 4 5 4 3 1 4 1
26 17 10 10 9 8 7 11 16 16 10 6 8 3 7 5 4 2 2 1 1 3 4 3 2 3 4 6 5 2 2 1 6 5 2 1 2 3 2 4 3 3 5 2 3 5 3
25 15 13 9 8 13 14 14 16 13 14 10 6 3 6 9 3 3 1 2 3 5 4 5 5 3 2 2 2 2 2 3 4 3 3 4 3 3 8 6 6 4 11 3 3 3 4
29 20 14 11 6 10 12 16 18 14 16 10 3 2 3 4 2 2 3 1 2 0 2 3 3 3 2 2 4 2 1 4 3 1 3 1 3 3 5 5 5 6 12 8 5 4 3
21 23 16 10 9 6 8 12 14 13 19 10 1 0 2 2 4 2 2 3 2 1 2 3 2 5 3 3 3 4 4 6 3 5 2 3 2 3 2 3 2 4 5 10 6 5 5
11 17 17 13 7 6 6 4 9 3 16 10 7 3 1 4 1 1 2 1 1 2 2 4 3 4 6 3 2 1 3 3 1 6 5 4 1 2 2 3 2 3 7 7 8 11 7
6 8 9 10 11 7 4 3 4 6 11 7 12 8 5 3 4 1 3 1 1 2 2 1 3 0 2 1 6 8 8 4 1 1 3 2 3 2 3 2 2 4 2 2 2 3 6
2 5 3 6 4 6 4 4 4 8 13 14 12 12 4 3 0 3 1 2 0 2 2 2 6 3 2 4 10 8 9 8 1 2 2 1 2 2 3 3 2 5 1 2 4 2 3
4 4 6 6 6 4 4 5 5 11 8 7 7 3 3 3 5 6 2 2 1 1 2 1 2 2 3 7 4 4 4 3 3 4 1 2 3 1 2 2 3 0 3 5 5 5 5
6 6 7 10 12 10 10 5 6 7 12 6 3 8 4 3 3 6 3 5 2 2 3 3 3 3 3 2 3 1 2 3 3 6 2 1 3 3 1 1 4 4 4 5 3 4 9
9 8 8 10 14 16 15 11 7 11 8 11 9 2 1 2 3 6 1 3 4 2 1 1 2 2 2 2 1 1 3 1 2 2 3 2 2 3 1 2 6 4 7 6 3 5 14
10 10 10 11 13 17 18 17 12 9 9 7 8 10 1 4 7 7 5 4 5 3 1 1 2 2 2 0 2 3 2 3 1 4 3 5 4 4 2 2 6 13 6 7 4 11 20
11 9 11 10 8 10 15 17 17 12 8 9 7 9 8 2 4 6 10 8 7 5 5 2 2 1 2 1 1 0 2 1 3 3 0 3 6 3 7 5 4 24 6 11 12 18 19

GFSGBSN_850_spd_114.txt.gz
Wind_Speed
33 34 28 25 22 21 23 19 18 16 15 11 8 5 6 9 10 8 19 7 17 16 14 9 5 9 9 6 5 8 8 8 7 9 7 7 5 2 0 3 6 2 4 13 13 15 15
40 29 25 23 23 21 18 15 15 14 7 11 6 5 5 9 7 7 18 12 25 20 13 8 10 12 9 5 11 10 6 8 6 8 7 6 3 2 2 2 1 6 10 13 13 18 15
30 28 26 25 22 19 15 13 12 9 8 7 5 4 5 8 2 6 17 17 28 20 13 12 14 13 11 7 9 9 7 6 3 6 7 4 0 2 2 3 7 8 6 9 10 11 6
32 28 24 23 21 14 12 9 10 5 5 8 3 4 4 7 1 11 17 27 18 12 16 17 15 15 7 10 9 8 8 6 3 1 1 1 2 2 2 4 6 5 2 4 4 3 6
33 26 24 22 19 17 6 6 9 8 6 4 3 5 2 4 4 7 28 23 15 19 18 17 14 9 6 8 9 7 11 6 2 1 2 1 2 1 0 2 3 2 4 5 7 1 4
37 22 20 19 19 16 8 7 2 5 4 4 1 4 1 4 4 26 20 16 20 23 20 14 10 9 5 4 10 7 9 6 6 4 1 1 1 2 3 3 3 4 4 6 8 3 13
31 25 19 17 21 15 6 7 8 5 7 4 6 6 5 14 13 24 34 36 22 10 8 7 2 9 13 10 9 9 8 8 4 3 2 2 3 5 8 8 3 2 7 14 17 18 15
33 20 17 18 20 15 10 7 8 6 9 6 13 16 17 24 26 28 18 13 10 13 10 11 9 10 8 6 4 7 6 3 3 2 2 3 7 8 7 8 7 8 15 19 15 13 7
26 16 16 19 18 19 12 12 12 12 9 11 13 16 23 29 26 14 13 13 17 15 7 6 6 3 3 5 1 9 8 4 1 2 4 6 5 6 4 9 12 14 14 15 14 13 13
19 17 17 16 16 17 21 17 14 14 12 11 18 17 17 18 13 14 11 11 13 4 5 2 0 2 2 3 4 8 8 2 2 3 2 6 5 8 7 10 9 13 8 14 14 7 3
17 18 20 19 19 17 16 18 16 16 16 18 22 20 18 10 17 11 9 10 8 1 5 3 3 3 2 2 10 3 3 2 2 4 3 3 3 6 5 6 6 10 4 9 7 10 4
23 23 22 20 19 17 18 19 17 18 23 23 22 16 13 13 13 11 10 10 3 5 1 3 3 2 1 3 5 3 2 4 3 3 6 8 6 4 4 7 12 11 7 9 2 2 2
24 24 23 19 18 18 18 19 18 19 20 22 18 12 9 10 12 13 12 4 4 6 3 2 3 4 4 5 6 7 5 4 4 2 3 1 3 3 6 7 4 4 2 3 2 1 3
24 24 23 22 18 17 15 15 16 16 15 13 11 7 13 21 18 11 2 5 8 2 4 2 4 4 3 5 5 6 2 3 6 3 2 5 7 3 5 5 3 4 2 2 4 3 3
20 21 22 21 18 13 14 15 15 15 17 12 6 6 13 14 10 2 2 6 5 3 2 1 1 0 3 3 3 5 5 3 1 2 2 4 5 4 8 6 7 2 2 2 3 2 3
17 15 15 13 14 13 12 14 14 14 11 7 7 16 11 6 1 6 4 4 2 3 2 1 1 3 2 3 1 4 3 2 3 0 3 2 4 6 5 2 7 6 3 1 2 4 3
24 19 17 12 10 10 10 13 18 15 8 4 3 4 3 6 8 5 4 1 1 3 0 2 1 1 2 2 3 3 3 1 1 3 4 1 2 6 2 1 3 3 4 2 3 2 3
25 21 19 14 10 9 10 15 15 18 17 7 3 3 3 8 4 3 2 2 3 4 3 1 1 2 0 2 3 1 0 3 2 2 2 2 2 4 7 3 3 3 4 2 3 1 2
22 20 19 15 11 10 11 14 16 19 19 11 4 3 9 10 3 3 2 2 3 5 3 4 3 1 1 1 2 1 1 3 3 1 2 1 2 4 8 6 6 4 6 4 2 3 1
17 18 14 14 10 9 9 11 16 19 18 12 4 4 6 8 5 2 2 2 3 3 4 3 3 4 3 5 4 2 3 2 3 3 3 0 2 3 4 5 3 7 13 7 3 4 2
10 12 13 10 8 6 5 8 11 19 20 9 6 2 4 3 5 3 2 1 1 3 3 6 3 5 3 3 3 4 3 5 3 8 2 2 1 2 4 5 3 2 6 10 6 3 3
5 5 7 10 5 4 2 6 4 10 15 17 5 5 5 4 9 6 5 2 0 0 3 3 3 5 5 2 0 2 3 3 2 6 5 3 1 2 3 5 4 3 4 6 6 5 6
6 3 2 6 8 5 3 5 6 7 10 5 5 4 5 4 3 3 3 4 4 3 0 1 1 2 3 3 5 9 8 11 7 2 2 2 3 2 3 5 5 6 4 2 1 2 6
7 8 5 3 4 3 2 4 6 8 8 4 3 2 3 3 1 2 4 5 5 4 2 4 3 1 2 7 13 11 12 12 8 5 3 1 2 1 2 3 3 5 2 3 4 4 5
8 9 10 9 7 6 3 2 3 8 10 5 1 2 2 1 3 6 6 3 5 6 4 5 4 5 7 6 3 4 3 3 3 5 4 2 3 1 1 2 5 3 4 5 5 6 8
9 10 12 12 13 12 10 7 3 3 8 7 3 4 5 3 5 5 2 3 1 2 6 4 6 4 7 4 3 2 2 2 4 7 2 3 4 3 2 1 5 4 2 5 3 6 11
10 11 13 14 15 15 17 15 10 4 3 5 6 3 5 4 6 5 5 5 2 1 2 4 4 1 2 2 1 2 3 2 3 3 3 1 2 3 1 2 7 5 7 7 4 6 12
13 11 12 14 15 16 17 19 17 10 5 4 5 5 3 5 8 9 10 8 8 6 2 2 1 2 3 1 1 2 2 3 2 4 3 5 4 4 2 3 7 10 6 7 6 2 18
15 14 11 13 14 14 16 18 19 18 11 6 5 7 8 8 6 10 12 15 11 9 8 5 2 3 3 2 1 2 2 1 2 4 1 3 6 3 7 5 4 27 6 20 5 12 17

GFSGBSN_850_spd_117.txt.gz
Wind_Speed
31 31 27 24 21 14 15 14 9 8 8 12 14 11 7 4 7 9 14 14 20 23 17 10 6 9 11 8 7 10 7 5 6 4 5 6 6 2 2 2 6 2 4 11 13 17 15
34 31 26 23 21 17 13 12 8 7 4 9 9 9 5 5 7 7 19 16 21 21 15 10 10 12 10 6 13 9 7 7 6 4 5 4 5 4 3 2 1 7 11 16 12 19 15
31 32 26 23 22 16 11 7 7 6 1 5 11 5 4 5 5 6 21 14 25 21 15 13 15 13 12 9 11 8 6 8 6 5 5 6 3 1 3 4 7 8 7 9 6 6 4
34 29 24 22 21 16 11 10 9 4 4 11 8 4 3 3 4 9 21 24 30 18 18 18 17 14 8 11 11 8 6 6 6 2 2 4 4 3 2 4 6 5 2 5 4 6 6
33 26 23 21 21 15 12 9 16 13 12 11 3 2 1 2 14 21 28 26 22 18 18 17 17 10 8 11 8 6 4 4 4 5 4 3 4 3 2 3 4 3 4 4 7 2 4
24 23 23 22 20 14 14 12 16 14 10 5 3 4 5 7 7 36 26 28 22 24 17 14 12 10 8 5 9 6 7 2 1 0 2 3 3 3 2 4 3 4 4 4 6 5 8
25 23 25 23 19 15 13 15 12 13 11 8 3 5 12 14 23 24 28 36 22 11 12 8 12 16 14 11 8 7 4 3 2 1 2 3 4 4 4 4 3 3 4 12 15 13 11
24 22 22 25 19 17 14 13 14 15 15 17 21 22 24 17 33 34 18 11 12 16 15 15 15 13 12 8 5 6 3 1 2 1 2 3 6 7 7 6 5 5 12 15 17 13 5
26 26 25 23 23 20 21 19 16 15 15 19 24 27 27 19 16 12 15 21 22 15 8 8 8 7 4 4 3 6 4 2 3 2 2 4 5 4 4 8 9 9 11 14 13 8 12
28 28 25 23 23 20 18 17 17 15 16 21 22 23 22 18 10 12 16 19 14 5 5 6 4 4 3 4 5 4 4 1 1 2 2 6 4 4 6 10 7 9 7 13 15 8 4
28 26 25 23 21 19 19 21 22 23 23 21 20 19 11 4 12 9 12 11 4 3 6 4 1 2 2 2 7 3 2 1 1 1 0 5 3 5 9 7 7 8 4 7 13 8 5
26 26 23 22 20 20 20 19 20 19 22 17 13 10 12 13 10 11 14 7 3 6 0 3 2 1 1 3 4 4 1 1 2 2 5 9 8 5 6 4 10 10 11 10 5 1 3
24 22 21 19 18 19 17 17 18 17 17 15 14 8 7 9 10 9 8 0 5 6 3 2 2 3 1 2 4 4 2 1 3 2 3 4 5 5 7 4 4 5 2 3 3 3 4
24 22 16 14 16 17 14 15 14 8 11 11 12 6 9 16 15 8 2 5 9 1 3 1 3 3 2 5 4 4 2 3 6 6 3 3 6 6 6 6 3 2 1 2 3 2 4
21 20 19 13 14 15 14 13 15 11 7 6 8 10 13 10 5 5 1 6 5 4 1 0 2 1 3 3 4 3 4 3 4 8 4 2 6 4 6 4 3 2 1 1 3 2 3
21 19 16 13 12 14 15 14 13 12 11 10 9 9 9 6 5 2 4 3 1 3 2 1 1 3 1 1 2 3 3 3 3 7 4 3 6 3 5 4 5 3 1 2 3 4 3
19 18 15 14 11 10 14 16 17 15 8 6 7 3 9 14 4 4 4 3 2 2 2 1 1 1 2 1 1 1 2 3 3 3 4 3 1 6 2 1 2 3 3 3 3 1 2
16 17 15 13 10 8 11 17 21 20 14 2 3 3 14 10 4 4 1 1 0 2 3 1 1 1 1 2 3 1 3 5 4 2 2 1 1 5 7 2 2 3 3 2 2 3 2
12 13 12 12 10 6 9 15 19 21 16 6 4 4 12 9 3 3 4 3 2 2 2 2 1 2 1 1 1 2 2 2 1 2 2 0 2 5 9 5 4 4 3 3 1 3 1
10 8 8 8 7 7 6 12 17 19 17 7 3 3 6 9 7 3 4 4 4 4 2 2 2 2 3 3 3 2 4 2 5 2 3 1 2 3 4 6 3 5 5 3 1 2 3
7 6 5 4 4 3 6 3 11 17 17 5 4 2 2 2 4 3 2 2 4 4 3 5 2 3 2 2 3 2 2 5 3 7 3 2 2 1 5 7 5 4 4 6 2 3 2
6 5 4 3 2 3 1 5 9 9 11 10 3 2 3 2 3 4 4 1 3 4 3 4 2 4 2 2 3 3 1 0 2 6 4 3 2 3 4 4 6 5 7 4 2 1 4
10 7 6 3 1 3 1 2 4 5 6 2 2 0 2 1 2 3 2 3 2 2 1 0 3 3 4 2 6 9 9 9 6 2 2 2 1 3 4 6 8 7 6 5 3 4 6
10 11 10 9 6 4 3 0 3 5 4 1 3 3 2 3 1 4 4 2 2 2 2 4 4 1 2 9 15 11 10 12 10 8 5 0 2 1 3 5 3 5 2 2 5 7 8
11 11 13 13 12 10 7 5 2 3 6 3 2 3 2 2 4 6 7 5 3 4 4 5 5 4 8 6 3 4 4 4 3 3 4 3 3 0 0 2 7 2 4 5 5 7 10
11 12 14 15 15 15 13 10 7 4 3 3 3 6 4 2 6 5 3 4 3 2 3 3 3 3 2 2 3 2 2 2 3 6 4 4 3 3 1 1 5 4 3 5 3 5 5
15 13 15 16 17 16 17 16 14 10 7 5 5 6 5 4 6 8 5 4 3 1 2 4 1 2 3 2 2 1 3 2 2 3 2 1 1 3 3 4 8 4 5 7 2 6 4
17 16 15 16 18 18 18 19 19 18 13 10 8 7 5 6 12 11 12 12 8 6 3 2 2 2 2 2 2 2 2 2 2 4 3 4 4 4 1 3 7 7 4 6 5 3 5
20 18 17 17 16 18 18 19 19 20 19 14 11 9 9 10 10 16 17 15 19 11 7 5 2 2 4 3 1 2 3 1 3 4 1 3 6 3 8 6 5 17 11 14 4 5 5